<?xml version="1.0" encoding="UTF-8" standalone="no" ?>
<gpx xmlns="http://www.topografix.com/GPX/1/1" xmlns:xsi="http://www.w3.org/2001/XMLSchema-instance" xsi:schemaLocation="http://www.topografix.com/GPX/1/1 http://www.topografix.com/GPX/1/1/gpx.xsd" version="1.1" creator="VisuGPX - https://www.visugpx.com">
  <metadata>
    <name>Les Crêtes de Citou</name>
    <desc><![CDATA[Départ du village de Citou se garer prêt du lavoir. Randonnée sur les crêtes qui surplombe le village. Une belle vue sur la plaine de Lézignan-Corbières avec en prime la chaîne des Pyrénées en fond. Une visite du château en ruine s?impose. Attention au vent, il peut souffler très fort sur les crêtes.]]></desc>
  </metadata>
  <trk>
    <name><![CDATA[14-AVR-19 15:30:52]]></name>
    <trkseg>
      <trkpt lat="43.3777" lon="2.54055">
        <ele>392.84</ele>
        <time>2019-04-14T07:27:34Z</time>
      </trkpt>
      <trkpt lat="43.37772" lon="2.54057">
        <ele>392.84</ele>
        <time>2019-04-14T07:27:54Z</time>
      </trkpt>
      <trkpt lat="43.37771" lon="2.54057">
        <ele>392.84</ele>
        <time>2019-04-14T07:28:03Z</time>
      </trkpt>
      <trkpt lat="43.3777" lon="2.54056">
        <ele>392.84</ele>
        <time>2019-04-14T07:28:20Z</time>
      </trkpt>
      <trkpt lat="43.37769" lon="2.54056">
        <ele>392.84</ele>
        <time>2019-04-14T07:28:29Z</time>
      </trkpt>
      <trkpt lat="43.37766" lon="2.54057">
        <ele>393.32</ele>
        <time>2019-04-14T07:28:36Z</time>
      </trkpt>
      <trkpt lat="43.37768" lon="2.54057">
        <ele>393.8</ele>
        <time>2019-04-14T07:29:03Z</time>
      </trkpt>
      <trkpt lat="43.37769" lon="2.54057">
        <ele>393.32</ele>
        <time>2019-04-14T07:29:29Z</time>
      </trkpt>
      <trkpt lat="43.37769" lon="2.54056">
        <ele>393.32</ele>
        <time>2019-04-14T07:29:48Z</time>
      </trkpt>
      <trkpt lat="43.37769" lon="2.54056">
        <ele>392.84</ele>
        <time>2019-04-14T07:29:55Z</time>
      </trkpt>
      <trkpt lat="43.3777" lon="2.54057">
        <ele>392.84</ele>
        <time>2019-04-14T07:30:06Z</time>
      </trkpt>
      <trkpt lat="43.37769" lon="2.54056">
        <ele>392.84</ele>
        <time>2019-04-14T07:30:15Z</time>
      </trkpt>
      <trkpt lat="43.37767" lon="2.54057">
        <ele>392.84</ele>
        <time>2019-04-14T07:30:26Z</time>
      </trkpt>
      <trkpt lat="43.37766" lon="2.54054">
        <ele>392.84</ele>
        <time>2019-04-14T07:30:37Z</time>
      </trkpt>
      <trkpt lat="43.37769" lon="2.54055">
        <ele>392.84</ele>
        <time>2019-04-14T07:30:46Z</time>
      </trkpt>
      <trkpt lat="43.37774" lon="2.54045">
        <ele>393.32</ele>
        <time>2019-04-14T07:30:55Z</time>
      </trkpt>
      <trkpt lat="43.37776" lon="2.54045">
        <ele>392.84</ele>
        <time>2019-04-14T07:31:07Z</time>
      </trkpt>
      <trkpt lat="43.37777" lon="2.54041">
        <ele>392.84</ele>
        <time>2019-04-14T07:31:16Z</time>
      </trkpt>
      <trkpt lat="43.37778" lon="2.5404">
        <ele>393.32</ele>
        <time>2019-04-14T07:31:25Z</time>
      </trkpt>
      <trkpt lat="43.37781" lon="2.54033">
        <ele>393.8</ele>
        <time>2019-04-14T07:31:35Z</time>
      </trkpt>
      <trkpt lat="43.37785" lon="2.54027">
        <ele>394.28</ele>
        <time>2019-04-14T07:31:44Z</time>
      </trkpt>
      <trkpt lat="43.37788" lon="2.54021">
        <ele>394.28</ele>
        <time>2019-04-14T07:31:52Z</time>
      </trkpt>
      <trkpt lat="43.37792" lon="2.54016">
        <ele>394.28</ele>
        <time>2019-04-14T07:32:01Z</time>
      </trkpt>
      <trkpt lat="43.37795" lon="2.54012">
        <ele>394.28</ele>
        <time>2019-04-14T07:32:11Z</time>
      </trkpt>
      <trkpt lat="43.3779" lon="2.54015">
        <ele>394.28</ele>
        <time>2019-04-14T07:32:22Z</time>
      </trkpt>
      <trkpt lat="43.37789" lon="2.54017">
        <ele>394.76</ele>
        <time>2019-04-14T07:32:32Z</time>
      </trkpt>
      <trkpt lat="43.37789" lon="2.54021">
        <ele>395.24</ele>
        <time>2019-04-14T07:32:39Z</time>
      </trkpt>
      <trkpt lat="43.37784" lon="2.54025">
        <ele>395.72</ele>
        <time>2019-04-14T07:32:48Z</time>
      </trkpt>
      <trkpt lat="43.3778" lon="2.54032">
        <ele>396.68</ele>
        <time>2019-04-14T07:32:56Z</time>
      </trkpt>
      <trkpt lat="43.3778" lon="2.54036">
        <ele>397.64</ele>
        <time>2019-04-14T07:33:06Z</time>
      </trkpt>
      <trkpt lat="43.37776" lon="2.54041">
        <ele>397.64</ele>
        <time>2019-04-14T07:33:14Z</time>
      </trkpt>
      <trkpt lat="43.37776" lon="2.54044">
        <ele>398.12</ele>
        <time>2019-04-14T07:33:21Z</time>
      </trkpt>
      <trkpt lat="43.37777" lon="2.54045">
        <ele>398.6</ele>
        <time>2019-04-14T07:33:22Z</time>
      </trkpt>
      <trkpt lat="43.37783" lon="2.54042">
        <ele>399.08</ele>
        <time>2019-04-14T07:33:29Z</time>
      </trkpt>
      <trkpt lat="43.37785" lon="2.54041">
        <ele>400.53</ele>
        <time>2019-04-14T07:33:31Z</time>
      </trkpt>
      <trkpt lat="43.37787" lon="2.5404">
        <ele>401.01</ele>
        <time>2019-04-14T07:33:39Z</time>
      </trkpt>
      <trkpt lat="43.37787" lon="2.54037">
        <ele>401.97</ele>
        <time>2019-04-14T07:33:48Z</time>
      </trkpt>
      <trkpt lat="43.37792" lon="2.54028">
        <ele>402.93</ele>
        <time>2019-04-14T07:33:55Z</time>
      </trkpt>
      <trkpt lat="43.37795" lon="2.54017">
        <ele>403.89</ele>
        <time>2019-04-14T07:34:02Z</time>
      </trkpt>
      <trkpt lat="43.37802" lon="2.54007">
        <ele>405.33</ele>
        <time>2019-04-14T07:34:11Z</time>
      </trkpt>
      <trkpt lat="43.3781" lon="2.54008">
        <ele>406.77</ele>
        <time>2019-04-14T07:34:20Z</time>
      </trkpt>
      <trkpt lat="43.37809" lon="2.54009">
        <ele>406.77</ele>
        <time>2019-04-14T07:34:21Z</time>
      </trkpt>
      <trkpt lat="43.37801" lon="2.54">
        <ele>408.22</ele>
        <time>2019-04-14T07:34:29Z</time>
      </trkpt>
      <trkpt lat="43.37797" lon="2.53985">
        <ele>408.22</ele>
        <time>2019-04-14T07:34:41Z</time>
      </trkpt>
      <trkpt lat="43.37795" lon="2.53982">
        <ele>409.18</ele>
        <time>2019-04-14T07:34:51Z</time>
      </trkpt>
      <trkpt lat="43.37797" lon="2.54004">
        <ele>409.66</ele>
        <time>2019-04-14T07:35:00Z</time>
      </trkpt>
      <trkpt lat="43.37797" lon="2.54034">
        <ele>411.1</ele>
        <time>2019-04-14T07:35:07Z</time>
      </trkpt>
      <trkpt lat="43.37799" lon="2.5405">
        <ele>412.54</ele>
        <time>2019-04-14T07:35:14Z</time>
      </trkpt>
      <trkpt lat="43.37798" lon="2.54049">
        <ele>412.54</ele>
        <time>2019-04-14T07:35:25Z</time>
      </trkpt>
      <trkpt lat="43.37794" lon="2.54048">
        <ele>412.54</ele>
        <time>2019-04-14T07:35:33Z</time>
      </trkpt>
      <trkpt lat="43.37792" lon="2.54046">
        <ele>412.54</ele>
        <time>2019-04-14T07:35:41Z</time>
      </trkpt>
      <trkpt lat="43.37783" lon="2.54051">
        <ele>412.06</ele>
        <time>2019-04-14T07:35:52Z</time>
      </trkpt>
      <trkpt lat="43.37784" lon="2.54055">
        <ele>412.54</ele>
        <time>2019-04-14T07:35:54Z</time>
      </trkpt>
      <trkpt lat="43.37779" lon="2.54063">
        <ele>412.06</ele>
        <time>2019-04-14T07:36:03Z</time>
      </trkpt>
      <trkpt lat="43.3778" lon="2.5408">
        <ele>413.02</ele>
        <time>2019-04-14T07:36:12Z</time>
      </trkpt>
      <trkpt lat="43.37775" lon="2.54094">
        <ele>413.5</ele>
        <time>2019-04-14T07:36:21Z</time>
      </trkpt>
      <trkpt lat="43.37768" lon="2.54107">
        <ele>413.5</ele>
        <time>2019-04-14T07:36:32Z</time>
      </trkpt>
      <trkpt lat="43.37762" lon="2.54118">
        <ele>413.5</ele>
        <time>2019-04-14T07:36:42Z</time>
      </trkpt>
      <trkpt lat="43.37753" lon="2.54123">
        <ele>413.5</ele>
        <time>2019-04-14T07:36:50Z</time>
      </trkpt>
      <trkpt lat="43.37746" lon="2.54134">
        <ele>413.5</ele>
        <time>2019-04-14T07:37:00Z</time>
      </trkpt>
      <trkpt lat="43.37748" lon="2.54146">
        <ele>414.95</ele>
        <time>2019-04-14T07:37:08Z</time>
      </trkpt>
      <trkpt lat="43.3775" lon="2.54145">
        <ele>415.43</ele>
        <time>2019-04-14T07:37:17Z</time>
      </trkpt>
      <trkpt lat="43.37748" lon="2.54139">
        <ele>415.43</ele>
        <time>2019-04-14T07:37:31Z</time>
      </trkpt>
      <trkpt lat="43.37746" lon="2.54139">
        <ele>415.91</ele>
        <time>2019-04-14T07:37:47Z</time>
      </trkpt>
      <trkpt lat="43.37748" lon="2.54141">
        <ele>416.39</ele>
        <time>2019-04-14T07:37:56Z</time>
      </trkpt>
      <trkpt lat="43.37742" lon="2.54142">
        <ele>415.43</ele>
        <time>2019-04-14T07:38:05Z</time>
      </trkpt>
      <trkpt lat="43.3774" lon="2.54147">
        <ele>414.95</ele>
        <time>2019-04-14T07:38:12Z</time>
      </trkpt>
      <trkpt lat="43.37739" lon="2.54148">
        <ele>414.47</ele>
        <time>2019-04-14T07:38:18Z</time>
      </trkpt>
      <trkpt lat="43.37737" lon="2.54152">
        <ele>413.98</ele>
        <time>2019-04-14T07:38:26Z</time>
      </trkpt>
      <trkpt lat="43.37733" lon="2.54151">
        <ele>413.5</ele>
        <time>2019-04-14T07:38:36Z</time>
      </trkpt>
      <trkpt lat="43.37732" lon="2.54152">
        <ele>413.5</ele>
        <time>2019-04-14T07:38:49Z</time>
      </trkpt>
      <trkpt lat="43.37733" lon="2.54154">
        <ele>413.5</ele>
        <time>2019-04-14T07:39:08Z</time>
      </trkpt>
      <trkpt lat="43.37729" lon="2.54154">
        <ele>413.02</ele>
        <time>2019-04-14T07:39:23Z</time>
      </trkpt>
      <trkpt lat="43.37727" lon="2.54152">
        <ele>413.5</ele>
        <time>2019-04-14T07:39:32Z</time>
      </trkpt>
      <trkpt lat="43.37724" lon="2.54146">
        <ele>413.5</ele>
        <time>2019-04-14T07:39:51Z</time>
      </trkpt>
      <trkpt lat="43.37727" lon="2.54145">
        <ele>413.98</ele>
        <time>2019-04-14T07:40:02Z</time>
      </trkpt>
      <trkpt lat="43.37728" lon="2.54145">
        <ele>413.5</ele>
        <time>2019-04-14T07:40:11Z</time>
      </trkpt>
      <trkpt lat="43.37728" lon="2.54147">
        <ele>413.98</ele>
        <time>2019-04-14T07:40:23Z</time>
      </trkpt>
      <trkpt lat="43.37728" lon="2.54149">
        <ele>413.5</ele>
        <time>2019-04-14T07:40:37Z</time>
      </trkpt>
      <trkpt lat="43.37729" lon="2.5415">
        <ele>413.02</ele>
        <time>2019-04-14T07:40:46Z</time>
      </trkpt>
      <trkpt lat="43.37731" lon="2.54152">
        <ele>413.98</ele>
        <time>2019-04-14T07:41:02Z</time>
      </trkpt>
      <trkpt lat="43.37728" lon="2.54153">
        <ele>413.5</ele>
        <time>2019-04-14T07:41:09Z</time>
      </trkpt>
      <trkpt lat="43.37729" lon="2.54155">
        <ele>413.98</ele>
        <time>2019-04-14T07:41:19Z</time>
      </trkpt>
      <trkpt lat="43.37728" lon="2.54157">
        <ele>412.54</ele>
        <time>2019-04-14T07:41:29Z</time>
      </trkpt>
      <trkpt lat="43.37728" lon="2.54156">
        <ele>414.47</ele>
        <time>2019-04-14T07:41:39Z</time>
      </trkpt>
      <trkpt lat="43.37725" lon="2.54161">
        <ele>414.95</ele>
        <time>2019-04-14T07:41:47Z</time>
      </trkpt>
      <trkpt lat="43.37717" lon="2.54164">
        <ele>414.95</ele>
        <time>2019-04-14T07:41:57Z</time>
      </trkpt>
      <trkpt lat="43.37715" lon="2.54166">
        <ele>413.98</ele>
        <time>2019-04-14T07:42:06Z</time>
      </trkpt>
      <trkpt lat="43.37714" lon="2.54167">
        <ele>413.98</ele>
        <time>2019-04-14T07:42:07Z</time>
      </trkpt>
      <trkpt lat="43.3771" lon="2.5418">
        <ele>414.47</ele>
        <time>2019-04-14T07:42:17Z</time>
      </trkpt>
      <trkpt lat="43.37708" lon="2.54183">
        <ele>414.95</ele>
        <time>2019-04-14T07:42:25Z</time>
      </trkpt>
      <trkpt lat="43.37707" lon="2.54187">
        <ele>414.47</ele>
        <time>2019-04-14T07:42:34Z</time>
      </trkpt>
      <trkpt lat="43.37704" lon="2.5419">
        <ele>414.95</ele>
        <time>2019-04-14T07:42:44Z</time>
      </trkpt>
      <trkpt lat="43.37701" lon="2.54195">
        <ele>414.95</ele>
        <time>2019-04-14T07:42:51Z</time>
      </trkpt>
      <trkpt lat="43.37695" lon="2.54202">
        <ele>415.43</ele>
        <time>2019-04-14T07:42:59Z</time>
      </trkpt>
      <trkpt lat="43.37689" lon="2.54209">
        <ele>415.43</ele>
        <time>2019-04-14T07:43:07Z</time>
      </trkpt>
      <trkpt lat="43.37685" lon="2.54213">
        <ele>415.91</ele>
        <time>2019-04-14T07:43:12Z</time>
      </trkpt>
      <trkpt lat="43.37678" lon="2.54222">
        <ele>416.39</ele>
        <time>2019-04-14T07:43:21Z</time>
      </trkpt>
      <trkpt lat="43.37675" lon="2.54229">
        <ele>416.87</ele>
        <time>2019-04-14T07:43:28Z</time>
      </trkpt>
      <trkpt lat="43.3767" lon="2.5424">
        <ele>416.87</ele>
        <time>2019-04-14T07:43:36Z</time>
      </trkpt>
      <trkpt lat="43.37663" lon="2.54246">
        <ele>417.35</ele>
        <time>2019-04-14T07:43:44Z</time>
      </trkpt>
      <trkpt lat="43.37655" lon="2.5425">
        <ele>417.83</ele>
        <time>2019-04-14T07:43:52Z</time>
      </trkpt>
      <trkpt lat="43.37648" lon="2.54255">
        <ele>418.79</ele>
        <time>2019-04-14T07:44:00Z</time>
      </trkpt>
      <trkpt lat="43.37642" lon="2.54259">
        <ele>418.79</ele>
        <time>2019-04-14T07:44:08Z</time>
      </trkpt>
      <trkpt lat="43.37637" lon="2.5426">
        <ele>420.23</ele>
        <time>2019-04-14T07:44:15Z</time>
      </trkpt>
      <trkpt lat="43.3763" lon="2.54262">
        <ele>420.71</ele>
        <time>2019-04-14T07:44:22Z</time>
      </trkpt>
      <trkpt lat="43.37625" lon="2.54265">
        <ele>422.16</ele>
        <time>2019-04-14T07:44:30Z</time>
      </trkpt>
      <trkpt lat="43.37618" lon="2.54271">
        <ele>423.12</ele>
        <time>2019-04-14T07:44:40Z</time>
      </trkpt>
      <trkpt lat="43.37611" lon="2.5428">
        <ele>425.04</ele>
        <time>2019-04-14T07:44:47Z</time>
      </trkpt>
      <trkpt lat="43.37607" lon="2.54285">
        <ele>425.04</ele>
        <time>2019-04-14T07:44:54Z</time>
      </trkpt>
      <trkpt lat="43.37598" lon="2.5429">
        <ele>426</ele>
        <time>2019-04-14T07:45:03Z</time>
      </trkpt>
      <trkpt lat="43.37597" lon="2.54294">
        <ele>427.44</ele>
        <time>2019-04-14T07:45:09Z</time>
      </trkpt>
      <trkpt lat="43.37593" lon="2.54297">
        <ele>428.4</ele>
        <time>2019-04-14T07:45:16Z</time>
      </trkpt>
      <trkpt lat="43.37585" lon="2.54303">
        <ele>429.37</ele>
        <time>2019-04-14T07:45:24Z</time>
      </trkpt>
      <trkpt lat="43.3758" lon="2.54305">
        <ele>429.37</ele>
        <time>2019-04-14T07:45:31Z</time>
      </trkpt>
      <trkpt lat="43.37577" lon="2.54308">
        <ele>430.33</ele>
        <time>2019-04-14T07:45:38Z</time>
      </trkpt>
      <trkpt lat="43.37565" lon="2.54312">
        <ele>429.85</ele>
        <time>2019-04-14T07:45:49Z</time>
      </trkpt>
      <trkpt lat="43.37559" lon="2.54316">
        <ele>430.33</ele>
        <time>2019-04-14T07:45:57Z</time>
      </trkpt>
      <trkpt lat="43.37552" lon="2.54323">
        <ele>431.77</ele>
        <time>2019-04-14T07:46:06Z</time>
      </trkpt>
      <trkpt lat="43.37549" lon="2.54336">
        <ele>432.25</ele>
        <time>2019-04-14T07:46:17Z</time>
      </trkpt>
      <trkpt lat="43.37544" lon="2.54344">
        <ele>431.77</ele>
        <time>2019-04-14T07:46:26Z</time>
      </trkpt>
      <trkpt lat="43.3754" lon="2.54349">
        <ele>431.77</ele>
        <time>2019-04-14T07:46:34Z</time>
      </trkpt>
      <trkpt lat="43.37533" lon="2.54356">
        <ele>430.33</ele>
        <time>2019-04-14T07:46:43Z</time>
      </trkpt>
      <trkpt lat="43.37529" lon="2.54358">
        <ele>429.37</ele>
        <time>2019-04-14T07:46:51Z</time>
      </trkpt>
      <trkpt lat="43.37529" lon="2.54358">
        <ele>429.85</ele>
        <time>2019-04-14T07:46:59Z</time>
      </trkpt>
      <trkpt lat="43.3753" lon="2.54357">
        <ele>430.81</ele>
        <time>2019-04-14T07:47:07Z</time>
      </trkpt>
      <trkpt lat="43.37529" lon="2.54357">
        <ele>432.73</ele>
        <time>2019-04-14T07:47:16Z</time>
      </trkpt>
      <trkpt lat="43.37521" lon="2.54349">
        <ele>433.69</ele>
        <time>2019-04-14T07:47:24Z</time>
      </trkpt>
      <trkpt lat="43.37511" lon="2.54343">
        <ele>435.61</ele>
        <time>2019-04-14T07:47:33Z</time>
      </trkpt>
      <trkpt lat="43.37505" lon="2.54338">
        <ele>436.58</ele>
        <time>2019-04-14T07:47:42Z</time>
      </trkpt>
      <trkpt lat="43.375" lon="2.54337">
        <ele>438.02</ele>
        <time>2019-04-14T07:47:52Z</time>
      </trkpt>
      <trkpt lat="43.37492" lon="2.54338">
        <ele>439.46</ele>
        <time>2019-04-14T07:48:01Z</time>
      </trkpt>
      <trkpt lat="43.37486" lon="2.54336">
        <ele>440.42</ele>
        <time>2019-04-14T07:48:11Z</time>
      </trkpt>
      <trkpt lat="43.37478" lon="2.54337">
        <ele>441.86</ele>
        <time>2019-04-14T07:48:21Z</time>
      </trkpt>
      <trkpt lat="43.37475" lon="2.54338">
        <ele>442.34</ele>
        <time>2019-04-14T07:48:29Z</time>
      </trkpt>
      <trkpt lat="43.37469" lon="2.54339">
        <ele>444.27</ele>
        <time>2019-04-14T07:48:39Z</time>
      </trkpt>
      <trkpt lat="43.37461" lon="2.54339">
        <ele>445.23</ele>
        <time>2019-04-14T07:48:49Z</time>
      </trkpt>
      <trkpt lat="43.37454" lon="2.54337">
        <ele>446.67</ele>
        <time>2019-04-14T07:48:58Z</time>
      </trkpt>
      <trkpt lat="43.37449" lon="2.54336">
        <ele>447.63</ele>
        <time>2019-04-14T07:49:06Z</time>
      </trkpt>
      <trkpt lat="43.37445" lon="2.54337">
        <ele>449.55</ele>
        <time>2019-04-14T07:49:16Z</time>
      </trkpt>
      <trkpt lat="43.37444" lon="2.54341">
        <ele>448.59</ele>
        <time>2019-04-14T07:49:28Z</time>
      </trkpt>
      <trkpt lat="43.37447" lon="2.54345">
        <ele>448.59</ele>
        <time>2019-04-14T07:49:42Z</time>
      </trkpt>
      <trkpt lat="43.37448" lon="2.54343">
        <ele>449.07</ele>
        <time>2019-04-14T07:49:57Z</time>
      </trkpt>
      <trkpt lat="43.37443" lon="2.54341">
        <ele>450.03</ele>
        <time>2019-04-14T07:50:07Z</time>
      </trkpt>
      <trkpt lat="43.3744" lon="2.54341">
        <ele>451</ele>
        <time>2019-04-14T07:50:15Z</time>
      </trkpt>
      <trkpt lat="43.37435" lon="2.54344">
        <ele>451.96</ele>
        <time>2019-04-14T07:50:23Z</time>
      </trkpt>
      <trkpt lat="43.37433" lon="2.54343">
        <ele>452.44</ele>
        <time>2019-04-14T07:50:26Z</time>
      </trkpt>
      <trkpt lat="43.37426" lon="2.54337">
        <ele>452.92</ele>
        <time>2019-04-14T07:50:34Z</time>
      </trkpt>
      <trkpt lat="43.3742" lon="2.54333">
        <ele>454.36</ele>
        <time>2019-04-14T07:50:43Z</time>
      </trkpt>
      <trkpt lat="43.37416" lon="2.54335">
        <ele>454.84</ele>
        <time>2019-04-14T07:50:51Z</time>
      </trkpt>
      <trkpt lat="43.37407" lon="2.54333">
        <ele>456.28</ele>
        <time>2019-04-14T07:51:02Z</time>
      </trkpt>
      <trkpt lat="43.37403" lon="2.54332">
        <ele>457.24</ele>
        <time>2019-04-14T07:51:10Z</time>
      </trkpt>
      <trkpt lat="43.37395" lon="2.54332">
        <ele>458.21</ele>
        <time>2019-04-14T07:51:18Z</time>
      </trkpt>
      <trkpt lat="43.37389" lon="2.54333">
        <ele>459.17</ele>
        <time>2019-04-14T07:51:26Z</time>
      </trkpt>
      <trkpt lat="43.37381" lon="2.54329">
        <ele>459.65</ele>
        <time>2019-04-14T07:51:34Z</time>
      </trkpt>
      <trkpt lat="43.37374" lon="2.54328">
        <ele>460.61</ele>
        <time>2019-04-14T07:51:43Z</time>
      </trkpt>
      <trkpt lat="43.37365" lon="2.54328">
        <ele>461.57</ele>
        <time>2019-04-14T07:51:54Z</time>
      </trkpt>
      <trkpt lat="43.37359" lon="2.54327">
        <ele>462.53</ele>
        <time>2019-04-14T07:52:01Z</time>
      </trkpt>
      <trkpt lat="43.37353" lon="2.54326">
        <ele>463.49</ele>
        <time>2019-04-14T07:52:09Z</time>
      </trkpt>
      <trkpt lat="43.37346" lon="2.54325">
        <ele>464.45</ele>
        <time>2019-04-14T07:52:20Z</time>
      </trkpt>
      <trkpt lat="43.37336" lon="2.54326">
        <ele>465.42</ele>
        <time>2019-04-14T07:52:29Z</time>
      </trkpt>
      <trkpt lat="43.37329" lon="2.54325">
        <ele>466.38</ele>
        <time>2019-04-14T07:52:40Z</time>
      </trkpt>
      <trkpt lat="43.37322" lon="2.54325">
        <ele>467.34</ele>
        <time>2019-04-14T07:52:49Z</time>
      </trkpt>
      <trkpt lat="43.37317" lon="2.54327">
        <ele>468.78</ele>
        <time>2019-04-14T07:52:56Z</time>
      </trkpt>
      <trkpt lat="43.37309" lon="2.54331">
        <ele>469.74</ele>
        <time>2019-04-14T07:53:05Z</time>
      </trkpt>
      <trkpt lat="43.37301" lon="2.54334">
        <ele>471.66</ele>
        <time>2019-04-14T07:53:16Z</time>
      </trkpt>
      <trkpt lat="43.37296" lon="2.54335">
        <ele>472.63</ele>
        <time>2019-04-14T07:53:25Z</time>
      </trkpt>
      <trkpt lat="43.37291" lon="2.54339">
        <ele>473.59</ele>
        <time>2019-04-14T07:53:33Z</time>
      </trkpt>
      <trkpt lat="43.3729" lon="2.54341">
        <ele>475.51</ele>
        <time>2019-04-14T07:53:41Z</time>
      </trkpt>
      <trkpt lat="43.37285" lon="2.54345">
        <ele>477.91</ele>
        <time>2019-04-14T07:53:52Z</time>
      </trkpt>
      <trkpt lat="43.3728" lon="2.54348">
        <ele>479.84</ele>
        <time>2019-04-14T07:54:04Z</time>
      </trkpt>
      <trkpt lat="43.37274" lon="2.54348">
        <ele>480.8</ele>
        <time>2019-04-14T07:54:14Z</time>
      </trkpt>
      <trkpt lat="43.37267" lon="2.54348">
        <ele>481.76</ele>
        <time>2019-04-14T07:54:25Z</time>
      </trkpt>
      <trkpt lat="43.37261" lon="2.54351">
        <ele>482.72</ele>
        <time>2019-04-14T07:54:34Z</time>
      </trkpt>
      <trkpt lat="43.37257" lon="2.54355">
        <ele>483.68</ele>
        <time>2019-04-14T07:54:41Z</time>
      </trkpt>
      <trkpt lat="43.37256" lon="2.54362">
        <ele>485.12</ele>
        <time>2019-04-14T07:54:50Z</time>
      </trkpt>
      <trkpt lat="43.37257" lon="2.54368">
        <ele>485.12</ele>
        <time>2019-04-14T07:55:03Z</time>
      </trkpt>
      <trkpt lat="43.3726" lon="2.54366">
        <ele>485.12</ele>
        <time>2019-04-14T07:55:20Z</time>
      </trkpt>
      <trkpt lat="43.37257" lon="2.54365">
        <ele>485.12</ele>
        <time>2019-04-14T07:55:34Z</time>
      </trkpt>
      <trkpt lat="43.37258" lon="2.54364">
        <ele>485.6</ele>
        <time>2019-04-14T07:55:43Z</time>
      </trkpt>
      <trkpt lat="43.37258" lon="2.54365">
        <ele>485.6</ele>
        <time>2019-04-14T07:55:54Z</time>
      </trkpt>
      <trkpt lat="43.37263" lon="2.54362">
        <ele>485.12</ele>
        <time>2019-04-14T07:56:11Z</time>
      </trkpt>
      <trkpt lat="43.3726" lon="2.54361">
        <ele>485.6</ele>
        <time>2019-04-14T07:56:24Z</time>
      </trkpt>
      <trkpt lat="43.37259" lon="2.54362">
        <ele>485.12</ele>
        <time>2019-04-14T07:56:34Z</time>
      </trkpt>
      <trkpt lat="43.37262" lon="2.54366">
        <ele>485.6</ele>
        <time>2019-04-14T07:56:54Z</time>
      </trkpt>
      <trkpt lat="43.37262" lon="2.5437">
        <ele>486.56</ele>
        <time>2019-04-14T07:57:03Z</time>
      </trkpt>
      <trkpt lat="43.37261" lon="2.54367">
        <ele>487.05</ele>
        <time>2019-04-14T07:57:11Z</time>
      </trkpt>
      <trkpt lat="43.37261" lon="2.54363">
        <ele>487.05</ele>
        <time>2019-04-14T07:57:30Z</time>
      </trkpt>
      <trkpt lat="43.37259" lon="2.54363">
        <ele>488.01</ele>
        <time>2019-04-14T07:57:40Z</time>
      </trkpt>
      <trkpt lat="43.37258" lon="2.54363">
        <ele>488.97</ele>
        <time>2019-04-14T07:57:47Z</time>
      </trkpt>
      <trkpt lat="43.37249" lon="2.54367">
        <ele>490.41</ele>
        <time>2019-04-14T07:57:56Z</time>
      </trkpt>
      <trkpt lat="43.37241" lon="2.54367">
        <ele>490.89</ele>
        <time>2019-04-14T07:58:04Z</time>
      </trkpt>
      <trkpt lat="43.37236" lon="2.54371">
        <ele>492.81</ele>
        <time>2019-04-14T07:58:14Z</time>
      </trkpt>
      <trkpt lat="43.37233" lon="2.54383">
        <ele>495.7</ele>
        <time>2019-04-14T07:58:26Z</time>
      </trkpt>
      <trkpt lat="43.3723" lon="2.54385">
        <ele>497.62</ele>
        <time>2019-04-14T07:58:35Z</time>
      </trkpt>
      <trkpt lat="43.37225" lon="2.54388">
        <ele>498.58</ele>
        <time>2019-04-14T07:58:45Z</time>
      </trkpt>
      <trkpt lat="43.37221" lon="2.54394">
        <ele>500.02</ele>
        <time>2019-04-14T07:58:54Z</time>
      </trkpt>
      <trkpt lat="43.37217" lon="2.54397">
        <ele>500.5</ele>
        <time>2019-04-14T07:59:02Z</time>
      </trkpt>
      <trkpt lat="43.37209" lon="2.54399">
        <ele>501.95</ele>
        <time>2019-04-14T07:59:12Z</time>
      </trkpt>
      <trkpt lat="43.37204" lon="2.54402">
        <ele>503.39</ele>
        <time>2019-04-14T07:59:21Z</time>
      </trkpt>
      <trkpt lat="43.37201" lon="2.54411">
        <ele>504.35</ele>
        <time>2019-04-14T07:59:29Z</time>
      </trkpt>
      <trkpt lat="43.372" lon="2.54417">
        <ele>505.79</ele>
        <time>2019-04-14T07:59:36Z</time>
      </trkpt>
      <trkpt lat="43.37199" lon="2.54418">
        <ele>506.75</ele>
        <time>2019-04-14T07:59:45Z</time>
      </trkpt>
      <trkpt lat="43.37197" lon="2.54423">
        <ele>509.16</ele>
        <time>2019-04-14T07:59:54Z</time>
      </trkpt>
      <trkpt lat="43.37196" lon="2.54436">
        <ele>511.56</ele>
        <time>2019-04-14T08:00:04Z</time>
      </trkpt>
      <trkpt lat="43.37197" lon="2.54443">
        <ele>512.52</ele>
        <time>2019-04-14T08:00:13Z</time>
      </trkpt>
      <trkpt lat="43.37197" lon="2.54446">
        <ele>514.44</ele>
        <time>2019-04-14T08:00:25Z</time>
      </trkpt>
      <trkpt lat="43.37194" lon="2.54449">
        <ele>516.37</ele>
        <time>2019-04-14T08:00:35Z</time>
      </trkpt>
      <trkpt lat="43.37193" lon="2.54454">
        <ele>517.33</ele>
        <time>2019-04-14T08:00:43Z</time>
      </trkpt>
      <trkpt lat="43.37194" lon="2.54465">
        <ele>518.77</ele>
        <time>2019-04-14T08:00:53Z</time>
      </trkpt>
      <trkpt lat="43.37197" lon="2.54469">
        <ele>520.69</ele>
        <time>2019-04-14T08:01:02Z</time>
      </trkpt>
      <trkpt lat="43.37198" lon="2.54476">
        <ele>521.65</ele>
        <time>2019-04-14T08:01:10Z</time>
      </trkpt>
      <trkpt lat="43.37197" lon="2.54479">
        <ele>522.61</ele>
        <time>2019-04-14T08:01:17Z</time>
      </trkpt>
      <trkpt lat="43.37196" lon="2.54482">
        <ele>523.58</ele>
        <time>2019-04-14T08:01:26Z</time>
      </trkpt>
      <trkpt lat="43.37192" lon="2.54486">
        <ele>524.54</ele>
        <time>2019-04-14T08:01:35Z</time>
      </trkpt>
      <trkpt lat="43.3719" lon="2.54493">
        <ele>525.5</ele>
        <time>2019-04-14T08:01:45Z</time>
      </trkpt>
      <trkpt lat="43.37189" lon="2.54501">
        <ele>525.98</ele>
        <time>2019-04-14T08:01:53Z</time>
      </trkpt>
      <trkpt lat="43.37188" lon="2.54505">
        <ele>527.42</ele>
        <time>2019-04-14T08:02:01Z</time>
      </trkpt>
      <trkpt lat="43.37185" lon="2.54511">
        <ele>528.38</ele>
        <time>2019-04-14T08:02:12Z</time>
      </trkpt>
      <trkpt lat="43.3718" lon="2.54521">
        <ele>530.3</ele>
        <time>2019-04-14T08:02:21Z</time>
      </trkpt>
      <trkpt lat="43.37175" lon="2.54529">
        <ele>531.27</ele>
        <time>2019-04-14T08:02:31Z</time>
      </trkpt>
      <trkpt lat="43.37173" lon="2.54538">
        <ele>532.71</ele>
        <time>2019-04-14T08:02:39Z</time>
      </trkpt>
      <trkpt lat="43.37173" lon="2.54544">
        <ele>534.15</ele>
        <time>2019-04-14T08:02:48Z</time>
      </trkpt>
      <trkpt lat="43.37174" lon="2.54555">
        <ele>536.07</ele>
        <time>2019-04-14T08:02:57Z</time>
      </trkpt>
      <trkpt lat="43.37173" lon="2.54562">
        <ele>537.51</ele>
        <time>2019-04-14T08:03:07Z</time>
      </trkpt>
      <trkpt lat="43.37173" lon="2.54572">
        <ele>538.96</ele>
        <time>2019-04-14T08:03:15Z</time>
      </trkpt>
      <trkpt lat="43.37175" lon="2.54577">
        <ele>540.4</ele>
        <time>2019-04-14T08:03:24Z</time>
      </trkpt>
      <trkpt lat="43.3718" lon="2.54579">
        <ele>542.32</ele>
        <time>2019-04-14T08:03:33Z</time>
      </trkpt>
      <trkpt lat="43.37187" lon="2.54578">
        <ele>543.76</ele>
        <time>2019-04-14T08:03:44Z</time>
      </trkpt>
      <trkpt lat="43.37195" lon="2.54574">
        <ele>545.2</ele>
        <time>2019-04-14T08:03:54Z</time>
      </trkpt>
      <trkpt lat="43.372" lon="2.54571">
        <ele>546.65</ele>
        <time>2019-04-14T08:04:05Z</time>
      </trkpt>
      <trkpt lat="43.37202" lon="2.54576">
        <ele>548.09</ele>
        <time>2019-04-14T08:04:15Z</time>
      </trkpt>
      <trkpt lat="43.37202" lon="2.5458">
        <ele>549.53</ele>
        <time>2019-04-14T08:04:24Z</time>
      </trkpt>
      <trkpt lat="43.37201" lon="2.54586">
        <ele>550.49</ele>
        <time>2019-04-14T08:04:31Z</time>
      </trkpt>
      <trkpt lat="43.372" lon="2.5459">
        <ele>551.45</ele>
        <time>2019-04-14T08:04:39Z</time>
      </trkpt>
      <trkpt lat="43.37199" lon="2.54598">
        <ele>552.9</ele>
        <time>2019-04-14T08:04:46Z</time>
      </trkpt>
      <trkpt lat="43.37199" lon="2.54604">
        <ele>552.9</ele>
        <time>2019-04-14T08:04:57Z</time>
      </trkpt>
      <trkpt lat="43.37199" lon="2.54605">
        <ele>553.86</ele>
        <time>2019-04-14T08:05:14Z</time>
      </trkpt>
      <trkpt lat="43.37198" lon="2.54604">
        <ele>552.9</ele>
        <time>2019-04-14T08:05:27Z</time>
      </trkpt>
      <trkpt lat="43.37196" lon="2.54606">
        <ele>552.41</ele>
        <time>2019-04-14T08:05:43Z</time>
      </trkpt>
      <trkpt lat="43.37198" lon="2.54605">
        <ele>552.9</ele>
        <time>2019-04-14T08:06:00Z</time>
      </trkpt>
      <trkpt lat="43.37199" lon="2.54604">
        <ele>552.41</ele>
        <time>2019-04-14T08:06:14Z</time>
      </trkpt>
      <trkpt lat="43.37197" lon="2.54611">
        <ele>552.9</ele>
        <time>2019-04-14T08:06:24Z</time>
      </trkpt>
      <trkpt lat="43.37198" lon="2.54618">
        <ele>554.82</ele>
        <time>2019-04-14T08:06:32Z</time>
      </trkpt>
      <trkpt lat="43.37199" lon="2.54627">
        <ele>555.3</ele>
        <time>2019-04-14T08:06:41Z</time>
      </trkpt>
      <trkpt lat="43.37199" lon="2.54638">
        <ele>556.74</ele>
        <time>2019-04-14T08:06:49Z</time>
      </trkpt>
      <trkpt lat="43.37197" lon="2.54643">
        <ele>557.7</ele>
        <time>2019-04-14T08:06:57Z</time>
      </trkpt>
      <trkpt lat="43.37196" lon="2.5465">
        <ele>559.14</ele>
        <time>2019-04-14T08:07:05Z</time>
      </trkpt>
      <trkpt lat="43.37197" lon="2.54661">
        <ele>562.03</ele>
        <time>2019-04-14T08:07:15Z</time>
      </trkpt>
      <trkpt lat="43.372" lon="2.54667">
        <ele>563.47</ele>
        <time>2019-04-14T08:07:23Z</time>
      </trkpt>
      <trkpt lat="43.372" lon="2.54672">
        <ele>563.95</ele>
        <time>2019-04-14T08:07:32Z</time>
      </trkpt>
      <trkpt lat="43.372" lon="2.54671">
        <ele>563.95</ele>
        <time>2019-04-14T08:07:40Z</time>
      </trkpt>
      <trkpt lat="43.372" lon="2.5467">
        <ele>563.95</ele>
        <time>2019-04-14T08:07:52Z</time>
      </trkpt>
      <trkpt lat="43.37201" lon="2.54671">
        <ele>563.95</ele>
        <time>2019-04-14T08:07:58Z</time>
      </trkpt>
      <trkpt lat="43.37206" lon="2.54671">
        <ele>564.43</ele>
        <time>2019-04-14T08:08:14Z</time>
      </trkpt>
      <trkpt lat="43.37204" lon="2.54672">
        <ele>564.43</ele>
        <time>2019-04-14T08:08:25Z</time>
      </trkpt>
      <trkpt lat="43.37197" lon="2.54674">
        <ele>564.43</ele>
        <time>2019-04-14T08:08:38Z</time>
      </trkpt>
      <trkpt lat="43.37195" lon="2.54677">
        <ele>564.43</ele>
        <time>2019-04-14T08:08:41Z</time>
      </trkpt>
      <trkpt lat="43.37188" lon="2.54686">
        <ele>563.95</ele>
        <time>2019-04-14T08:08:51Z</time>
      </trkpt>
      <trkpt lat="43.37181" lon="2.54687">
        <ele>563.47</ele>
        <time>2019-04-14T08:08:58Z</time>
      </trkpt>
      <trkpt lat="43.37174" lon="2.5469">
        <ele>563.47</ele>
        <time>2019-04-14T08:09:06Z</time>
      </trkpt>
      <trkpt lat="43.37166" lon="2.54694">
        <ele>562.99</ele>
        <time>2019-04-14T08:09:14Z</time>
      </trkpt>
      <trkpt lat="43.37164" lon="2.54702">
        <ele>562.51</ele>
        <time>2019-04-14T08:09:22Z</time>
      </trkpt>
      <trkpt lat="43.3716" lon="2.54708">
        <ele>562.51</ele>
        <time>2019-04-14T08:09:28Z</time>
      </trkpt>
      <trkpt lat="43.37159" lon="2.54715">
        <ele>562.51</ele>
        <time>2019-04-14T08:09:35Z</time>
      </trkpt>
      <trkpt lat="43.37158" lon="2.54721">
        <ele>562.51</ele>
        <time>2019-04-14T08:09:41Z</time>
      </trkpt>
      <trkpt lat="43.37158" lon="2.54726">
        <ele>562.99</ele>
        <time>2019-04-14T08:09:47Z</time>
      </trkpt>
      <trkpt lat="43.37159" lon="2.54732">
        <ele>562.99</ele>
        <time>2019-04-14T08:09:55Z</time>
      </trkpt>
      <trkpt lat="43.37162" lon="2.54742">
        <ele>563.47</ele>
        <time>2019-04-14T08:10:04Z</time>
      </trkpt>
      <trkpt lat="43.37165" lon="2.54749">
        <ele>563.95</ele>
        <time>2019-04-14T08:10:13Z</time>
      </trkpt>
      <trkpt lat="43.37171" lon="2.54749">
        <ele>565.39</ele>
        <time>2019-04-14T08:10:22Z</time>
      </trkpt>
      <trkpt lat="43.37178" lon="2.54742">
        <ele>566.83</ele>
        <time>2019-04-14T08:10:31Z</time>
      </trkpt>
      <trkpt lat="43.37183" lon="2.54733">
        <ele>567.32</ele>
        <time>2019-04-14T08:10:40Z</time>
      </trkpt>
      <trkpt lat="43.37189" lon="2.54723">
        <ele>568.76</ele>
        <time>2019-04-14T08:10:49Z</time>
      </trkpt>
      <trkpt lat="43.37192" lon="2.54716">
        <ele>569.24</ele>
        <time>2019-04-14T08:10:56Z</time>
      </trkpt>
      <trkpt lat="43.37198" lon="2.54707">
        <ele>569.24</ele>
        <time>2019-04-14T08:11:05Z</time>
      </trkpt>
      <trkpt lat="43.37203" lon="2.54703">
        <ele>569.72</ele>
        <time>2019-04-14T08:11:13Z</time>
      </trkpt>
      <trkpt lat="43.3721" lon="2.54696">
        <ele>570.2</ele>
        <time>2019-04-14T08:11:21Z</time>
      </trkpt>
      <trkpt lat="43.37217" lon="2.5469">
        <ele>571.64</ele>
        <time>2019-04-14T08:11:30Z</time>
      </trkpt>
      <trkpt lat="43.37223" lon="2.54684">
        <ele>573.56</ele>
        <time>2019-04-14T08:11:38Z</time>
      </trkpt>
      <trkpt lat="43.37229" lon="2.54679">
        <ele>575.01</ele>
        <time>2019-04-14T08:11:46Z</time>
      </trkpt>
      <trkpt lat="43.37233" lon="2.54677">
        <ele>575.49</ele>
        <time>2019-04-14T08:11:53Z</time>
      </trkpt>
      <trkpt lat="43.37239" lon="2.54674">
        <ele>577.41</ele>
        <time>2019-04-14T08:12:02Z</time>
      </trkpt>
      <trkpt lat="43.37243" lon="2.5467">
        <ele>577.41</ele>
        <time>2019-04-14T08:12:12Z</time>
      </trkpt>
      <trkpt lat="43.37248" lon="2.54667">
        <ele>578.85</ele>
        <time>2019-04-14T08:12:19Z</time>
      </trkpt>
      <trkpt lat="43.37253" lon="2.54662">
        <ele>579.81</ele>
        <time>2019-04-14T08:12:28Z</time>
      </trkpt>
      <trkpt lat="43.37259" lon="2.54659">
        <ele>580.77</ele>
        <time>2019-04-14T08:12:36Z</time>
      </trkpt>
      <trkpt lat="43.37262" lon="2.54655">
        <ele>581.73</ele>
        <time>2019-04-14T08:12:46Z</time>
      </trkpt>
      <trkpt lat="43.37263" lon="2.54657">
        <ele>582.22</ele>
        <time>2019-04-14T08:12:56Z</time>
      </trkpt>
      <trkpt lat="43.37266" lon="2.54664">
        <ele>583.66</ele>
        <time>2019-04-14T08:13:06Z</time>
      </trkpt>
      <trkpt lat="43.37264" lon="2.54669">
        <ele>585.1</ele>
        <time>2019-04-14T08:13:14Z</time>
      </trkpt>
      <trkpt lat="43.3726" lon="2.54679">
        <ele>586.06</ele>
        <time>2019-04-14T08:13:25Z</time>
      </trkpt>
      <trkpt lat="43.37258" lon="2.54688">
        <ele>587.5</ele>
        <time>2019-04-14T08:13:33Z</time>
      </trkpt>
      <trkpt lat="43.37256" lon="2.54699">
        <ele>588.46</ele>
        <time>2019-04-14T08:13:43Z</time>
      </trkpt>
      <trkpt lat="43.37254" lon="2.54713">
        <ele>588.95</ele>
        <time>2019-04-14T08:13:52Z</time>
      </trkpt>
      <trkpt lat="43.37254" lon="2.54716">
        <ele>588.95</ele>
        <time>2019-04-14T08:13:54Z</time>
      </trkpt>
      <trkpt lat="43.37253" lon="2.54729">
        <ele>589.43</ele>
        <time>2019-04-14T08:14:04Z</time>
      </trkpt>
      <trkpt lat="43.37256" lon="2.54743">
        <ele>591.35</ele>
        <time>2019-04-14T08:14:15Z</time>
      </trkpt>
      <trkpt lat="43.3726" lon="2.54756">
        <ele>591.35</ele>
        <time>2019-04-14T08:14:26Z</time>
      </trkpt>
      <trkpt lat="43.37264" lon="2.54765">
        <ele>592.31</ele>
        <time>2019-04-14T08:14:35Z</time>
      </trkpt>
      <trkpt lat="43.37269" lon="2.54759">
        <ele>594.23</ele>
        <time>2019-04-14T08:14:44Z</time>
      </trkpt>
      <trkpt lat="43.37272" lon="2.5475">
        <ele>594.71</ele>
        <time>2019-04-14T08:14:53Z</time>
      </trkpt>
      <trkpt lat="43.37276" lon="2.5474">
        <ele>596.15</ele>
        <time>2019-04-14T08:15:02Z</time>
      </trkpt>
      <trkpt lat="43.37282" lon="2.54732">
        <ele>597.12</ele>
        <time>2019-04-14T08:15:11Z</time>
      </trkpt>
      <trkpt lat="43.37287" lon="2.54723">
        <ele>598.56</ele>
        <time>2019-04-14T08:15:20Z</time>
      </trkpt>
      <trkpt lat="43.37292" lon="2.54719">
        <ele>599.52</ele>
        <time>2019-04-14T08:15:29Z</time>
      </trkpt>
      <trkpt lat="43.37298" lon="2.54715">
        <ele>600.48</ele>
        <time>2019-04-14T08:15:38Z</time>
      </trkpt>
      <trkpt lat="43.37305" lon="2.54709">
        <ele>600.96</ele>
        <time>2019-04-14T08:15:46Z</time>
      </trkpt>
      <trkpt lat="43.37311" lon="2.54704">
        <ele>601.92</ele>
        <time>2019-04-14T08:15:54Z</time>
      </trkpt>
      <trkpt lat="43.37314" lon="2.54706">
        <ele>603.36</ele>
        <time>2019-04-14T08:16:01Z</time>
      </trkpt>
      <trkpt lat="43.37315" lon="2.54712">
        <ele>604.81</ele>
        <time>2019-04-14T08:16:10Z</time>
      </trkpt>
      <trkpt lat="43.37313" lon="2.5472">
        <ele>605.29</ele>
        <time>2019-04-14T08:16:19Z</time>
      </trkpt>
      <trkpt lat="43.37312" lon="2.54731">
        <ele>606.73</ele>
        <time>2019-04-14T08:16:30Z</time>
      </trkpt>
      <trkpt lat="43.37313" lon="2.54744">
        <ele>606.73</ele>
        <time>2019-04-14T08:16:39Z</time>
      </trkpt>
      <trkpt lat="43.37318" lon="2.54751">
        <ele>608.65</ele>
        <time>2019-04-14T08:16:48Z</time>
      </trkpt>
      <trkpt lat="43.37324" lon="2.54745">
        <ele>609.61</ele>
        <time>2019-04-14T08:16:57Z</time>
      </trkpt>
      <trkpt lat="43.37328" lon="2.54741">
        <ele>610.09</ele>
        <time>2019-04-14T08:17:04Z</time>
      </trkpt>
      <trkpt lat="43.37334" lon="2.54736">
        <ele>611.06</ele>
        <time>2019-04-14T08:17:13Z</time>
      </trkpt>
      <trkpt lat="43.37343" lon="2.5473">
        <ele>612.5</ele>
        <time>2019-04-14T08:17:23Z</time>
      </trkpt>
      <trkpt lat="43.3735" lon="2.54734">
        <ele>612.98</ele>
        <time>2019-04-14T08:17:34Z</time>
      </trkpt>
      <trkpt lat="43.37352" lon="2.5474">
        <ele>613.46</ele>
        <time>2019-04-14T08:17:42Z</time>
      </trkpt>
      <trkpt lat="43.37352" lon="2.54741">
        <ele>613.94</ele>
        <time>2019-04-14T08:17:43Z</time>
      </trkpt>
      <trkpt lat="43.37355" lon="2.54751">
        <ele>615.86</ele>
        <time>2019-04-14T08:17:52Z</time>
      </trkpt>
      <trkpt lat="43.37356" lon="2.54756">
        <ele>615.38</ele>
        <time>2019-04-14T08:17:59Z</time>
      </trkpt>
      <trkpt lat="43.37359" lon="2.54764">
        <ele>616.82</ele>
        <time>2019-04-14T08:18:07Z</time>
      </trkpt>
      <trkpt lat="43.37363" lon="2.54772">
        <ele>617.78</ele>
        <time>2019-04-14T08:18:15Z</time>
      </trkpt>
      <trkpt lat="43.37365" lon="2.54785">
        <ele>619.23</ele>
        <time>2019-04-14T08:18:25Z</time>
      </trkpt>
      <trkpt lat="43.37369" lon="2.54794">
        <ele>620.19</ele>
        <time>2019-04-14T08:18:33Z</time>
      </trkpt>
      <trkpt lat="43.37371" lon="2.54804">
        <ele>621.63</ele>
        <time>2019-04-14T08:18:41Z</time>
      </trkpt>
      <trkpt lat="43.37373" lon="2.54814">
        <ele>623.07</ele>
        <time>2019-04-14T08:18:50Z</time>
      </trkpt>
      <trkpt lat="43.37376" lon="2.54825">
        <ele>624.51</ele>
        <time>2019-04-14T08:18:59Z</time>
      </trkpt>
      <trkpt lat="43.37379" lon="2.54835">
        <ele>624.51</ele>
        <time>2019-04-14T08:19:08Z</time>
      </trkpt>
      <trkpt lat="43.37383" lon="2.54842">
        <ele>625.47</ele>
        <time>2019-04-14T08:19:16Z</time>
      </trkpt>
      <trkpt lat="43.37388" lon="2.54854">
        <ele>627.4</ele>
        <time>2019-04-14T08:19:26Z</time>
      </trkpt>
      <trkpt lat="43.37393" lon="2.54863">
        <ele>628.36</ele>
        <time>2019-04-14T08:19:36Z</time>
      </trkpt>
      <trkpt lat="43.37398" lon="2.5487">
        <ele>628.84</ele>
        <time>2019-04-14T08:19:45Z</time>
      </trkpt>
      <trkpt lat="43.37402" lon="2.54879">
        <ele>630.28</ele>
        <time>2019-04-14T08:19:53Z</time>
      </trkpt>
      <trkpt lat="43.37408" lon="2.54887">
        <ele>631.72</ele>
        <time>2019-04-14T08:20:02Z</time>
      </trkpt>
      <trkpt lat="43.37411" lon="2.54893">
        <ele>632.2</ele>
        <time>2019-04-14T08:20:09Z</time>
      </trkpt>
      <trkpt lat="43.37417" lon="2.549">
        <ele>633.17</ele>
        <time>2019-04-14T08:20:16Z</time>
      </trkpt>
      <trkpt lat="43.37418" lon="2.54902">
        <ele>633.65</ele>
        <time>2019-04-14T08:20:19Z</time>
      </trkpt>
      <trkpt lat="43.37426" lon="2.54909">
        <ele>634.13</ele>
        <time>2019-04-14T08:20:26Z</time>
      </trkpt>
      <trkpt lat="43.37429" lon="2.54911">
        <ele>634.13</ele>
        <time>2019-04-14T08:20:29Z</time>
      </trkpt>
      <trkpt lat="43.37437" lon="2.54917">
        <ele>634.61</ele>
        <time>2019-04-14T08:20:38Z</time>
      </trkpt>
      <trkpt lat="43.37445" lon="2.54921">
        <ele>635.57</ele>
        <time>2019-04-14T08:20:46Z</time>
      </trkpt>
      <trkpt lat="43.37452" lon="2.54925">
        <ele>636.05</ele>
        <time>2019-04-14T08:20:55Z</time>
      </trkpt>
      <trkpt lat="43.37459" lon="2.5493">
        <ele>637.01</ele>
        <time>2019-04-14T08:21:03Z</time>
      </trkpt>
      <trkpt lat="43.37465" lon="2.54934">
        <ele>637.49</ele>
        <time>2019-04-14T08:21:11Z</time>
      </trkpt>
      <trkpt lat="43.37473" lon="2.5494">
        <ele>638.45</ele>
        <time>2019-04-14T08:21:20Z</time>
      </trkpt>
      <trkpt lat="43.37482" lon="2.54947">
        <ele>639.41</ele>
        <time>2019-04-14T08:21:31Z</time>
      </trkpt>
      <trkpt lat="43.3749" lon="2.54947">
        <ele>640.86</ele>
        <time>2019-04-14T08:21:40Z</time>
      </trkpt>
      <trkpt lat="43.37499" lon="2.54945">
        <ele>641.82</ele>
        <time>2019-04-14T08:21:51Z</time>
      </trkpt>
      <trkpt lat="43.37507" lon="2.54943">
        <ele>643.26</ele>
        <time>2019-04-14T08:22:02Z</time>
      </trkpt>
      <trkpt lat="43.37517" lon="2.54943">
        <ele>644.7</ele>
        <time>2019-04-14T08:22:13Z</time>
      </trkpt>
      <trkpt lat="43.37521" lon="2.54943">
        <ele>645.66</ele>
        <time>2019-04-14T08:22:21Z</time>
      </trkpt>
      <trkpt lat="43.37525" lon="2.54943">
        <ele>646.62</ele>
        <time>2019-04-14T08:22:28Z</time>
      </trkpt>
      <trkpt lat="43.37527" lon="2.54943">
        <ele>646.62</ele>
        <time>2019-04-14T08:22:30Z</time>
      </trkpt>
      <trkpt lat="43.37536" lon="2.54942">
        <ele>648.07</ele>
        <time>2019-04-14T08:22:39Z</time>
      </trkpt>
      <trkpt lat="43.37545" lon="2.5494">
        <ele>648.55</ele>
        <time>2019-04-14T08:22:49Z</time>
      </trkpt>
      <trkpt lat="43.37553" lon="2.54939">
        <ele>648.07</ele>
        <time>2019-04-14T08:22:58Z</time>
      </trkpt>
      <trkpt lat="43.3756" lon="2.54938">
        <ele>647.59</ele>
        <time>2019-04-14T08:23:04Z</time>
      </trkpt>
      <trkpt lat="43.37568" lon="2.54936">
        <ele>649.03</ele>
        <time>2019-04-14T08:23:12Z</time>
      </trkpt>
      <trkpt lat="43.37575" lon="2.54935">
        <ele>649.51</ele>
        <time>2019-04-14T08:23:19Z</time>
      </trkpt>
      <trkpt lat="43.37583" lon="2.54936">
        <ele>649.99</ele>
        <time>2019-04-14T08:23:28Z</time>
      </trkpt>
      <trkpt lat="43.37589" lon="2.54936">
        <ele>649.99</ele>
        <time>2019-04-14T08:23:35Z</time>
      </trkpt>
      <trkpt lat="43.37595" lon="2.54937">
        <ele>650.95</ele>
        <time>2019-04-14T08:23:43Z</time>
      </trkpt>
      <trkpt lat="43.37606" lon="2.54934">
        <ele>651.91</ele>
        <time>2019-04-14T08:23:55Z</time>
      </trkpt>
      <trkpt lat="43.3761" lon="2.54931">
        <ele>652.39</ele>
        <time>2019-04-14T08:24:02Z</time>
      </trkpt>
      <trkpt lat="43.37616" lon="2.54929">
        <ele>652.87</ele>
        <time>2019-04-14T08:24:12Z</time>
      </trkpt>
      <trkpt lat="43.37622" lon="2.54931">
        <ele>653.83</ele>
        <time>2019-04-14T08:24:19Z</time>
      </trkpt>
      <trkpt lat="43.3763" lon="2.54928">
        <ele>655.28</ele>
        <time>2019-04-14T08:24:29Z</time>
      </trkpt>
      <trkpt lat="43.37639" lon="2.54922">
        <ele>656.72</ele>
        <time>2019-04-14T08:24:38Z</time>
      </trkpt>
      <trkpt lat="43.37649" lon="2.54914">
        <ele>658.64</ele>
        <time>2019-04-14T08:24:49Z</time>
      </trkpt>
      <trkpt lat="43.37654" lon="2.5491">
        <ele>659.6</ele>
        <time>2019-04-14T08:24:57Z</time>
      </trkpt>
      <trkpt lat="43.3766" lon="2.54906">
        <ele>661.52</ele>
        <time>2019-04-14T08:25:06Z</time>
      </trkpt>
      <trkpt lat="43.37668" lon="2.54902">
        <ele>662.49</ele>
        <time>2019-04-14T08:25:15Z</time>
      </trkpt>
      <trkpt lat="43.37674" lon="2.54899">
        <ele>663.93</ele>
        <time>2019-04-14T08:25:24Z</time>
      </trkpt>
      <trkpt lat="43.37683" lon="2.54897">
        <ele>664.89</ele>
        <time>2019-04-14T08:25:36Z</time>
      </trkpt>
      <trkpt lat="43.37694" lon="2.54892">
        <ele>665.37</ele>
        <time>2019-04-14T08:25:46Z</time>
      </trkpt>
      <trkpt lat="43.37702" lon="2.54893">
        <ele>666.81</ele>
        <time>2019-04-14T08:25:55Z</time>
      </trkpt>
      <trkpt lat="43.37708" lon="2.54898">
        <ele>667.77</ele>
        <time>2019-04-14T08:26:04Z</time>
      </trkpt>
      <trkpt lat="43.37714" lon="2.54902">
        <ele>668.73</ele>
        <time>2019-04-14T08:26:12Z</time>
      </trkpt>
      <trkpt lat="43.3772" lon="2.54906">
        <ele>668.73</ele>
        <time>2019-04-14T08:26:21Z</time>
      </trkpt>
      <trkpt lat="43.37725" lon="2.5491">
        <ele>670.18</ele>
        <time>2019-04-14T08:26:27Z</time>
      </trkpt>
      <trkpt lat="43.37732" lon="2.54913">
        <ele>670.66</ele>
        <time>2019-04-14T08:26:35Z</time>
      </trkpt>
      <trkpt lat="43.37739" lon="2.54918">
        <ele>672.1</ele>
        <time>2019-04-14T08:26:44Z</time>
      </trkpt>
      <trkpt lat="43.37741" lon="2.54922">
        <ele>672.58</ele>
        <time>2019-04-14T08:26:48Z</time>
      </trkpt>
      <trkpt lat="43.3775" lon="2.54928">
        <ele>674.02</ele>
        <time>2019-04-14T08:26:59Z</time>
      </trkpt>
      <trkpt lat="43.37754" lon="2.54931">
        <ele>675.46</ele>
        <time>2019-04-14T08:27:06Z</time>
      </trkpt>
      <trkpt lat="43.37755" lon="2.54938">
        <ele>676.42</ele>
        <time>2019-04-14T08:27:15Z</time>
      </trkpt>
      <trkpt lat="43.37754" lon="2.54938">
        <ele>676.42</ele>
        <time>2019-04-14T08:27:16Z</time>
      </trkpt>
      <trkpt lat="43.37752" lon="2.5494">
        <ele>676.91</ele>
        <time>2019-04-14T08:27:19Z</time>
      </trkpt>
      <trkpt lat="43.37745" lon="2.54942">
        <ele>677.87</ele>
        <time>2019-04-14T08:27:27Z</time>
      </trkpt>
      <trkpt lat="43.3774" lon="2.54945">
        <ele>677.39</ele>
        <time>2019-04-14T08:27:36Z</time>
      </trkpt>
      <trkpt lat="43.37731" lon="2.54956">
        <ele>678.35</ele>
        <time>2019-04-14T08:27:46Z</time>
      </trkpt>
      <trkpt lat="43.37725" lon="2.54968">
        <ele>678.35</ele>
        <time>2019-04-14T08:27:57Z</time>
      </trkpt>
      <trkpt lat="43.3772" lon="2.54978">
        <ele>679.31</ele>
        <time>2019-04-14T08:28:06Z</time>
      </trkpt>
      <trkpt lat="43.37716" lon="2.54989">
        <ele>678.83</ele>
        <time>2019-04-14T08:28:16Z</time>
      </trkpt>
      <trkpt lat="43.37715" lon="2.54989">
        <ele>678.83</ele>
        <time>2019-04-14T08:28:17Z</time>
      </trkpt>
      <trkpt lat="43.37706" lon="2.54994">
        <ele>678.83</ele>
        <time>2019-04-14T08:28:24Z</time>
      </trkpt>
      <trkpt lat="43.377" lon="2.55004">
        <ele>678.83</ele>
        <time>2019-04-14T08:28:33Z</time>
      </trkpt>
      <trkpt lat="43.37693" lon="2.55013">
        <ele>678.35</ele>
        <time>2019-04-14T08:28:43Z</time>
      </trkpt>
      <trkpt lat="43.3769" lon="2.55016">
        <ele>677.87</ele>
        <time>2019-04-14T08:28:46Z</time>
      </trkpt>
      <trkpt lat="43.37684" lon="2.55026">
        <ele>678.35</ele>
        <time>2019-04-14T08:28:54Z</time>
      </trkpt>
      <trkpt lat="43.37686" lon="2.55036">
        <ele>679.79</ele>
        <time>2019-04-14T08:29:01Z</time>
      </trkpt>
      <trkpt lat="43.37692" lon="2.55043">
        <ele>681.23</ele>
        <time>2019-04-14T08:29:08Z</time>
      </trkpt>
      <trkpt lat="43.37694" lon="2.55047">
        <ele>681.23</ele>
        <time>2019-04-14T08:29:17Z</time>
      </trkpt>
      <trkpt lat="43.37698" lon="2.55046">
        <ele>680.75</ele>
        <time>2019-04-14T08:29:28Z</time>
      </trkpt>
      <trkpt lat="43.377" lon="2.55046">
        <ele>680.75</ele>
        <time>2019-04-14T08:29:42Z</time>
      </trkpt>
      <trkpt lat="43.37697" lon="2.55052">
        <ele>681.23</ele>
        <time>2019-04-14T08:29:55Z</time>
      </trkpt>
      <trkpt lat="43.37697" lon="2.55052">
        <ele>681.23</ele>
        <time>2019-04-14T08:30:11Z</time>
      </trkpt>
      <trkpt lat="43.37699" lon="2.55053">
        <ele>681.71</ele>
        <time>2019-04-14T08:30:19Z</time>
      </trkpt>
      <trkpt lat="43.37698" lon="2.5505">
        <ele>682.67</ele>
        <time>2019-04-14T08:30:30Z</time>
      </trkpt>
      <trkpt lat="43.377" lon="2.55048">
        <ele>682.19</ele>
        <time>2019-04-14T08:30:53Z</time>
      </trkpt>
      <trkpt lat="43.37702" lon="2.55048">
        <ele>682.19</ele>
        <time>2019-04-14T08:31:03Z</time>
      </trkpt>
      <trkpt lat="43.377" lon="2.55048">
        <ele>682.67</ele>
        <time>2019-04-14T08:31:15Z</time>
      </trkpt>
      <trkpt lat="43.377" lon="2.55047">
        <ele>682.67</ele>
        <time>2019-04-14T08:31:27Z</time>
      </trkpt>
      <trkpt lat="43.377" lon="2.55049">
        <ele>682.19</ele>
        <time>2019-04-14T08:31:39Z</time>
      </trkpt>
      <trkpt lat="43.37701" lon="2.5505">
        <ele>682.19</ele>
        <time>2019-04-14T08:31:48Z</time>
      </trkpt>
      <trkpt lat="43.37703" lon="2.5505">
        <ele>682.19</ele>
        <time>2019-04-14T08:32:07Z</time>
      </trkpt>
      <trkpt lat="43.37701" lon="2.55053">
        <ele>682.67</ele>
        <time>2019-04-14T08:32:23Z</time>
      </trkpt>
      <trkpt lat="43.37701" lon="2.5505">
        <ele>682.19</ele>
        <time>2019-04-14T08:32:34Z</time>
      </trkpt>
      <trkpt lat="43.37698" lon="2.55056">
        <ele>681.71</ele>
        <time>2019-04-14T08:32:48Z</time>
      </trkpt>
      <trkpt lat="43.37698" lon="2.55057">
        <ele>682.19</ele>
        <time>2019-04-14T08:32:56Z</time>
      </trkpt>
      <trkpt lat="43.377" lon="2.55056">
        <ele>684.12</ele>
        <time>2019-04-14T08:33:11Z</time>
      </trkpt>
      <trkpt lat="43.37703" lon="2.55054">
        <ele>682.67</ele>
        <time>2019-04-14T08:33:28Z</time>
      </trkpt>
      <trkpt lat="43.37703" lon="2.55053">
        <ele>683.63</ele>
        <time>2019-04-14T08:33:40Z</time>
      </trkpt>
      <trkpt lat="43.37704" lon="2.55054">
        <ele>683.15</ele>
        <time>2019-04-14T08:33:41Z</time>
      </trkpt>
      <trkpt lat="43.37709" lon="2.55057">
        <ele>684.12</ele>
        <time>2019-04-14T08:33:49Z</time>
      </trkpt>
      <trkpt lat="43.37714" lon="2.55063">
        <ele>685.08</ele>
        <time>2019-04-14T08:33:58Z</time>
      </trkpt>
      <trkpt lat="43.37719" lon="2.5507">
        <ele>686.52</ele>
        <time>2019-04-14T08:34:07Z</time>
      </trkpt>
      <trkpt lat="43.37723" lon="2.55078">
        <ele>687.96</ele>
        <time>2019-04-14T08:34:16Z</time>
      </trkpt>
      <trkpt lat="43.37728" lon="2.55085">
        <ele>689.4</ele>
        <time>2019-04-14T08:34:25Z</time>
      </trkpt>
      <trkpt lat="43.37729" lon="2.55085">
        <ele>689.88</ele>
        <time>2019-04-14T08:34:26Z</time>
      </trkpt>
      <trkpt lat="43.37736" lon="2.55094">
        <ele>690.36</ele>
        <time>2019-04-14T08:34:36Z</time>
      </trkpt>
      <trkpt lat="43.37741" lon="2.55102">
        <ele>691.33</ele>
        <time>2019-04-14T08:34:44Z</time>
      </trkpt>
      <trkpt lat="43.37744" lon="2.55108">
        <ele>691.81</ele>
        <time>2019-04-14T08:34:50Z</time>
      </trkpt>
      <trkpt lat="43.37746" lon="2.55112">
        <ele>692.29</ele>
        <time>2019-04-14T08:34:54Z</time>
      </trkpt>
      <trkpt lat="43.37752" lon="2.55122">
        <ele>691.81</ele>
        <time>2019-04-14T08:35:03Z</time>
      </trkpt>
      <trkpt lat="43.37755" lon="2.55135">
        <ele>691.81</ele>
        <time>2019-04-14T08:35:12Z</time>
      </trkpt>
      <trkpt lat="43.37756" lon="2.55143">
        <ele>692.29</ele>
        <time>2019-04-14T08:35:16Z</time>
      </trkpt>
      <trkpt lat="43.37761" lon="2.55159">
        <ele>690.84</ele>
        <time>2019-04-14T08:35:28Z</time>
      </trkpt>
      <trkpt lat="43.37761" lon="2.55166">
        <ele>690.36</ele>
        <time>2019-04-14T08:35:36Z</time>
      </trkpt>
      <trkpt lat="43.37757" lon="2.5517">
        <ele>690.84</ele>
        <time>2019-04-14T08:35:43Z</time>
      </trkpt>
      <trkpt lat="43.3775" lon="2.55173">
        <ele>692.77</ele>
        <time>2019-04-14T08:35:54Z</time>
      </trkpt>
      <trkpt lat="43.37749" lon="2.55173">
        <ele>693.25</ele>
        <time>2019-04-14T08:35:55Z</time>
      </trkpt>
      <trkpt lat="43.37744" lon="2.55177">
        <ele>693.25</ele>
        <time>2019-04-14T08:36:05Z</time>
      </trkpt>
      <trkpt lat="43.37748" lon="2.55174">
        <ele>693.25</ele>
        <time>2019-04-14T08:36:11Z</time>
      </trkpt>
      <trkpt lat="43.37753" lon="2.55172">
        <ele>692.29</ele>
        <time>2019-04-14T08:36:17Z</time>
      </trkpt>
      <trkpt lat="43.37763" lon="2.55166">
        <ele>690.36</ele>
        <time>2019-04-14T08:36:26Z</time>
      </trkpt>
      <trkpt lat="43.37764" lon="2.55165">
        <ele>689.88</ele>
        <time>2019-04-14T08:36:27Z</time>
      </trkpt>
      <trkpt lat="43.37774" lon="2.55159">
        <ele>690.36</ele>
        <time>2019-04-14T08:36:36Z</time>
      </trkpt>
      <trkpt lat="43.37778" lon="2.55156">
        <ele>690.36</ele>
        <time>2019-04-14T08:36:41Z</time>
      </trkpt>
      <trkpt lat="43.37788" lon="2.55151">
        <ele>690.36</ele>
        <time>2019-04-14T08:36:52Z</time>
      </trkpt>
      <trkpt lat="43.37796" lon="2.55148">
        <ele>691.81</ele>
        <time>2019-04-14T08:37:02Z</time>
      </trkpt>
      <trkpt lat="43.37805" lon="2.55145">
        <ele>692.77</ele>
        <time>2019-04-14T08:37:13Z</time>
      </trkpt>
      <trkpt lat="43.37816" lon="2.5514">
        <ele>694.21</ele>
        <time>2019-04-14T08:37:23Z</time>
      </trkpt>
      <trkpt lat="43.37826" lon="2.55134">
        <ele>694.69</ele>
        <time>2019-04-14T08:37:34Z</time>
      </trkpt>
      <trkpt lat="43.37832" lon="2.55134">
        <ele>696.13</ele>
        <time>2019-04-14T08:37:44Z</time>
      </trkpt>
      <trkpt lat="43.3784" lon="2.55142">
        <ele>696.13</ele>
        <time>2019-04-14T08:37:53Z</time>
      </trkpt>
      <trkpt lat="43.37845" lon="2.55148">
        <ele>696.61</ele>
        <time>2019-04-14T08:38:02Z</time>
      </trkpt>
      <trkpt lat="43.37849" lon="2.55158">
        <ele>696.13</ele>
        <time>2019-04-14T08:38:10Z</time>
      </trkpt>
      <trkpt lat="43.37855" lon="2.55169">
        <ele>696.13</ele>
        <time>2019-04-14T08:38:21Z</time>
      </trkpt>
      <trkpt lat="43.37861" lon="2.55181">
        <ele>696.13</ele>
        <time>2019-04-14T08:38:31Z</time>
      </trkpt>
      <trkpt lat="43.37863" lon="2.55183">
        <ele>696.13</ele>
        <time>2019-04-14T08:38:33Z</time>
      </trkpt>
      <trkpt lat="43.37868" lon="2.55195">
        <ele>696.13</ele>
        <time>2019-04-14T08:38:41Z</time>
      </trkpt>
      <trkpt lat="43.37872" lon="2.55204">
        <ele>695.17</ele>
        <time>2019-04-14T08:38:49Z</time>
      </trkpt>
      <trkpt lat="43.37879" lon="2.55212">
        <ele>694.69</ele>
        <time>2019-04-14T08:38:57Z</time>
      </trkpt>
      <trkpt lat="43.37885" lon="2.55222">
        <ele>694.69</ele>
        <time>2019-04-14T08:39:06Z</time>
      </trkpt>
      <trkpt lat="43.37889" lon="2.55231">
        <ele>694.69</ele>
        <time>2019-04-14T08:39:13Z</time>
      </trkpt>
      <trkpt lat="43.37894" lon="2.55241">
        <ele>695.17</ele>
        <time>2019-04-14T08:39:20Z</time>
      </trkpt>
      <trkpt lat="43.37896" lon="2.55246">
        <ele>694.69</ele>
        <time>2019-04-14T08:39:27Z</time>
      </trkpt>
      <trkpt lat="43.37898" lon="2.55249">
        <ele>694.69</ele>
        <time>2019-04-14T08:39:39Z</time>
      </trkpt>
      <trkpt lat="43.37902" lon="2.55254">
        <ele>694.21</ele>
        <time>2019-04-14T08:39:47Z</time>
      </trkpt>
      <trkpt lat="43.37907" lon="2.5526">
        <ele>693.73</ele>
        <time>2019-04-14T08:39:55Z</time>
      </trkpt>
      <trkpt lat="43.3791" lon="2.55263">
        <ele>693.73</ele>
        <time>2019-04-14T08:40:02Z</time>
      </trkpt>
      <trkpt lat="43.37915" lon="2.55273">
        <ele>692.77</ele>
        <time>2019-04-14T08:40:10Z</time>
      </trkpt>
      <trkpt lat="43.37916" lon="2.55276">
        <ele>693.25</ele>
        <time>2019-04-14T08:40:13Z</time>
      </trkpt>
      <trkpt lat="43.37919" lon="2.5528">
        <ele>693.25</ele>
        <time>2019-04-14T08:40:16Z</time>
      </trkpt>
      <trkpt lat="43.37925" lon="2.55288">
        <ele>692.77</ele>
        <time>2019-04-14T08:40:23Z</time>
      </trkpt>
      <trkpt lat="43.37931" lon="2.55293">
        <ele>692.29</ele>
        <time>2019-04-14T08:40:28Z</time>
      </trkpt>
      <trkpt lat="43.37941" lon="2.55298">
        <ele>693.25</ele>
        <time>2019-04-14T08:40:38Z</time>
      </trkpt>
      <trkpt lat="43.37941" lon="2.55298">
        <ele>693.25</ele>
        <time>2019-04-14T08:40:39Z</time>
      </trkpt>
      <trkpt lat="43.37949" lon="2.55308">
        <ele>693.73</ele>
        <time>2019-04-14T08:40:49Z</time>
      </trkpt>
      <trkpt lat="43.37952" lon="2.55316">
        <ele>694.69</ele>
        <time>2019-04-14T08:40:56Z</time>
      </trkpt>
      <trkpt lat="43.37957" lon="2.55322">
        <ele>695.65</ele>
        <time>2019-04-14T08:41:03Z</time>
      </trkpt>
      <trkpt lat="43.37963" lon="2.55326">
        <ele>696.61</ele>
        <time>2019-04-14T08:41:10Z</time>
      </trkpt>
      <trkpt lat="43.37969" lon="2.55326">
        <ele>697.57</ele>
        <time>2019-04-14T08:41:17Z</time>
      </trkpt>
      <trkpt lat="43.37969" lon="2.55327">
        <ele>697.57</ele>
        <time>2019-04-14T08:41:26Z</time>
      </trkpt>
      <trkpt lat="43.37971" lon="2.55323">
        <ele>698.05</ele>
        <time>2019-04-14T08:41:34Z</time>
      </trkpt>
      <trkpt lat="43.37973" lon="2.55319">
        <ele>699.02</ele>
        <time>2019-04-14T08:41:43Z</time>
      </trkpt>
      <trkpt lat="43.37973" lon="2.55315">
        <ele>699.5</ele>
        <time>2019-04-14T08:41:51Z</time>
      </trkpt>
      <trkpt lat="43.3797" lon="2.55312">
        <ele>699.02</ele>
        <time>2019-04-14T08:42:02Z</time>
      </trkpt>
      <trkpt lat="43.3797" lon="2.55312">
        <ele>698.53</ele>
        <time>2019-04-14T08:42:21Z</time>
      </trkpt>
      <trkpt lat="43.3797" lon="2.55316">
        <ele>699.5</ele>
        <time>2019-04-14T08:42:31Z</time>
      </trkpt>
      <trkpt lat="43.3797" lon="2.55316">
        <ele>699.5</ele>
        <time>2019-04-14T08:42:39Z</time>
      </trkpt>
      <trkpt lat="43.3797" lon="2.55319">
        <ele>699.02</ele>
        <time>2019-04-14T08:42:47Z</time>
      </trkpt>
      <trkpt lat="43.37972" lon="2.5532">
        <ele>699.02</ele>
        <time>2019-04-14T08:42:55Z</time>
      </trkpt>
      <trkpt lat="43.37971" lon="2.5532">
        <ele>698.53</ele>
        <time>2019-04-14T08:43:09Z</time>
      </trkpt>
      <trkpt lat="43.37972" lon="2.55321">
        <ele>698.53</ele>
        <time>2019-04-14T08:43:23Z</time>
      </trkpt>
      <trkpt lat="43.37975" lon="2.55321">
        <ele>698.53</ele>
        <time>2019-04-14T08:43:35Z</time>
      </trkpt>
      <trkpt lat="43.37972" lon="2.5532">
        <ele>698.53</ele>
        <time>2019-04-14T08:43:46Z</time>
      </trkpt>
      <trkpt lat="43.37971" lon="2.55319">
        <ele>698.53</ele>
        <time>2019-04-14T08:43:54Z</time>
      </trkpt>
      <trkpt lat="43.37973" lon="2.55317">
        <ele>698.53</ele>
        <time>2019-04-14T08:44:02Z</time>
      </trkpt>
      <trkpt lat="43.37973" lon="2.55319">
        <ele>698.05</ele>
        <time>2019-04-14T08:44:16Z</time>
      </trkpt>
      <trkpt lat="43.37973" lon="2.55321">
        <ele>698.05</ele>
        <time>2019-04-14T08:44:23Z</time>
      </trkpt>
      <trkpt lat="43.37972" lon="2.55321">
        <ele>698.53</ele>
        <time>2019-04-14T08:44:24Z</time>
      </trkpt>
      <trkpt lat="43.37968" lon="2.55321">
        <ele>696.61</ele>
        <time>2019-04-14T08:44:33Z</time>
      </trkpt>
      <trkpt lat="43.37965" lon="2.5533">
        <ele>695.17</ele>
        <time>2019-04-14T08:44:40Z</time>
      </trkpt>
      <trkpt lat="43.37965" lon="2.55335">
        <ele>694.21</ele>
        <time>2019-04-14T08:44:44Z</time>
      </trkpt>
      <trkpt lat="43.37962" lon="2.55347">
        <ele>690.84</ele>
        <time>2019-04-14T08:44:53Z</time>
      </trkpt>
      <trkpt lat="43.37961" lon="2.55355">
        <ele>688.92</ele>
        <time>2019-04-14T08:45:01Z</time>
      </trkpt>
      <trkpt lat="43.37959" lon="2.55362">
        <ele>687.96</ele>
        <time>2019-04-14T08:45:09Z</time>
      </trkpt>
      <trkpt lat="43.3796" lon="2.5537">
        <ele>686.52</ele>
        <time>2019-04-14T08:45:17Z</time>
      </trkpt>
      <trkpt lat="43.37966" lon="2.55375">
        <ele>683.63</ele>
        <time>2019-04-14T08:45:26Z</time>
      </trkpt>
      <trkpt lat="43.37969" lon="2.55373">
        <ele>682.67</ele>
        <time>2019-04-14T08:45:33Z</time>
      </trkpt>
      <trkpt lat="43.37974" lon="2.55371">
        <ele>680.75</ele>
        <time>2019-04-14T08:45:42Z</time>
      </trkpt>
      <trkpt lat="43.3798" lon="2.55367">
        <ele>679.31</ele>
        <time>2019-04-14T08:45:51Z</time>
      </trkpt>
      <trkpt lat="43.37984" lon="2.5536">
        <ele>678.83</ele>
        <time>2019-04-14T08:45:59Z</time>
      </trkpt>
      <trkpt lat="43.37992" lon="2.55353">
        <ele>677.87</ele>
        <time>2019-04-14T08:46:09Z</time>
      </trkpt>
      <trkpt lat="43.37997" lon="2.55351">
        <ele>675.46</ele>
        <time>2019-04-14T08:46:18Z</time>
      </trkpt>
      <trkpt lat="43.38004" lon="2.55357">
        <ele>673.06</ele>
        <time>2019-04-14T08:46:27Z</time>
      </trkpt>
      <trkpt lat="43.3801" lon="2.55356">
        <ele>670.18</ele>
        <time>2019-04-14T08:46:34Z</time>
      </trkpt>
      <trkpt lat="43.38018" lon="2.55356">
        <ele>667.77</ele>
        <time>2019-04-14T08:46:44Z</time>
      </trkpt>
      <trkpt lat="43.38024" lon="2.55353">
        <ele>664.41</ele>
        <time>2019-04-14T08:46:53Z</time>
      </trkpt>
      <trkpt lat="43.38029" lon="2.55353">
        <ele>662.01</ele>
        <time>2019-04-14T08:47:01Z</time>
      </trkpt>
      <trkpt lat="43.38031" lon="2.55354">
        <ele>661.04</ele>
        <time>2019-04-14T08:47:03Z</time>
      </trkpt>
      <trkpt lat="43.38037" lon="2.55357">
        <ele>659.6</ele>
        <time>2019-04-14T08:47:10Z</time>
      </trkpt>
      <trkpt lat="43.38043" lon="2.55355">
        <ele>658.16</ele>
        <time>2019-04-14T08:47:18Z</time>
      </trkpt>
      <trkpt lat="43.38046" lon="2.55356">
        <ele>657.2</ele>
        <time>2019-04-14T08:47:21Z</time>
      </trkpt>
      <trkpt lat="43.38048" lon="2.55355">
        <ele>655.76</ele>
        <time>2019-04-14T08:47:24Z</time>
      </trkpt>
      <trkpt lat="43.38054" lon="2.55353">
        <ele>652.87</ele>
        <time>2019-04-14T08:47:34Z</time>
      </trkpt>
      <trkpt lat="43.3806" lon="2.5535">
        <ele>650.95</ele>
        <time>2019-04-14T08:47:42Z</time>
      </trkpt>
      <trkpt lat="43.38065" lon="2.55345">
        <ele>650.47</ele>
        <time>2019-04-14T08:47:49Z</time>
      </trkpt>
      <trkpt lat="43.38069" lon="2.55341">
        <ele>649.51</ele>
        <time>2019-04-14T08:47:57Z</time>
      </trkpt>
      <trkpt lat="43.38072" lon="2.55339">
        <ele>648.55</ele>
        <time>2019-04-14T08:48:08Z</time>
      </trkpt>
      <trkpt lat="43.38075" lon="2.55338">
        <ele>648.07</ele>
        <time>2019-04-14T08:48:12Z</time>
      </trkpt>
      <trkpt lat="43.38086" lon="2.55331">
        <ele>648.07</ele>
        <time>2019-04-14T08:48:21Z</time>
      </trkpt>
      <trkpt lat="43.38094" lon="2.55324">
        <ele>647.1</ele>
        <time>2019-04-14T08:48:29Z</time>
      </trkpt>
      <trkpt lat="43.38103" lon="2.55314">
        <ele>646.14</ele>
        <time>2019-04-14T08:48:39Z</time>
      </trkpt>
      <trkpt lat="43.38112" lon="2.55313">
        <ele>645.66</ele>
        <time>2019-04-14T08:48:48Z</time>
      </trkpt>
      <trkpt lat="43.38122" lon="2.55312">
        <ele>644.7</ele>
        <time>2019-04-14T08:48:56Z</time>
      </trkpt>
      <trkpt lat="43.3813" lon="2.55311">
        <ele>645.66</ele>
        <time>2019-04-14T08:49:03Z</time>
      </trkpt>
      <trkpt lat="43.38139" lon="2.55307">
        <ele>647.1</ele>
        <time>2019-04-14T08:49:13Z</time>
      </trkpt>
      <trkpt lat="43.38148" lon="2.55305">
        <ele>646.14</ele>
        <time>2019-04-14T08:49:22Z</time>
      </trkpt>
      <trkpt lat="43.38152" lon="2.55304">
        <ele>643.74</ele>
        <time>2019-04-14T08:49:27Z</time>
      </trkpt>
      <trkpt lat="43.3816" lon="2.55301">
        <ele>642.3</ele>
        <time>2019-04-14T08:49:35Z</time>
      </trkpt>
      <trkpt lat="43.38163" lon="2.55298">
        <ele>641.34</ele>
        <time>2019-04-14T08:49:41Z</time>
      </trkpt>
      <trkpt lat="43.3817" lon="2.55299">
        <ele>639.89</ele>
        <time>2019-04-14T08:49:49Z</time>
      </trkpt>
      <trkpt lat="43.38179" lon="2.553">
        <ele>639.41</ele>
        <time>2019-04-14T08:49:59Z</time>
      </trkpt>
      <trkpt lat="43.38187" lon="2.55302">
        <ele>640.38</ele>
        <time>2019-04-14T08:50:07Z</time>
      </trkpt>
      <trkpt lat="43.38195" lon="2.55303">
        <ele>640.38</ele>
        <time>2019-04-14T08:50:15Z</time>
      </trkpt>
      <trkpt lat="43.38196" lon="2.55303">
        <ele>640.86</ele>
        <time>2019-04-14T08:50:22Z</time>
      </trkpt>
      <trkpt lat="43.38195" lon="2.55302">
        <ele>640.86</ele>
        <time>2019-04-14T08:50:33Z</time>
      </trkpt>
      <trkpt lat="43.38194" lon="2.55303">
        <ele>640.38</ele>
        <time>2019-04-14T08:50:48Z</time>
      </trkpt>
      <trkpt lat="43.38194" lon="2.553">
        <ele>640.86</ele>
        <time>2019-04-14T08:51:01Z</time>
      </trkpt>
      <trkpt lat="43.38192" lon="2.55301">
        <ele>641.34</ele>
        <time>2019-04-14T08:51:20Z</time>
      </trkpt>
      <trkpt lat="43.38194" lon="2.55304">
        <ele>641.34</ele>
        <time>2019-04-14T08:51:38Z</time>
      </trkpt>
      <trkpt lat="43.38192" lon="2.55307">
        <ele>640.86</ele>
        <time>2019-04-14T08:51:58Z</time>
      </trkpt>
      <trkpt lat="43.38195" lon="2.55303">
        <ele>641.34</ele>
        <time>2019-04-14T08:52:08Z</time>
      </trkpt>
      <trkpt lat="43.38197" lon="2.55302">
        <ele>640.86</ele>
        <time>2019-04-14T08:52:22Z</time>
      </trkpt>
      <trkpt lat="43.382" lon="2.55303">
        <ele>640.38</ele>
        <time>2019-04-14T08:52:33Z</time>
      </trkpt>
      <trkpt lat="43.38202" lon="2.55312">
        <ele>640.38</ele>
        <time>2019-04-14T08:52:41Z</time>
      </trkpt>
      <trkpt lat="43.38206" lon="2.55321">
        <ele>640.86</ele>
        <time>2019-04-14T08:52:50Z</time>
      </trkpt>
      <trkpt lat="43.38208" lon="2.55326">
        <ele>640.86</ele>
        <time>2019-04-14T08:52:54Z</time>
      </trkpt>
      <trkpt lat="43.38213" lon="2.55331">
        <ele>640.38</ele>
        <time>2019-04-14T08:53:03Z</time>
      </trkpt>
      <trkpt lat="43.38215" lon="2.55329">
        <ele>641.82</ele>
        <time>2019-04-14T08:53:06Z</time>
      </trkpt>
      <trkpt lat="43.3822" lon="2.55328">
        <ele>642.78</ele>
        <time>2019-04-14T08:53:15Z</time>
      </trkpt>
      <trkpt lat="43.38222" lon="2.55329">
        <ele>643.26</ele>
        <time>2019-04-14T08:53:17Z</time>
      </trkpt>
      <trkpt lat="43.38223" lon="2.55326">
        <ele>643.74</ele>
        <time>2019-04-14T08:53:25Z</time>
      </trkpt>
      <trkpt lat="43.38225" lon="2.55329">
        <ele>643.26</ele>
        <time>2019-04-14T08:53:36Z</time>
      </trkpt>
      <trkpt lat="43.38228" lon="2.55332">
        <ele>643.74</ele>
        <time>2019-04-14T08:53:40Z</time>
      </trkpt>
      <trkpt lat="43.38235" lon="2.55341">
        <ele>644.7</ele>
        <time>2019-04-14T08:53:49Z</time>
      </trkpt>
      <trkpt lat="43.38242" lon="2.55346">
        <ele>645.18</ele>
        <time>2019-04-14T08:53:58Z</time>
      </trkpt>
      <trkpt lat="43.3825" lon="2.55353">
        <ele>645.66</ele>
        <time>2019-04-14T08:54:08Z</time>
      </trkpt>
      <trkpt lat="43.38256" lon="2.55357">
        <ele>646.14</ele>
        <time>2019-04-14T08:54:16Z</time>
      </trkpt>
      <trkpt lat="43.38258" lon="2.55359">
        <ele>646.62</ele>
        <time>2019-04-14T08:54:18Z</time>
      </trkpt>
      <trkpt lat="43.38259" lon="2.55363">
        <ele>646.14</ele>
        <time>2019-04-14T08:54:22Z</time>
      </trkpt>
      <trkpt lat="43.38264" lon="2.55374">
        <ele>646.14</ele>
        <time>2019-04-14T08:54:31Z</time>
      </trkpt>
      <trkpt lat="43.38268" lon="2.55382">
        <ele>646.62</ele>
        <time>2019-04-14T08:54:39Z</time>
      </trkpt>
      <trkpt lat="43.38271" lon="2.55385">
        <ele>647.1</ele>
        <time>2019-04-14T08:54:43Z</time>
      </trkpt>
      <trkpt lat="43.38279" lon="2.55394">
        <ele>647.59</ele>
        <time>2019-04-14T08:54:53Z</time>
      </trkpt>
      <trkpt lat="43.38283" lon="2.55402">
        <ele>648.07</ele>
        <time>2019-04-14T08:55:01Z</time>
      </trkpt>
      <trkpt lat="43.38286" lon="2.55409">
        <ele>649.03</ele>
        <time>2019-04-14T08:55:09Z</time>
      </trkpt>
      <trkpt lat="43.38288" lon="2.55416">
        <ele>649.51</ele>
        <time>2019-04-14T08:55:16Z</time>
      </trkpt>
      <trkpt lat="43.38293" lon="2.55421">
        <ele>650.47</ele>
        <time>2019-04-14T08:55:24Z</time>
      </trkpt>
      <trkpt lat="43.38295" lon="2.5543">
        <ele>651.91</ele>
        <time>2019-04-14T08:55:32Z</time>
      </trkpt>
      <trkpt lat="43.38297" lon="2.55438">
        <ele>652.39</ele>
        <time>2019-04-14T08:55:40Z</time>
      </trkpt>
      <trkpt lat="43.38301" lon="2.55443">
        <ele>653.83</ele>
        <time>2019-04-14T08:55:47Z</time>
      </trkpt>
      <trkpt lat="43.38302" lon="2.55443">
        <ele>654.8</ele>
        <time>2019-04-14T08:55:53Z</time>
      </trkpt>
      <trkpt lat="43.38307" lon="2.55446">
        <ele>656.24</ele>
        <time>2019-04-14T08:56:00Z</time>
      </trkpt>
      <trkpt lat="43.38314" lon="2.55449">
        <ele>657.68</ele>
        <time>2019-04-14T08:56:09Z</time>
      </trkpt>
      <trkpt lat="43.38318" lon="2.55452">
        <ele>659.12</ele>
        <time>2019-04-14T08:56:18Z</time>
      </trkpt>
      <trkpt lat="43.38321" lon="2.55452">
        <ele>660.56</ele>
        <time>2019-04-14T08:56:25Z</time>
      </trkpt>
      <trkpt lat="43.38324" lon="2.55452">
        <ele>662.01</ele>
        <time>2019-04-14T08:56:32Z</time>
      </trkpt>
      <trkpt lat="43.38326" lon="2.55453">
        <ele>663.45</ele>
        <time>2019-04-14T08:56:39Z</time>
      </trkpt>
      <trkpt lat="43.38332" lon="2.55455">
        <ele>664.41</ele>
        <time>2019-04-14T08:56:48Z</time>
      </trkpt>
      <trkpt lat="43.38338" lon="2.55459">
        <ele>665.85</ele>
        <time>2019-04-14T08:56:55Z</time>
      </trkpt>
      <trkpt lat="43.38341" lon="2.55458">
        <ele>666.81</ele>
        <time>2019-04-14T08:57:03Z</time>
      </trkpt>
      <trkpt lat="43.38354" lon="2.55451">
        <ele>667.77</ele>
        <time>2019-04-14T08:57:11Z</time>
      </trkpt>
      <trkpt lat="43.38364" lon="2.55451">
        <ele>668.73</ele>
        <time>2019-04-14T08:57:20Z</time>
      </trkpt>
      <trkpt lat="43.38366" lon="2.55457">
        <ele>669.7</ele>
        <time>2019-04-14T08:57:31Z</time>
      </trkpt>
      <trkpt lat="43.38365" lon="2.55458">
        <ele>669.7</ele>
        <time>2019-04-14T08:57:41Z</time>
      </trkpt>
      <trkpt lat="43.38371" lon="2.55464">
        <ele>671.62</ele>
        <time>2019-04-14T08:57:54Z</time>
      </trkpt>
      <trkpt lat="43.38377" lon="2.55467">
        <ele>673.54</ele>
        <time>2019-04-14T08:58:05Z</time>
      </trkpt>
      <trkpt lat="43.38379" lon="2.55473">
        <ele>674.02</ele>
        <time>2019-04-14T08:58:14Z</time>
      </trkpt>
      <trkpt lat="43.3838" lon="2.5548">
        <ele>675.94</ele>
        <time>2019-04-14T08:58:23Z</time>
      </trkpt>
      <trkpt lat="43.3838" lon="2.55485">
        <ele>676.91</ele>
        <time>2019-04-14T08:58:31Z</time>
      </trkpt>
      <trkpt lat="43.3838" lon="2.55489">
        <ele>679.31</ele>
        <time>2019-04-14T08:58:40Z</time>
      </trkpt>
      <trkpt lat="43.3838" lon="2.55496">
        <ele>679.79</ele>
        <time>2019-04-14T08:58:48Z</time>
      </trkpt>
      <trkpt lat="43.38381" lon="2.55499">
        <ele>680.75</ele>
        <time>2019-04-14T08:58:56Z</time>
      </trkpt>
      <trkpt lat="43.38384" lon="2.55512">
        <ele>681.71</ele>
        <time>2019-04-14T08:59:05Z</time>
      </trkpt>
      <trkpt lat="43.38385" lon="2.55523">
        <ele>682.67</ele>
        <time>2019-04-14T08:59:12Z</time>
      </trkpt>
      <trkpt lat="43.38393" lon="2.55535">
        <ele>683.63</ele>
        <time>2019-04-14T08:59:22Z</time>
      </trkpt>
      <trkpt lat="43.38401" lon="2.55545">
        <ele>685.08</ele>
        <time>2019-04-14T08:59:31Z</time>
      </trkpt>
      <trkpt lat="43.38405" lon="2.55557">
        <ele>686.52</ele>
        <time>2019-04-14T08:59:41Z</time>
      </trkpt>
      <trkpt lat="43.38411" lon="2.55563">
        <ele>687.96</ele>
        <time>2019-04-14T08:59:49Z</time>
      </trkpt>
      <trkpt lat="43.38414" lon="2.55571">
        <ele>690.36</ele>
        <time>2019-04-14T08:59:58Z</time>
      </trkpt>
      <trkpt lat="43.38418" lon="2.55576">
        <ele>690.84</ele>
        <time>2019-04-14T09:00:06Z</time>
      </trkpt>
      <trkpt lat="43.3842" lon="2.55578">
        <ele>691.81</ele>
        <time>2019-04-14T09:00:08Z</time>
      </trkpt>
      <trkpt lat="43.38426" lon="2.55584">
        <ele>693.25</ele>
        <time>2019-04-14T09:00:17Z</time>
      </trkpt>
      <trkpt lat="43.38429" lon="2.55592">
        <ele>695.17</ele>
        <time>2019-04-14T09:00:27Z</time>
      </trkpt>
      <trkpt lat="43.38432" lon="2.55595">
        <ele>696.13</ele>
        <time>2019-04-14T09:00:36Z</time>
      </trkpt>
      <trkpt lat="43.38435" lon="2.55599">
        <ele>698.53</ele>
        <time>2019-04-14T09:00:44Z</time>
      </trkpt>
      <trkpt lat="43.38438" lon="2.55605">
        <ele>699.98</ele>
        <time>2019-04-14T09:00:53Z</time>
      </trkpt>
      <trkpt lat="43.38443" lon="2.55611">
        <ele>701.42</ele>
        <time>2019-04-14T09:01:03Z</time>
      </trkpt>
      <trkpt lat="43.38446" lon="2.55616">
        <ele>702.86</ele>
        <time>2019-04-14T09:01:11Z</time>
      </trkpt>
      <trkpt lat="43.38449" lon="2.55611">
        <ele>703.34</ele>
        <time>2019-04-14T09:01:22Z</time>
      </trkpt>
      <trkpt lat="43.38451" lon="2.55614">
        <ele>703.82</ele>
        <time>2019-04-14T09:01:37Z</time>
      </trkpt>
      <trkpt lat="43.38453" lon="2.55617">
        <ele>703.82</ele>
        <time>2019-04-14T09:01:48Z</time>
      </trkpt>
      <trkpt lat="43.38452" lon="2.55616">
        <ele>703.82</ele>
        <time>2019-04-14T09:02:01Z</time>
      </trkpt>
      <trkpt lat="43.38454" lon="2.55618">
        <ele>703.82</ele>
        <time>2019-04-14T09:02:11Z</time>
      </trkpt>
      <trkpt lat="43.38455" lon="2.55621">
        <ele>703.82</ele>
        <time>2019-04-14T09:02:31Z</time>
      </trkpt>
      <trkpt lat="43.38454" lon="2.55618">
        <ele>704.3</ele>
        <time>2019-04-14T09:02:41Z</time>
      </trkpt>
      <trkpt lat="43.38453" lon="2.55619">
        <ele>703.82</ele>
        <time>2019-04-14T09:03:02Z</time>
      </trkpt>
      <trkpt lat="43.38453" lon="2.55616">
        <ele>703.82</ele>
        <time>2019-04-14T09:03:18Z</time>
      </trkpt>
      <trkpt lat="43.38454" lon="2.55615">
        <ele>703.82</ele>
        <time>2019-04-14T09:03:33Z</time>
      </trkpt>
      <trkpt lat="43.38453" lon="2.55616">
        <ele>703.82</ele>
        <time>2019-04-14T09:03:50Z</time>
      </trkpt>
      <trkpt lat="43.38452" lon="2.55617">
        <ele>704.3</ele>
        <time>2019-04-14T09:04:09Z</time>
      </trkpt>
      <trkpt lat="43.38454" lon="2.5562">
        <ele>703.82</ele>
        <time>2019-04-14T09:04:20Z</time>
      </trkpt>
      <trkpt lat="43.38456" lon="2.55626">
        <ele>705.26</ele>
        <time>2019-04-14T09:04:26Z</time>
      </trkpt>
      <trkpt lat="43.3846" lon="2.55633">
        <ele>707.19</ele>
        <time>2019-04-14T09:04:37Z</time>
      </trkpt>
      <trkpt lat="43.38464" lon="2.55637">
        <ele>708.63</ele>
        <time>2019-04-14T09:04:45Z</time>
      </trkpt>
      <trkpt lat="43.38467" lon="2.55642">
        <ele>710.07</ele>
        <time>2019-04-14T09:04:53Z</time>
      </trkpt>
      <trkpt lat="43.3847" lon="2.55646">
        <ele>711.51</ele>
        <time>2019-04-14T09:05:01Z</time>
      </trkpt>
      <trkpt lat="43.38477" lon="2.55648">
        <ele>712.47</ele>
        <time>2019-04-14T09:05:09Z</time>
      </trkpt>
      <trkpt lat="43.38486" lon="2.55649">
        <ele>712.95</ele>
        <time>2019-04-14T09:05:17Z</time>
      </trkpt>
      <trkpt lat="43.38491" lon="2.55652">
        <ele>714.4</ele>
        <time>2019-04-14T09:05:25Z</time>
      </trkpt>
      <trkpt lat="43.38497" lon="2.55656">
        <ele>715.36</ele>
        <time>2019-04-14T09:05:33Z</time>
      </trkpt>
      <trkpt lat="43.38506" lon="2.55661">
        <ele>715.84</ele>
        <time>2019-04-14T09:05:43Z</time>
      </trkpt>
      <trkpt lat="43.38513" lon="2.5566">
        <ele>716.32</ele>
        <time>2019-04-14T09:05:50Z</time>
      </trkpt>
      <trkpt lat="43.38517" lon="2.5566">
        <ele>717.28</ele>
        <time>2019-04-14T09:05:54Z</time>
      </trkpt>
      <trkpt lat="43.38521" lon="2.55659">
        <ele>717.76</ele>
        <time>2019-04-14T09:06:02Z</time>
      </trkpt>
      <trkpt lat="43.38527" lon="2.55656">
        <ele>717.28</ele>
        <time>2019-04-14T09:06:09Z</time>
      </trkpt>
      <trkpt lat="43.38537" lon="2.55654">
        <ele>717.76</ele>
        <time>2019-04-14T09:06:18Z</time>
      </trkpt>
      <trkpt lat="43.38545" lon="2.55653">
        <ele>717.76</ele>
        <time>2019-04-14T09:06:28Z</time>
      </trkpt>
      <trkpt lat="43.38551" lon="2.55651">
        <ele>719.2</ele>
        <time>2019-04-14T09:06:37Z</time>
      </trkpt>
      <trkpt lat="43.38554" lon="2.5565">
        <ele>720.65</ele>
        <time>2019-04-14T09:06:44Z</time>
      </trkpt>
      <trkpt lat="43.3856" lon="2.55649">
        <ele>721.13</ele>
        <time>2019-04-14T09:06:53Z</time>
      </trkpt>
      <trkpt lat="43.38567" lon="2.55647">
        <ele>722.09</ele>
        <time>2019-04-14T09:07:01Z</time>
      </trkpt>
      <trkpt lat="43.38575" lon="2.55644">
        <ele>723.05</ele>
        <time>2019-04-14T09:07:10Z</time>
      </trkpt>
      <trkpt lat="43.38582" lon="2.55641">
        <ele>724.49</ele>
        <time>2019-04-14T09:07:20Z</time>
      </trkpt>
      <trkpt lat="43.38586" lon="2.55639">
        <ele>726.41</ele>
        <time>2019-04-14T09:07:27Z</time>
      </trkpt>
      <trkpt lat="43.38593" lon="2.55634">
        <ele>727.86</ele>
        <time>2019-04-14T09:07:37Z</time>
      </trkpt>
      <trkpt lat="43.38602" lon="2.55634">
        <ele>727.86</ele>
        <time>2019-04-14T09:07:48Z</time>
      </trkpt>
      <trkpt lat="43.38604" lon="2.55634">
        <ele>727.86</ele>
        <time>2019-04-14T09:07:56Z</time>
      </trkpt>
      <trkpt lat="43.38603" lon="2.55633">
        <ele>727.37</ele>
        <time>2019-04-14T09:08:07Z</time>
      </trkpt>
      <trkpt lat="43.38608" lon="2.55632">
        <ele>727.37</ele>
        <time>2019-04-14T09:08:18Z</time>
      </trkpt>
      <trkpt lat="43.38615" lon="2.55631">
        <ele>727.86</ele>
        <time>2019-04-14T09:08:27Z</time>
      </trkpt>
      <trkpt lat="43.38622" lon="2.55628">
        <ele>727.86</ele>
        <time>2019-04-14T09:08:34Z</time>
      </trkpt>
      <trkpt lat="43.38632" lon="2.55625">
        <ele>728.34</ele>
        <time>2019-04-14T09:08:44Z</time>
      </trkpt>
      <trkpt lat="43.3864" lon="2.5562">
        <ele>729.3</ele>
        <time>2019-04-14T09:08:54Z</time>
      </trkpt>
      <trkpt lat="43.38647" lon="2.55617">
        <ele>731.22</ele>
        <time>2019-04-14T09:09:02Z</time>
      </trkpt>
      <trkpt lat="43.38653" lon="2.55615">
        <ele>732.66</ele>
        <time>2019-04-14T09:09:11Z</time>
      </trkpt>
      <trkpt lat="43.3866" lon="2.55611">
        <ele>734.58</ele>
        <time>2019-04-14T09:09:21Z</time>
      </trkpt>
      <trkpt lat="43.38664" lon="2.55609">
        <ele>736.03</ele>
        <time>2019-04-14T09:09:29Z</time>
      </trkpt>
      <trkpt lat="43.38675" lon="2.55606">
        <ele>738.91</ele>
        <time>2019-04-14T09:09:40Z</time>
      </trkpt>
      <trkpt lat="43.38681" lon="2.55602">
        <ele>740.83</ele>
        <time>2019-04-14T09:09:51Z</time>
      </trkpt>
      <trkpt lat="43.38687" lon="2.55601">
        <ele>742.76</ele>
        <time>2019-04-14T09:10:02Z</time>
      </trkpt>
      <trkpt lat="43.38691" lon="2.55598">
        <ele>745.16</ele>
        <time>2019-04-14T09:10:08Z</time>
      </trkpt>
      <trkpt lat="43.38695" lon="2.55595">
        <ele>746.12</ele>
        <time>2019-04-14T09:10:15Z</time>
      </trkpt>
      <trkpt lat="43.38698" lon="2.55593">
        <ele>747.56</ele>
        <time>2019-04-14T09:10:23Z</time>
      </trkpt>
      <trkpt lat="43.38697" lon="2.55592">
        <ele>746.6</ele>
        <time>2019-04-14T09:10:35Z</time>
      </trkpt>
      <trkpt lat="43.38699" lon="2.55592">
        <ele>746.6</ele>
        <time>2019-04-14T09:10:43Z</time>
      </trkpt>
      <trkpt lat="43.387" lon="2.55592">
        <ele>746.6</ele>
        <time>2019-04-14T09:10:56Z</time>
      </trkpt>
      <trkpt lat="43.38699" lon="2.55591">
        <ele>746.6</ele>
        <time>2019-04-14T09:11:06Z</time>
      </trkpt>
      <trkpt lat="43.38699" lon="2.5559">
        <ele>745.64</ele>
        <time>2019-04-14T09:11:24Z</time>
      </trkpt>
      <trkpt lat="43.38702" lon="2.5559">
        <ele>747.56</ele>
        <time>2019-04-14T09:11:38Z</time>
      </trkpt>
      <trkpt lat="43.38703" lon="2.5559">
        <ele>747.56</ele>
        <time>2019-04-14T09:11:39Z</time>
      </trkpt>
      <trkpt lat="43.38704" lon="2.55589">
        <ele>748.04</ele>
        <time>2019-04-14T09:11:48Z</time>
      </trkpt>
      <trkpt lat="43.38709" lon="2.55588">
        <ele>748.52</ele>
        <time>2019-04-14T09:11:56Z</time>
      </trkpt>
      <trkpt lat="43.38715" lon="2.55587">
        <ele>750.93</ele>
        <time>2019-04-14T09:12:06Z</time>
      </trkpt>
      <trkpt lat="43.38721" lon="2.55586">
        <ele>751.89</ele>
        <time>2019-04-14T09:12:15Z</time>
      </trkpt>
      <trkpt lat="43.38725" lon="2.55584">
        <ele>753.33</ele>
        <time>2019-04-14T09:12:23Z</time>
      </trkpt>
      <trkpt lat="43.38732" lon="2.55582">
        <ele>755.25</ele>
        <time>2019-04-14T09:12:34Z</time>
      </trkpt>
      <trkpt lat="43.38739" lon="2.55579">
        <ele>757.18</ele>
        <time>2019-04-14T09:12:43Z</time>
      </trkpt>
      <trkpt lat="43.38745" lon="2.55574">
        <ele>758.62</ele>
        <time>2019-04-14T09:12:53Z</time>
      </trkpt>
      <trkpt lat="43.38749" lon="2.55575">
        <ele>761.02</ele>
        <time>2019-04-14T09:13:03Z</time>
      </trkpt>
      <trkpt lat="43.38756" lon="2.55573">
        <ele>761.98</ele>
        <time>2019-04-14T09:13:11Z</time>
      </trkpt>
      <trkpt lat="43.38761" lon="2.55572">
        <ele>764.87</ele>
        <time>2019-04-14T09:13:19Z</time>
      </trkpt>
      <trkpt lat="43.38767" lon="2.5557">
        <ele>766.31</ele>
        <time>2019-04-14T09:13:28Z</time>
      </trkpt>
      <trkpt lat="43.38772" lon="2.55567">
        <ele>767.27</ele>
        <time>2019-04-14T09:13:37Z</time>
      </trkpt>
      <trkpt lat="43.38776" lon="2.55566">
        <ele>769.19</ele>
        <time>2019-04-14T09:13:44Z</time>
      </trkpt>
      <trkpt lat="43.38782" lon="2.55564">
        <ele>770.15</ele>
        <time>2019-04-14T09:13:54Z</time>
      </trkpt>
      <trkpt lat="43.38785" lon="2.5556">
        <ele>770.15</ele>
        <time>2019-04-14T09:14:03Z</time>
      </trkpt>
      <trkpt lat="43.38791" lon="2.55556">
        <ele>770.63</ele>
        <time>2019-04-14T09:14:11Z</time>
      </trkpt>
      <trkpt lat="43.38799" lon="2.55554">
        <ele>772.56</ele>
        <time>2019-04-14T09:14:19Z</time>
      </trkpt>
      <trkpt lat="43.38804" lon="2.55552">
        <ele>773.52</ele>
        <time>2019-04-14T09:14:27Z</time>
      </trkpt>
      <trkpt lat="43.38811" lon="2.5555">
        <ele>774.48</ele>
        <time>2019-04-14T09:14:35Z</time>
      </trkpt>
      <trkpt lat="43.38818" lon="2.55547">
        <ele>777.36</ele>
        <time>2019-04-14T09:14:44Z</time>
      </trkpt>
      <trkpt lat="43.38823" lon="2.55549">
        <ele>779.29</ele>
        <time>2019-04-14T09:14:52Z</time>
      </trkpt>
      <trkpt lat="43.38828" lon="2.55548">
        <ele>779.77</ele>
        <time>2019-04-14T09:14:58Z</time>
      </trkpt>
      <trkpt lat="43.38832" lon="2.55546">
        <ele>780.73</ele>
        <time>2019-04-14T09:15:07Z</time>
      </trkpt>
      <trkpt lat="43.38832" lon="2.55544">
        <ele>779.29</ele>
        <time>2019-04-14T09:15:12Z</time>
      </trkpt>
      <trkpt lat="43.38833" lon="2.55542">
        <ele>781.69</ele>
        <time>2019-04-14T09:15:18Z</time>
      </trkpt>
      <trkpt lat="43.38835" lon="2.55542">
        <ele>780.25</ele>
        <time>2019-04-14T09:15:28Z</time>
      </trkpt>
      <trkpt lat="43.38835" lon="2.55543">
        <ele>780.73</ele>
        <time>2019-04-14T09:15:39Z</time>
      </trkpt>
      <trkpt lat="43.38834" lon="2.55543">
        <ele>775.92</ele>
        <time>2019-04-14T09:15:43Z</time>
      </trkpt>
      <trkpt lat="43.38834" lon="2.55544">
        <ele>782.65</ele>
        <time>2019-04-14T09:15:44Z</time>
      </trkpt>
      <trkpt lat="43.38834" lon="2.55544">
        <ele>782.17</ele>
        <time>2019-04-14T09:15:45Z</time>
      </trkpt>
      <trkpt lat="43.38834" lon="2.55544">
        <ele>781.21</ele>
        <time>2019-04-14T09:15:47Z</time>
      </trkpt>
      <trkpt lat="43.38833" lon="2.55545">
        <ele>782.65</ele>
        <time>2019-04-14T09:15:49Z</time>
      </trkpt>
      <trkpt lat="43.38831" lon="2.55547">
        <ele>780.25</ele>
        <time>2019-04-14T09:15:56Z</time>
      </trkpt>
      <trkpt lat="43.38829" lon="2.55551">
        <ele>778.32</ele>
        <time>2019-04-14T09:16:06Z</time>
      </trkpt>
      <trkpt lat="43.38827" lon="2.55554">
        <ele>778.32</ele>
        <time>2019-04-14T09:16:13Z</time>
      </trkpt>
      <trkpt lat="43.38826" lon="2.55554">
        <ele>777.36</ele>
        <time>2019-04-14T09:16:23Z</time>
      </trkpt>
      <trkpt lat="43.38826" lon="2.55554">
        <ele>777.84</ele>
        <time>2019-04-14T09:16:39Z</time>
      </trkpt>
      <trkpt lat="43.38823" lon="2.55553">
        <ele>778.32</ele>
        <time>2019-04-14T09:16:57Z</time>
      </trkpt>
      <trkpt lat="43.38832" lon="2.55556">
        <ele>778.81</ele>
        <time>2019-04-14T09:17:05Z</time>
      </trkpt>
      <trkpt lat="43.38834" lon="2.55554">
        <ele>777.84</ele>
        <time>2019-04-14T09:17:14Z</time>
      </trkpt>
      <trkpt lat="43.38834" lon="2.55552">
        <ele>776.4</ele>
        <time>2019-04-14T09:17:24Z</time>
      </trkpt>
      <trkpt lat="43.38832" lon="2.55551">
        <ele>778.32</ele>
        <time>2019-04-14T09:17:34Z</time>
      </trkpt>
      <trkpt lat="43.38832" lon="2.55554">
        <ele>777.84</ele>
        <time>2019-04-14T09:17:50Z</time>
      </trkpt>
      <trkpt lat="43.38831" lon="2.55555">
        <ele>777.84</ele>
        <time>2019-04-14T09:18:08Z</time>
      </trkpt>
      <trkpt lat="43.38832" lon="2.55554">
        <ele>777.36</ele>
        <time>2019-04-14T09:18:22Z</time>
      </trkpt>
      <trkpt lat="43.38831" lon="2.55553">
        <ele>776.4</ele>
        <time>2019-04-14T09:18:40Z</time>
      </trkpt>
      <trkpt lat="43.38833" lon="2.55553">
        <ele>777.36</ele>
        <time>2019-04-14T09:18:56Z</time>
      </trkpt>
      <trkpt lat="43.38833" lon="2.55554">
        <ele>776.88</ele>
        <time>2019-04-14T09:18:58Z</time>
      </trkpt>
      <trkpt lat="43.38832" lon="2.55552">
        <ele>777.84</ele>
        <time>2019-04-14T09:19:04Z</time>
      </trkpt>
      <trkpt lat="43.38832" lon="2.5555">
        <ele>778.32</ele>
        <time>2019-04-14T09:19:12Z</time>
      </trkpt>
      <trkpt lat="43.38832" lon="2.55549">
        <ele>778.32</ele>
        <time>2019-04-14T09:19:25Z</time>
      </trkpt>
      <trkpt lat="43.38833" lon="2.55553">
        <ele>776.88</ele>
        <time>2019-04-14T09:19:32Z</time>
      </trkpt>
      <trkpt lat="43.38833" lon="2.55555">
        <ele>777.84</ele>
        <time>2019-04-14T09:19:42Z</time>
      </trkpt>
      <trkpt lat="43.38831" lon="2.55555">
        <ele>777.84</ele>
        <time>2019-04-14T09:19:55Z</time>
      </trkpt>
      <trkpt lat="43.38834" lon="2.55558">
        <ele>777.36</ele>
        <time>2019-04-14T09:20:03Z</time>
      </trkpt>
      <trkpt lat="43.3884" lon="2.55563">
        <ele>776.4</ele>
        <time>2019-04-14T09:20:10Z</time>
      </trkpt>
      <trkpt lat="43.38843" lon="2.55566">
        <ele>775.92</ele>
        <time>2019-04-14T09:20:15Z</time>
      </trkpt>
      <trkpt lat="43.38849" lon="2.5557">
        <ele>774.48</ele>
        <time>2019-04-14T09:20:21Z</time>
      </trkpt>
      <trkpt lat="43.38856" lon="2.55574">
        <ele>774.96</ele>
        <time>2019-04-14T09:20:27Z</time>
      </trkpt>
      <trkpt lat="43.38864" lon="2.55583">
        <ele>775.92</ele>
        <time>2019-04-14T09:20:37Z</time>
      </trkpt>
      <trkpt lat="43.38868" lon="2.55588">
        <ele>777.36</ele>
        <time>2019-04-14T09:20:45Z</time>
      </trkpt>
      <trkpt lat="43.38869" lon="2.55586">
        <ele>776.88</ele>
        <time>2019-04-14T09:20:57Z</time>
      </trkpt>
      <trkpt lat="43.38876" lon="2.55597">
        <ele>778.81</ele>
        <time>2019-04-14T09:21:08Z</time>
      </trkpt>
      <trkpt lat="43.38879" lon="2.55598">
        <ele>778.32</ele>
        <time>2019-04-14T09:21:17Z</time>
      </trkpt>
      <trkpt lat="43.38882" lon="2.55601">
        <ele>778.32</ele>
        <time>2019-04-14T09:21:25Z</time>
      </trkpt>
      <trkpt lat="43.38888" lon="2.5561">
        <ele>780.73</ele>
        <time>2019-04-14T09:21:34Z</time>
      </trkpt>
      <trkpt lat="43.3889" lon="2.55612">
        <ele>781.21</ele>
        <time>2019-04-14T09:21:36Z</time>
      </trkpt>
      <trkpt lat="43.38895" lon="2.5562">
        <ele>780.73</ele>
        <time>2019-04-14T09:21:44Z</time>
      </trkpt>
      <trkpt lat="43.38904" lon="2.5563">
        <ele>781.21</ele>
        <time>2019-04-14T09:21:54Z</time>
      </trkpt>
      <trkpt lat="43.3891" lon="2.55637">
        <ele>781.69</ele>
        <time>2019-04-14T09:22:01Z</time>
      </trkpt>
      <trkpt lat="43.38916" lon="2.55645">
        <ele>782.17</ele>
        <time>2019-04-14T09:22:09Z</time>
      </trkpt>
      <trkpt lat="43.3892" lon="2.55651">
        <ele>783.61</ele>
        <time>2019-04-14T09:22:17Z</time>
      </trkpt>
      <trkpt lat="43.38926" lon="2.55657">
        <ele>784.09</ele>
        <time>2019-04-14T09:22:25Z</time>
      </trkpt>
      <trkpt lat="43.38932" lon="2.55664">
        <ele>785.53</ele>
        <time>2019-04-14T09:22:34Z</time>
      </trkpt>
      <trkpt lat="43.38938" lon="2.5567">
        <ele>786.98</ele>
        <time>2019-04-14T09:22:43Z</time>
      </trkpt>
      <trkpt lat="43.38943" lon="2.55676">
        <ele>787.94</ele>
        <time>2019-04-14T09:22:52Z</time>
      </trkpt>
      <trkpt lat="43.38949" lon="2.55683">
        <ele>789.86</ele>
        <time>2019-04-14T09:23:01Z</time>
      </trkpt>
      <trkpt lat="43.38954" lon="2.55687">
        <ele>790.82</ele>
        <time>2019-04-14T09:23:09Z</time>
      </trkpt>
      <trkpt lat="43.38958" lon="2.55691">
        <ele>792.26</ele>
        <time>2019-04-14T09:23:16Z</time>
      </trkpt>
      <trkpt lat="43.38963" lon="2.55695">
        <ele>793.71</ele>
        <time>2019-04-14T09:23:25Z</time>
      </trkpt>
      <trkpt lat="43.38969" lon="2.55697">
        <ele>795.15</ele>
        <time>2019-04-14T09:23:35Z</time>
      </trkpt>
      <trkpt lat="43.38969" lon="2.55699">
        <ele>795.63</ele>
        <time>2019-04-14T09:23:44Z</time>
      </trkpt>
      <trkpt lat="43.38969" lon="2.55697">
        <ele>795.15</ele>
        <time>2019-04-14T09:24:01Z</time>
      </trkpt>
      <trkpt lat="43.38971" lon="2.557">
        <ele>795.15</ele>
        <time>2019-04-14T09:24:08Z</time>
      </trkpt>
      <trkpt lat="43.38976" lon="2.55706">
        <ele>795.15</ele>
        <time>2019-04-14T09:24:16Z</time>
      </trkpt>
      <trkpt lat="43.38982" lon="2.55716">
        <ele>794.19</ele>
        <time>2019-04-14T09:24:25Z</time>
      </trkpt>
      <trkpt lat="43.38988" lon="2.55725">
        <ele>793.71</ele>
        <time>2019-04-14T09:24:33Z</time>
      </trkpt>
      <trkpt lat="43.38991" lon="2.55728">
        <ele>793.22</ele>
        <time>2019-04-14T09:24:36Z</time>
      </trkpt>
      <trkpt lat="43.38993" lon="2.55728">
        <ele>792.74</ele>
        <time>2019-04-14T09:24:38Z</time>
      </trkpt>
      <trkpt lat="43.38994" lon="2.5573">
        <ele>791.78</ele>
        <time>2019-04-14T09:24:46Z</time>
      </trkpt>
      <trkpt lat="43.38993" lon="2.5573">
        <ele>792.74</ele>
        <time>2019-04-14T09:25:02Z</time>
      </trkpt>
      <trkpt lat="43.38994" lon="2.5573">
        <ele>792.74</ele>
        <time>2019-04-14T09:25:07Z</time>
      </trkpt>
      <trkpt lat="43.39003" lon="2.55739">
        <ele>791.3</ele>
        <time>2019-04-14T09:25:17Z</time>
      </trkpt>
      <trkpt lat="43.39012" lon="2.55744">
        <ele>789.86</ele>
        <time>2019-04-14T09:25:26Z</time>
      </trkpt>
      <trkpt lat="43.39023" lon="2.55753">
        <ele>788.42</ele>
        <time>2019-04-14T09:25:36Z</time>
      </trkpt>
      <trkpt lat="43.39033" lon="2.55761">
        <ele>787.94</ele>
        <time>2019-04-14T09:25:45Z</time>
      </trkpt>
      <trkpt lat="43.39042" lon="2.55769">
        <ele>786.02</ele>
        <time>2019-04-14T09:25:54Z</time>
      </trkpt>
      <trkpt lat="43.39045" lon="2.55771">
        <ele>786.02</ele>
        <time>2019-04-14T09:26:02Z</time>
      </trkpt>
      <trkpt lat="43.39053" lon="2.55775">
        <ele>786.5</ele>
        <time>2019-04-14T09:26:10Z</time>
      </trkpt>
      <trkpt lat="43.39061" lon="2.55781">
        <ele>786.5</ele>
        <time>2019-04-14T09:26:17Z</time>
      </trkpt>
      <trkpt lat="43.39071" lon="2.55785">
        <ele>786.02</ele>
        <time>2019-04-14T09:26:25Z</time>
      </trkpt>
      <trkpt lat="43.39076" lon="2.55791">
        <ele>787.46</ele>
        <time>2019-04-14T09:26:30Z</time>
      </trkpt>
      <trkpt lat="43.39085" lon="2.55796">
        <ele>787.94</ele>
        <time>2019-04-14T09:26:38Z</time>
      </trkpt>
      <trkpt lat="43.39093" lon="2.55801">
        <ele>789.38</ele>
        <time>2019-04-14T09:26:46Z</time>
      </trkpt>
      <trkpt lat="43.39099" lon="2.55806">
        <ele>790.82</ele>
        <time>2019-04-14T09:26:54Z</time>
      </trkpt>
      <trkpt lat="43.39107" lon="2.55811">
        <ele>791.78</ele>
        <time>2019-04-14T09:27:03Z</time>
      </trkpt>
      <trkpt lat="43.39116" lon="2.55817">
        <ele>793.22</ele>
        <time>2019-04-14T09:27:12Z</time>
      </trkpt>
      <trkpt lat="43.39119" lon="2.5582">
        <ele>793.71</ele>
        <time>2019-04-14T09:27:16Z</time>
      </trkpt>
      <trkpt lat="43.39125" lon="2.55823">
        <ele>793.71</ele>
        <time>2019-04-14T09:27:23Z</time>
      </trkpt>
      <trkpt lat="43.39127" lon="2.55824">
        <ele>793.71</ele>
        <time>2019-04-14T09:27:25Z</time>
      </trkpt>
      <trkpt lat="43.39129" lon="2.55826">
        <ele>795.15</ele>
        <time>2019-04-14T09:27:27Z</time>
      </trkpt>
      <trkpt lat="43.39135" lon="2.5583">
        <ele>795.63</ele>
        <time>2019-04-14T09:27:35Z</time>
      </trkpt>
      <trkpt lat="43.39142" lon="2.55832">
        <ele>796.59</ele>
        <time>2019-04-14T09:27:43Z</time>
      </trkpt>
      <trkpt lat="43.39148" lon="2.5584">
        <ele>797.55</ele>
        <time>2019-04-14T09:27:52Z</time>
      </trkpt>
      <trkpt lat="43.39151" lon="2.55841">
        <ele>798.03</ele>
        <time>2019-04-14T09:27:55Z</time>
      </trkpt>
      <trkpt lat="43.39158" lon="2.55846">
        <ele>798.99</ele>
        <time>2019-04-14T09:28:04Z</time>
      </trkpt>
      <trkpt lat="43.39163" lon="2.55851">
        <ele>800.44</ele>
        <time>2019-04-14T09:28:11Z</time>
      </trkpt>
      <trkpt lat="43.39166" lon="2.55854">
        <ele>801.4</ele>
        <time>2019-04-14T09:28:17Z</time>
      </trkpt>
      <trkpt lat="43.39171" lon="2.55858">
        <ele>803.8</ele>
        <time>2019-04-14T09:28:26Z</time>
      </trkpt>
      <trkpt lat="43.39176" lon="2.55861">
        <ele>803.8</ele>
        <time>2019-04-14T09:28:33Z</time>
      </trkpt>
      <trkpt lat="43.39182" lon="2.55864">
        <ele>806.2</ele>
        <time>2019-04-14T09:28:43Z</time>
      </trkpt>
      <trkpt lat="43.39186" lon="2.55867">
        <ele>806.68</ele>
        <time>2019-04-14T09:28:52Z</time>
      </trkpt>
      <trkpt lat="43.39191" lon="2.55871">
        <ele>809.57</ele>
        <time>2019-04-14T09:29:03Z</time>
      </trkpt>
      <trkpt lat="43.39195" lon="2.55875">
        <ele>810.53</ele>
        <time>2019-04-14T09:29:12Z</time>
      </trkpt>
      <trkpt lat="43.392" lon="2.55879">
        <ele>812.93</ele>
        <time>2019-04-14T09:29:19Z</time>
      </trkpt>
      <trkpt lat="43.39204" lon="2.55881">
        <ele>814.37</ele>
        <time>2019-04-14T09:29:26Z</time>
      </trkpt>
      <trkpt lat="43.39208" lon="2.55884">
        <ele>814.85</ele>
        <time>2019-04-14T09:29:35Z</time>
      </trkpt>
      <trkpt lat="43.39214" lon="2.55888">
        <ele>815.82</ele>
        <time>2019-04-14T09:29:45Z</time>
      </trkpt>
      <trkpt lat="43.39219" lon="2.55892">
        <ele>817.26</ele>
        <time>2019-04-14T09:29:54Z</time>
      </trkpt>
      <trkpt lat="43.39223" lon="2.55896">
        <ele>818.7</ele>
        <time>2019-04-14T09:30:01Z</time>
      </trkpt>
      <trkpt lat="43.39223" lon="2.55896">
        <ele>819.18</ele>
        <time>2019-04-14T09:30:02Z</time>
      </trkpt>
      <trkpt lat="43.39227" lon="2.55899">
        <ele>820.14</ele>
        <time>2019-04-14T09:30:09Z</time>
      </trkpt>
      <trkpt lat="43.3923" lon="2.55901">
        <ele>821.1</ele>
        <time>2019-04-14T09:30:16Z</time>
      </trkpt>
      <trkpt lat="43.39236" lon="2.55904">
        <ele>823.03</ele>
        <time>2019-04-14T09:30:25Z</time>
      </trkpt>
      <trkpt lat="43.3924" lon="2.55907">
        <ele>824.95</ele>
        <time>2019-04-14T09:30:34Z</time>
      </trkpt>
      <trkpt lat="43.39245" lon="2.5591">
        <ele>827.35</ele>
        <time>2019-04-14T09:30:42Z</time>
      </trkpt>
      <trkpt lat="43.39248" lon="2.55913">
        <ele>827.35</ele>
        <time>2019-04-14T09:30:49Z</time>
      </trkpt>
      <trkpt lat="43.39252" lon="2.55916">
        <ele>829.27</ele>
        <time>2019-04-14T09:30:59Z</time>
      </trkpt>
      <trkpt lat="43.39255" lon="2.55918">
        <ele>830.24</ele>
        <time>2019-04-14T09:31:07Z</time>
      </trkpt>
      <trkpt lat="43.3926" lon="2.55922">
        <ele>833.12</ele>
        <time>2019-04-14T09:31:17Z</time>
      </trkpt>
      <trkpt lat="43.39264" lon="2.55925">
        <ele>834.56</ele>
        <time>2019-04-14T09:31:26Z</time>
      </trkpt>
      <trkpt lat="43.39267" lon="2.55928">
        <ele>836.48</ele>
        <time>2019-04-14T09:31:34Z</time>
      </trkpt>
      <trkpt lat="43.39268" lon="2.55928">
        <ele>836.48</ele>
        <time>2019-04-14T09:31:35Z</time>
      </trkpt>
      <trkpt lat="43.39272" lon="2.55928">
        <ele>837.93</ele>
        <time>2019-04-14T09:31:44Z</time>
      </trkpt>
      <trkpt lat="43.39277" lon="2.55925">
        <ele>837.93</ele>
        <time>2019-04-14T09:32:02Z</time>
      </trkpt>
      <trkpt lat="43.39276" lon="2.55925">
        <ele>836.96</ele>
        <time>2019-04-14T09:32:18Z</time>
      </trkpt>
      <trkpt lat="43.39276" lon="2.55925">
        <ele>836.96</ele>
        <time>2019-04-14T09:32:41Z</time>
      </trkpt>
      <trkpt lat="43.39276" lon="2.55924">
        <ele>836.96</ele>
        <time>2019-04-14T09:32:53Z</time>
      </trkpt>
      <trkpt lat="43.39274" lon="2.55923">
        <ele>836.96</ele>
        <time>2019-04-14T09:33:07Z</time>
      </trkpt>
      <trkpt lat="43.39274" lon="2.55924">
        <ele>837.93</ele>
        <time>2019-04-14T09:33:24Z</time>
      </trkpt>
      <trkpt lat="43.39275" lon="2.55927">
        <ele>836.96</ele>
        <time>2019-04-14T09:33:34Z</time>
      </trkpt>
      <trkpt lat="43.3928" lon="2.55931">
        <ele>838.89</ele>
        <time>2019-04-14T09:33:43Z</time>
      </trkpt>
      <trkpt lat="43.39277" lon="2.5593">
        <ele>839.37</ele>
        <time>2019-04-14T09:33:52Z</time>
      </trkpt>
      <trkpt lat="43.39278" lon="2.55929">
        <ele>838.89</ele>
        <time>2019-04-14T09:34:05Z</time>
      </trkpt>
      <trkpt lat="43.3928" lon="2.55932">
        <ele>839.37</ele>
        <time>2019-04-14T09:34:21Z</time>
      </trkpt>
      <trkpt lat="43.39285" lon="2.55936">
        <ele>841.77</ele>
        <time>2019-04-14T09:34:30Z</time>
      </trkpt>
      <trkpt lat="43.3929" lon="2.5594">
        <ele>843.21</ele>
        <time>2019-04-14T09:34:38Z</time>
      </trkpt>
      <trkpt lat="43.39294" lon="2.55943">
        <ele>845.14</ele>
        <time>2019-04-14T09:34:45Z</time>
      </trkpt>
      <trkpt lat="43.39299" lon="2.55946">
        <ele>845.62</ele>
        <time>2019-04-14T09:34:53Z</time>
      </trkpt>
      <trkpt lat="43.39305" lon="2.5595">
        <ele>846.1</ele>
        <time>2019-04-14T09:35:03Z</time>
      </trkpt>
      <trkpt lat="43.39311" lon="2.55954">
        <ele>847.54</ele>
        <time>2019-04-14T09:35:11Z</time>
      </trkpt>
      <trkpt lat="43.39317" lon="2.55955">
        <ele>850.42</ele>
        <time>2019-04-14T09:35:19Z</time>
      </trkpt>
      <trkpt lat="43.3932" lon="2.55958">
        <ele>851.38</ele>
        <time>2019-04-14T09:35:25Z</time>
      </trkpt>
      <trkpt lat="43.39323" lon="2.55961">
        <ele>853.31</ele>
        <time>2019-04-14T09:35:33Z</time>
      </trkpt>
      <trkpt lat="43.39323" lon="2.5596">
        <ele>853.79</ele>
        <time>2019-04-14T09:35:42Z</time>
      </trkpt>
      <trkpt lat="43.39322" lon="2.5596">
        <ele>853.79</ele>
        <time>2019-04-14T09:35:55Z</time>
      </trkpt>
      <trkpt lat="43.39324" lon="2.55961">
        <ele>853.31</ele>
        <time>2019-04-14T09:36:08Z</time>
      </trkpt>
      <trkpt lat="43.39328" lon="2.55965">
        <ele>854.75</ele>
        <time>2019-04-14T09:36:15Z</time>
      </trkpt>
      <trkpt lat="43.39332" lon="2.5597">
        <ele>856.19</ele>
        <time>2019-04-14T09:36:23Z</time>
      </trkpt>
      <trkpt lat="43.39334" lon="2.55978">
        <ele>855.23</ele>
        <time>2019-04-14T09:36:32Z</time>
      </trkpt>
      <trkpt lat="43.39337" lon="2.55984">
        <ele>856.67</ele>
        <time>2019-04-14T09:36:42Z</time>
      </trkpt>
      <trkpt lat="43.39336" lon="2.55986">
        <ele>857.15</ele>
        <time>2019-04-14T09:36:49Z</time>
      </trkpt>
      <trkpt lat="43.39337" lon="2.55987">
        <ele>857.15</ele>
        <time>2019-04-14T09:37:01Z</time>
      </trkpt>
      <trkpt lat="43.39338" lon="2.5599">
        <ele>857.63</ele>
        <time>2019-04-14T09:37:09Z</time>
      </trkpt>
      <trkpt lat="43.39339" lon="2.55987">
        <ele>856.19</ele>
        <time>2019-04-14T09:37:18Z</time>
      </trkpt>
      <trkpt lat="43.39337" lon="2.55987">
        <ele>858.11</ele>
        <time>2019-04-14T09:37:32Z</time>
      </trkpt>
      <trkpt lat="43.39339" lon="2.55991">
        <ele>858.59</ele>
        <time>2019-04-14T09:37:41Z</time>
      </trkpt>
      <trkpt lat="43.39338" lon="2.55993">
        <ele>858.11</ele>
        <time>2019-04-14T09:37:48Z</time>
      </trkpt>
      <trkpt lat="43.39339" lon="2.55994">
        <ele>857.15</ele>
        <time>2019-04-14T09:38:01Z</time>
      </trkpt>
      <trkpt lat="43.39338" lon="2.55994">
        <ele>857.15</ele>
        <time>2019-04-14T09:38:19Z</time>
      </trkpt>
      <trkpt lat="43.39338" lon="2.55994">
        <ele>856.67</ele>
        <time>2019-04-14T09:38:31Z</time>
      </trkpt>
      <trkpt lat="43.3934" lon="2.55993">
        <ele>856.19</ele>
        <time>2019-04-14T09:38:50Z</time>
      </trkpt>
      <trkpt lat="43.3934" lon="2.55993">
        <ele>856.19</ele>
        <time>2019-04-14T09:39:00Z</time>
      </trkpt>
      <trkpt lat="43.39341" lon="2.55995">
        <ele>858.11</ele>
        <time>2019-04-14T09:39:11Z</time>
      </trkpt>
      <trkpt lat="43.39341" lon="2.55994">
        <ele>857.63</ele>
        <time>2019-04-14T09:39:23Z</time>
      </trkpt>
      <trkpt lat="43.39338" lon="2.55995">
        <ele>857.15</ele>
        <time>2019-04-14T09:39:33Z</time>
      </trkpt>
      <trkpt lat="43.3934" lon="2.56002">
        <ele>856.19</ele>
        <time>2019-04-14T09:39:43Z</time>
      </trkpt>
      <trkpt lat="43.39341" lon="2.56002">
        <ele>856.19</ele>
        <time>2019-04-14T09:39:49Z</time>
      </trkpt>
      <trkpt lat="43.39341" lon="2.55999">
        <ele>857.15</ele>
        <time>2019-04-14T09:39:56Z</time>
      </trkpt>
      <trkpt lat="43.39339" lon="2.55998">
        <ele>855.71</ele>
        <time>2019-04-14T09:40:01Z</time>
      </trkpt>
      <trkpt lat="43.39339" lon="2.55999">
        <ele>855.71</ele>
        <time>2019-04-14T09:40:08Z</time>
      </trkpt>
      <trkpt lat="43.39339" lon="2.55999">
        <ele>855.23</ele>
        <time>2019-04-14T09:40:22Z</time>
      </trkpt>
      <trkpt lat="43.39338" lon="2.55999">
        <ele>853.79</ele>
        <time>2019-04-14T09:40:33Z</time>
      </trkpt>
      <trkpt lat="43.39339" lon="2.56002">
        <ele>854.27</ele>
        <time>2019-04-14T09:40:41Z</time>
      </trkpt>
      <trkpt lat="43.3934" lon="2.55998">
        <ele>855.71</ele>
        <time>2019-04-14T09:40:49Z</time>
      </trkpt>
      <trkpt lat="43.3934" lon="2.55996">
        <ele>855.23</ele>
        <time>2019-04-14T09:40:51Z</time>
      </trkpt>
      <trkpt lat="43.39338" lon="2.55987">
        <ele>857.15</ele>
        <time>2019-04-14T09:40:58Z</time>
      </trkpt>
      <trkpt lat="43.39337" lon="2.55983">
        <ele>857.63</ele>
        <time>2019-04-14T09:41:02Z</time>
      </trkpt>
      <trkpt lat="43.39335" lon="2.55975">
        <ele>854.75</ele>
        <time>2019-04-14T09:41:11Z</time>
      </trkpt>
      <trkpt lat="43.39339" lon="2.55974">
        <ele>852.83</ele>
        <time>2019-04-14T09:41:17Z</time>
      </trkpt>
      <trkpt lat="43.39341" lon="2.55974">
        <ele>849.94</ele>
        <time>2019-04-14T09:41:21Z</time>
      </trkpt>
      <trkpt lat="43.39342" lon="2.55974">
        <ele>849.94</ele>
        <time>2019-04-14T09:41:22Z</time>
      </trkpt>
      <trkpt lat="43.39347" lon="2.55978">
        <ele>847.54</ele>
        <time>2019-04-14T09:41:29Z</time>
      </trkpt>
      <trkpt lat="43.39351" lon="2.55985">
        <ele>846.1</ele>
        <time>2019-04-14T09:41:38Z</time>
      </trkpt>
      <trkpt lat="43.39354" lon="2.55993">
        <ele>845.62</ele>
        <time>2019-04-14T09:41:46Z</time>
      </trkpt>
      <trkpt lat="43.39353" lon="2.55998">
        <ele>844.66</ele>
        <time>2019-04-14T09:41:55Z</time>
      </trkpt>
      <trkpt lat="43.39353" lon="2.55999">
        <ele>845.14</ele>
        <time>2019-04-14T09:42:07Z</time>
      </trkpt>
      <trkpt lat="43.39356" lon="2.56006">
        <ele>843.21</ele>
        <time>2019-04-14T09:42:14Z</time>
      </trkpt>
      <trkpt lat="43.39362" lon="2.56015">
        <ele>841.29</ele>
        <time>2019-04-14T09:42:23Z</time>
      </trkpt>
      <trkpt lat="43.39366" lon="2.56024">
        <ele>840.33</ele>
        <time>2019-04-14T09:42:32Z</time>
      </trkpt>
      <trkpt lat="43.39371" lon="2.56035">
        <ele>838.89</ele>
        <time>2019-04-14T09:42:42Z</time>
      </trkpt>
      <trkpt lat="43.39374" lon="2.56042">
        <ele>837.93</ele>
        <time>2019-04-14T09:42:50Z</time>
      </trkpt>
      <trkpt lat="43.39374" lon="2.56044">
        <ele>836.96</ele>
        <time>2019-04-14T09:42:52Z</time>
      </trkpt>
      <trkpt lat="43.39378" lon="2.56053">
        <ele>833.6</ele>
        <time>2019-04-14T09:43:01Z</time>
      </trkpt>
      <trkpt lat="43.39381" lon="2.56058">
        <ele>833.12</ele>
        <time>2019-04-14T09:43:05Z</time>
      </trkpt>
      <trkpt lat="43.39385" lon="2.56067">
        <ele>831.2</ele>
        <time>2019-04-14T09:43:14Z</time>
      </trkpt>
      <trkpt lat="43.39386" lon="2.56069">
        <ele>831.2</ele>
        <time>2019-04-14T09:43:16Z</time>
      </trkpt>
      <trkpt lat="43.39392" lon="2.56082">
        <ele>830.24</ele>
        <time>2019-04-14T09:43:27Z</time>
      </trkpt>
      <trkpt lat="43.39395" lon="2.56086">
        <ele>829.27</ele>
        <time>2019-04-14T09:43:31Z</time>
      </trkpt>
      <trkpt lat="43.39401" lon="2.56093">
        <ele>827.35</ele>
        <time>2019-04-14T09:43:39Z</time>
      </trkpt>
      <trkpt lat="43.39404" lon="2.56095">
        <ele>826.39</ele>
        <time>2019-04-14T09:43:41Z</time>
      </trkpt>
      <trkpt lat="43.39409" lon="2.56104">
        <ele>824.95</ele>
        <time>2019-04-14T09:43:50Z</time>
      </trkpt>
      <trkpt lat="43.39418" lon="2.56115">
        <ele>822.55</ele>
        <time>2019-04-14T09:44:02Z</time>
      </trkpt>
      <trkpt lat="43.3942" lon="2.56118">
        <ele>822.55</ele>
        <time>2019-04-14T09:44:05Z</time>
      </trkpt>
      <trkpt lat="43.39427" lon="2.56128">
        <ele>819.18</ele>
        <time>2019-04-14T09:44:16Z</time>
      </trkpt>
      <trkpt lat="43.3943" lon="2.56132">
        <ele>817.74</ele>
        <time>2019-04-14T09:44:24Z</time>
      </trkpt>
      <trkpt lat="43.3943" lon="2.5613">
        <ele>817.74</ele>
        <time>2019-04-14T09:44:41Z</time>
      </trkpt>
      <trkpt lat="43.3943" lon="2.5613">
        <ele>816.78</ele>
        <time>2019-04-14T09:44:57Z</time>
      </trkpt>
      <trkpt lat="43.39431" lon="2.5613">
        <ele>817.26</ele>
        <time>2019-04-14T09:45:15Z</time>
      </trkpt>
      <trkpt lat="43.39431" lon="2.56131">
        <ele>818.7</ele>
        <time>2019-04-14T09:45:22Z</time>
      </trkpt>
      <trkpt lat="43.39431" lon="2.56132">
        <ele>817.74</ele>
        <time>2019-04-14T09:45:38Z</time>
      </trkpt>
      <trkpt lat="43.39433" lon="2.56133">
        <ele>819.18</ele>
        <time>2019-04-14T09:45:58Z</time>
      </trkpt>
      <trkpt lat="43.39435" lon="2.56134">
        <ele>817.74</ele>
        <time>2019-04-14T09:46:06Z</time>
      </trkpt>
      <trkpt lat="43.39438" lon="2.5614">
        <ele>816.78</ele>
        <time>2019-04-14T09:46:15Z</time>
      </trkpt>
      <trkpt lat="43.39442" lon="2.56152">
        <ele>813.41</ele>
        <time>2019-04-14T09:46:26Z</time>
      </trkpt>
      <trkpt lat="43.39444" lon="2.56155">
        <ele>811.97</ele>
        <time>2019-04-14T09:46:29Z</time>
      </trkpt>
      <trkpt lat="43.39448" lon="2.56162">
        <ele>810.53</ele>
        <time>2019-04-14T09:46:36Z</time>
      </trkpt>
      <trkpt lat="43.39449" lon="2.56164">
        <ele>809.57</ele>
        <time>2019-04-14T09:46:42Z</time>
      </trkpt>
      <trkpt lat="43.39451" lon="2.5617">
        <ele>808.13</ele>
        <time>2019-04-14T09:46:46Z</time>
      </trkpt>
      <trkpt lat="43.39457" lon="2.56181">
        <ele>806.2</ele>
        <time>2019-04-14T09:46:55Z</time>
      </trkpt>
      <trkpt lat="43.39461" lon="2.56193">
        <ele>804.28</ele>
        <time>2019-04-14T09:47:04Z</time>
      </trkpt>
      <trkpt lat="43.39462" lon="2.56204">
        <ele>802.84</ele>
        <time>2019-04-14T09:47:12Z</time>
      </trkpt>
      <trkpt lat="43.39462" lon="2.56205">
        <ele>802.36</ele>
        <time>2019-04-14T09:47:13Z</time>
      </trkpt>
      <trkpt lat="43.39462" lon="2.56208">
        <ele>802.84</ele>
        <time>2019-04-14T09:47:16Z</time>
      </trkpt>
      <trkpt lat="43.39466" lon="2.5621">
        <ele>800.92</ele>
        <time>2019-04-14T09:47:23Z</time>
      </trkpt>
      <trkpt lat="43.39467" lon="2.56209">
        <ele>802.36</ele>
        <time>2019-04-14T09:47:33Z</time>
      </trkpt>
      <trkpt lat="43.39467" lon="2.5621">
        <ele>802.36</ele>
        <time>2019-04-14T09:47:44Z</time>
      </trkpt>
      <trkpt lat="43.39466" lon="2.56211">
        <ele>802.36</ele>
        <time>2019-04-14T09:47:54Z</time>
      </trkpt>
      <trkpt lat="43.39469" lon="2.56211">
        <ele>802.84</ele>
        <time>2019-04-14T09:47:59Z</time>
      </trkpt>
      <trkpt lat="43.39471" lon="2.56214">
        <ele>802.36</ele>
        <time>2019-04-14T09:48:06Z</time>
      </trkpt>
      <trkpt lat="43.39474" lon="2.56218">
        <ele>801.88</ele>
        <time>2019-04-14T09:48:12Z</time>
      </trkpt>
      <trkpt lat="43.3948" lon="2.56223">
        <ele>803.32</ele>
        <time>2019-04-14T09:48:21Z</time>
      </trkpt>
      <trkpt lat="43.39481" lon="2.56223">
        <ele>803.32</ele>
        <time>2019-04-14T09:48:25Z</time>
      </trkpt>
      <trkpt lat="43.39485" lon="2.56229">
        <ele>803.8</ele>
        <time>2019-04-14T09:48:32Z</time>
      </trkpt>
      <trkpt lat="43.39486" lon="2.56232">
        <ele>805.24</ele>
        <time>2019-04-14T09:48:35Z</time>
      </trkpt>
      <trkpt lat="43.3949" lon="2.56237">
        <ele>806.2</ele>
        <time>2019-04-14T09:48:42Z</time>
      </trkpt>
      <trkpt lat="43.39494" lon="2.56241">
        <ele>806.68</ele>
        <time>2019-04-14T09:48:48Z</time>
      </trkpt>
      <trkpt lat="43.39497" lon="2.56246">
        <ele>808.61</ele>
        <time>2019-04-14T09:48:54Z</time>
      </trkpt>
      <trkpt lat="43.39504" lon="2.56252">
        <ele>809.57</ele>
        <time>2019-04-14T09:49:02Z</time>
      </trkpt>
      <trkpt lat="43.39509" lon="2.5626">
        <ele>809.57</ele>
        <time>2019-04-14T09:49:10Z</time>
      </trkpt>
      <trkpt lat="43.39514" lon="2.56267">
        <ele>811.49</ele>
        <time>2019-04-14T09:49:18Z</time>
      </trkpt>
      <trkpt lat="43.39518" lon="2.56273">
        <ele>811.49</ele>
        <time>2019-04-14T09:49:26Z</time>
      </trkpt>
      <trkpt lat="43.3952" lon="2.56276">
        <ele>813.41</ele>
        <time>2019-04-14T09:49:33Z</time>
      </trkpt>
      <trkpt lat="43.39522" lon="2.5628">
        <ele>813.89</ele>
        <time>2019-04-14T09:49:41Z</time>
      </trkpt>
      <trkpt lat="43.39524" lon="2.56282">
        <ele>816.3</ele>
        <time>2019-04-14T09:49:47Z</time>
      </trkpt>
      <trkpt lat="43.39527" lon="2.56285">
        <ele>816.78</ele>
        <time>2019-04-14T09:49:54Z</time>
      </trkpt>
      <trkpt lat="43.39533" lon="2.56289">
        <ele>818.22</ele>
        <time>2019-04-14T09:50:02Z</time>
      </trkpt>
      <trkpt lat="43.39539" lon="2.56297">
        <ele>818.7</ele>
        <time>2019-04-14T09:50:10Z</time>
      </trkpt>
      <trkpt lat="43.39543" lon="2.56301">
        <ele>819.66</ele>
        <time>2019-04-14T09:50:18Z</time>
      </trkpt>
      <trkpt lat="43.39546" lon="2.56306">
        <ele>822.55</ele>
        <time>2019-04-14T09:50:27Z</time>
      </trkpt>
      <trkpt lat="43.3955" lon="2.5631">
        <ele>823.51</ele>
        <time>2019-04-14T09:50:34Z</time>
      </trkpt>
      <trkpt lat="43.39553" lon="2.56311">
        <ele>824.47</ele>
        <time>2019-04-14T09:50:40Z</time>
      </trkpt>
      <trkpt lat="43.39558" lon="2.56316">
        <ele>824.95</ele>
        <time>2019-04-14T09:50:47Z</time>
      </trkpt>
      <trkpt lat="43.3956" lon="2.56318">
        <ele>826.39</ele>
        <time>2019-04-14T09:50:50Z</time>
      </trkpt>
      <trkpt lat="43.39563" lon="2.56324">
        <ele>827.35</ele>
        <time>2019-04-14T09:50:58Z</time>
      </trkpt>
      <trkpt lat="43.39566" lon="2.56329">
        <ele>828.31</ele>
        <time>2019-04-14T09:51:06Z</time>
      </trkpt>
      <trkpt lat="43.39571" lon="2.56334">
        <ele>830.24</ele>
        <time>2019-04-14T09:51:14Z</time>
      </trkpt>
      <trkpt lat="43.39577" lon="2.56339">
        <ele>831.2</ele>
        <time>2019-04-14T09:51:22Z</time>
      </trkpt>
      <trkpt lat="43.39578" lon="2.5634">
        <ele>832.64</ele>
        <time>2019-04-14T09:51:24Z</time>
      </trkpt>
      <trkpt lat="43.39583" lon="2.56346">
        <ele>834.56</ele>
        <time>2019-04-14T09:51:33Z</time>
      </trkpt>
      <trkpt lat="43.39587" lon="2.5635">
        <ele>835.52</ele>
        <time>2019-04-14T09:51:42Z</time>
      </trkpt>
      <trkpt lat="43.3959" lon="2.56354">
        <ele>837.45</ele>
        <time>2019-04-14T09:51:50Z</time>
      </trkpt>
      <trkpt lat="43.39592" lon="2.56359">
        <ele>837.93</ele>
        <time>2019-04-14T09:51:57Z</time>
      </trkpt>
      <trkpt lat="43.39594" lon="2.56364">
        <ele>839.85</ele>
        <time>2019-04-14T09:52:05Z</time>
      </trkpt>
      <trkpt lat="43.39595" lon="2.5637">
        <ele>840.81</ele>
        <time>2019-04-14T09:52:14Z</time>
      </trkpt>
      <trkpt lat="43.39593" lon="2.56376">
        <ele>842.25</ele>
        <time>2019-04-14T09:52:21Z</time>
      </trkpt>
      <trkpt lat="43.39588" lon="2.56383">
        <ele>843.21</ele>
        <time>2019-04-14T09:52:30Z</time>
      </trkpt>
      <trkpt lat="43.39587" lon="2.56392">
        <ele>844.18</ele>
        <time>2019-04-14T09:52:38Z</time>
      </trkpt>
      <trkpt lat="43.39588" lon="2.56395">
        <ele>844.18</ele>
        <time>2019-04-14T09:52:46Z</time>
      </trkpt>
      <trkpt lat="43.39589" lon="2.56401">
        <ele>845.62</ele>
        <time>2019-04-14T09:52:55Z</time>
      </trkpt>
      <trkpt lat="43.39589" lon="2.56401">
        <ele>845.14</ele>
        <time>2019-04-14T09:53:04Z</time>
      </trkpt>
      <trkpt lat="43.39592" lon="2.56403">
        <ele>845.14</ele>
        <time>2019-04-14T09:53:18Z</time>
      </trkpt>
      <trkpt lat="43.39596" lon="2.56402">
        <ele>844.66</ele>
        <time>2019-04-14T09:53:33Z</time>
      </trkpt>
      <trkpt lat="43.39594" lon="2.56397">
        <ele>844.18</ele>
        <time>2019-04-14T09:53:47Z</time>
      </trkpt>
      <trkpt lat="43.39593" lon="2.56399">
        <ele>845.14</ele>
        <time>2019-04-14T09:53:58Z</time>
      </trkpt>
      <trkpt lat="43.39591" lon="2.564">
        <ele>845.14</ele>
        <time>2019-04-14T09:54:11Z</time>
      </trkpt>
      <trkpt lat="43.39589" lon="2.56403">
        <ele>845.62</ele>
        <time>2019-04-14T09:54:28Z</time>
      </trkpt>
      <trkpt lat="43.39589" lon="2.56404">
        <ele>845.62</ele>
        <time>2019-04-14T09:54:48Z</time>
      </trkpt>
      <trkpt lat="43.39591" lon="2.564">
        <ele>845.14</ele>
        <time>2019-04-14T09:55:01Z</time>
      </trkpt>
      <trkpt lat="43.39589" lon="2.56402">
        <ele>845.62</ele>
        <time>2019-04-14T09:55:22Z</time>
      </trkpt>
      <trkpt lat="43.39593" lon="2.56398">
        <ele>846.1</ele>
        <time>2019-04-14T09:55:40Z</time>
      </trkpt>
      <trkpt lat="43.39593" lon="2.56395">
        <ele>845.14</ele>
        <time>2019-04-14T09:55:57Z</time>
      </trkpt>
      <trkpt lat="43.39593" lon="2.56397">
        <ele>845.62</ele>
        <time>2019-04-14T09:56:13Z</time>
      </trkpt>
      <trkpt lat="43.39593" lon="2.56397">
        <ele>845.62</ele>
        <time>2019-04-14T09:56:25Z</time>
      </trkpt>
      <trkpt lat="43.39596" lon="2.56396">
        <ele>846.1</ele>
        <time>2019-04-14T09:56:33Z</time>
      </trkpt>
      <trkpt lat="43.396" lon="2.56394">
        <ele>847.06</ele>
        <time>2019-04-14T09:56:42Z</time>
      </trkpt>
      <trkpt lat="43.39604" lon="2.56391">
        <ele>847.54</ele>
        <time>2019-04-14T09:56:50Z</time>
      </trkpt>
      <trkpt lat="43.39609" lon="2.56387">
        <ele>848.98</ele>
        <time>2019-04-14T09:56:59Z</time>
      </trkpt>
      <trkpt lat="43.39615" lon="2.56387">
        <ele>850.42</ele>
        <time>2019-04-14T09:57:09Z</time>
      </trkpt>
      <trkpt lat="43.39617" lon="2.56389">
        <ele>850.42</ele>
        <time>2019-04-14T09:57:17Z</time>
      </trkpt>
      <trkpt lat="43.39619" lon="2.56393">
        <ele>853.31</ele>
        <time>2019-04-14T09:57:27Z</time>
      </trkpt>
      <trkpt lat="43.39624" lon="2.56398">
        <ele>854.27</ele>
        <time>2019-04-14T09:57:37Z</time>
      </trkpt>
      <trkpt lat="43.39627" lon="2.56403">
        <ele>857.15</ele>
        <time>2019-04-14T09:57:45Z</time>
      </trkpt>
      <trkpt lat="43.39628" lon="2.56403">
        <ele>857.15</ele>
        <time>2019-04-14T09:57:46Z</time>
      </trkpt>
      <trkpt lat="43.39632" lon="2.56408">
        <ele>859.08</ele>
        <time>2019-04-14T09:57:55Z</time>
      </trkpt>
      <trkpt lat="43.39635" lon="2.56413">
        <ele>860.52</ele>
        <time>2019-04-14T09:58:03Z</time>
      </trkpt>
      <trkpt lat="43.39638" lon="2.56415">
        <ele>861</ele>
        <time>2019-04-14T09:58:12Z</time>
      </trkpt>
      <trkpt lat="43.3964" lon="2.56419">
        <ele>861.96</ele>
        <time>2019-04-14T09:58:22Z</time>
      </trkpt>
      <trkpt lat="43.39644" lon="2.56423">
        <ele>864.84</ele>
        <time>2019-04-14T09:58:31Z</time>
      </trkpt>
      <trkpt lat="43.39644" lon="2.56424">
        <ele>865.32</ele>
        <time>2019-04-14T09:58:32Z</time>
      </trkpt>
      <trkpt lat="43.39646" lon="2.56427">
        <ele>866.77</ele>
        <time>2019-04-14T09:58:40Z</time>
      </trkpt>
      <trkpt lat="43.39648" lon="2.56429">
        <ele>867.25</ele>
        <time>2019-04-14T09:58:47Z</time>
      </trkpt>
      <trkpt lat="43.39652" lon="2.56434">
        <ele>869.17</ele>
        <time>2019-04-14T09:58:55Z</time>
      </trkpt>
      <trkpt lat="43.39656" lon="2.56439">
        <ele>871.57</ele>
        <time>2019-04-14T09:59:07Z</time>
      </trkpt>
      <trkpt lat="43.39656" lon="2.56439">
        <ele>871.57</ele>
        <time>2019-04-14T09:59:08Z</time>
      </trkpt>
      <trkpt lat="43.39659" lon="2.56443">
        <ele>871.57</ele>
        <time>2019-04-14T09:59:15Z</time>
      </trkpt>
      <trkpt lat="43.3966" lon="2.56444">
        <ele>873.5</ele>
        <time>2019-04-14T09:59:24Z</time>
      </trkpt>
      <trkpt lat="43.39663" lon="2.56445">
        <ele>877.34</ele>
        <time>2019-04-14T09:59:33Z</time>
      </trkpt>
      <trkpt lat="43.39667" lon="2.56445">
        <ele>876.38</ele>
        <time>2019-04-14T09:59:41Z</time>
      </trkpt>
      <trkpt lat="43.39669" lon="2.56448">
        <ele>877.34</ele>
        <time>2019-04-14T09:59:50Z</time>
      </trkpt>
      <trkpt lat="43.39672" lon="2.56449">
        <ele>879.74</ele>
        <time>2019-04-14T10:00:00Z</time>
      </trkpt>
      <trkpt lat="43.39673" lon="2.56449">
        <ele>882.15</ele>
        <time>2019-04-14T10:00:11Z</time>
      </trkpt>
      <trkpt lat="43.39677" lon="2.56454">
        <ele>883.11</ele>
        <time>2019-04-14T10:00:20Z</time>
      </trkpt>
      <trkpt lat="43.39681" lon="2.56455">
        <ele>883.59</ele>
        <time>2019-04-14T10:00:29Z</time>
      </trkpt>
      <trkpt lat="43.3968" lon="2.56453">
        <ele>883.59</ele>
        <time>2019-04-14T10:00:38Z</time>
      </trkpt>
      <trkpt lat="43.39681" lon="2.56455">
        <ele>884.55</ele>
        <time>2019-04-14T10:00:56Z</time>
      </trkpt>
      <trkpt lat="43.39684" lon="2.56458">
        <ele>885.99</ele>
        <time>2019-04-14T10:01:07Z</time>
      </trkpt>
      <trkpt lat="43.39687" lon="2.56461">
        <ele>887.43</ele>
        <time>2019-04-14T10:01:17Z</time>
      </trkpt>
      <trkpt lat="43.39687" lon="2.5646">
        <ele>887.91</ele>
        <time>2019-04-14T10:01:29Z</time>
      </trkpt>
      <trkpt lat="43.39685" lon="2.56462">
        <ele>888.88</ele>
        <time>2019-04-14T10:01:41Z</time>
      </trkpt>
      <trkpt lat="43.39682" lon="2.56464">
        <ele>889.36</ele>
        <time>2019-04-14T10:01:47Z</time>
      </trkpt>
      <trkpt lat="43.3968" lon="2.56466">
        <ele>890.8</ele>
        <time>2019-04-14T10:01:50Z</time>
      </trkpt>
      <trkpt lat="43.39678" lon="2.56467">
        <ele>890.8</ele>
        <time>2019-04-14T10:01:59Z</time>
      </trkpt>
      <trkpt lat="43.39676" lon="2.56472">
        <ele>890.8</ele>
        <time>2019-04-14T10:02:06Z</time>
      </trkpt>
      <trkpt lat="43.39676" lon="2.56478">
        <ele>892.24</ele>
        <time>2019-04-14T10:02:13Z</time>
      </trkpt>
      <trkpt lat="43.39677" lon="2.56483">
        <ele>893.2</ele>
        <time>2019-04-14T10:02:22Z</time>
      </trkpt>
      <trkpt lat="43.39676" lon="2.56489">
        <ele>894.16</ele>
        <time>2019-04-14T10:02:31Z</time>
      </trkpt>
      <trkpt lat="43.39675" lon="2.56496">
        <ele>894.64</ele>
        <time>2019-04-14T10:02:39Z</time>
      </trkpt>
      <trkpt lat="43.39673" lon="2.56504">
        <ele>896.57</ele>
        <time>2019-04-14T10:02:46Z</time>
      </trkpt>
      <trkpt lat="43.39672" lon="2.56506">
        <ele>896.57</ele>
        <time>2019-04-14T10:02:48Z</time>
      </trkpt>
      <trkpt lat="43.39675" lon="2.56516">
        <ele>896.09</ele>
        <time>2019-04-14T10:02:57Z</time>
      </trkpt>
      <trkpt lat="43.39677" lon="2.56521">
        <ele>897.05</ele>
        <time>2019-04-14T10:03:06Z</time>
      </trkpt>
      <trkpt lat="43.39679" lon="2.5652">
        <ele>896.57</ele>
        <time>2019-04-14T10:03:21Z</time>
      </trkpt>
      <trkpt lat="43.39678" lon="2.56525">
        <ele>896.57</ele>
        <time>2019-04-14T10:03:30Z</time>
      </trkpt>
      <trkpt lat="43.39676" lon="2.56523">
        <ele>897.05</ele>
        <time>2019-04-14T10:03:40Z</time>
      </trkpt>
      <trkpt lat="43.39678" lon="2.56523">
        <ele>897.53</ele>
        <time>2019-04-14T10:03:52Z</time>
      </trkpt>
      <trkpt lat="43.39681" lon="2.56525">
        <ele>897.53</ele>
        <time>2019-04-14T10:04:04Z</time>
      </trkpt>
      <trkpt lat="43.3968" lon="2.56524">
        <ele>897.05</ele>
        <time>2019-04-14T10:04:11Z</time>
      </trkpt>
      <trkpt lat="43.39679" lon="2.56525">
        <ele>896.57</ele>
        <time>2019-04-14T10:04:27Z</time>
      </trkpt>
      <trkpt lat="43.39679" lon="2.56526">
        <ele>897.05</ele>
        <time>2019-04-14T10:04:43Z</time>
      </trkpt>
      <trkpt lat="43.39679" lon="2.56526">
        <ele>896.57</ele>
        <time>2019-04-14T10:04:56Z</time>
      </trkpt>
      <trkpt lat="43.39678" lon="2.56526">
        <ele>896.57</ele>
        <time>2019-04-14T10:05:06Z</time>
      </trkpt>
      <trkpt lat="43.39678" lon="2.56527">
        <ele>896.57</ele>
        <time>2019-04-14T10:05:15Z</time>
      </trkpt>
      <trkpt lat="43.3968" lon="2.56527">
        <ele>896.57</ele>
        <time>2019-04-14T10:05:33Z</time>
      </trkpt>
      <trkpt lat="43.39678" lon="2.56527">
        <ele>896.57</ele>
        <time>2019-04-14T10:05:49Z</time>
      </trkpt>
      <trkpt lat="43.39677" lon="2.56528">
        <ele>897.05</ele>
        <time>2019-04-14T10:06:00Z</time>
      </trkpt>
      <trkpt lat="43.39676" lon="2.56528">
        <ele>897.53</ele>
        <time>2019-04-14T10:06:13Z</time>
      </trkpt>
      <trkpt lat="43.39677" lon="2.56526">
        <ele>897.05</ele>
        <time>2019-04-14T10:06:25Z</time>
      </trkpt>
      <trkpt lat="43.39678" lon="2.56527">
        <ele>896.57</ele>
        <time>2019-04-14T10:06:42Z</time>
      </trkpt>
      <trkpt lat="43.39679" lon="2.56526">
        <ele>897.05</ele>
        <time>2019-04-14T10:06:51Z</time>
      </trkpt>
      <trkpt lat="43.39677" lon="2.56527">
        <ele>897.53</ele>
        <time>2019-04-14T10:07:06Z</time>
      </trkpt>
      <trkpt lat="43.39677" lon="2.56527">
        <ele>897.05</ele>
        <time>2019-04-14T10:07:19Z</time>
      </trkpt>
      <trkpt lat="43.39677" lon="2.56528">
        <ele>897.05</ele>
        <time>2019-04-14T10:07:34Z</time>
      </trkpt>
      <trkpt lat="43.39677" lon="2.56527">
        <ele>897.05</ele>
        <time>2019-04-14T10:07:48Z</time>
      </trkpt>
      <trkpt lat="43.39678" lon="2.56525">
        <ele>896.57</ele>
        <time>2019-04-14T10:08:05Z</time>
      </trkpt>
      <trkpt lat="43.39677" lon="2.56524">
        <ele>897.05</ele>
        <time>2019-04-14T10:08:18Z</time>
      </trkpt>
      <trkpt lat="43.39677" lon="2.56525">
        <ele>897.53</ele>
        <time>2019-04-14T10:08:32Z</time>
      </trkpt>
      <trkpt lat="43.39676" lon="2.56524">
        <ele>897.53</ele>
        <time>2019-04-14T10:08:48Z</time>
      </trkpt>
      <trkpt lat="43.39676" lon="2.56523">
        <ele>898.01</ele>
        <time>2019-04-14T10:09:06Z</time>
      </trkpt>
      <trkpt lat="43.39677" lon="2.56525">
        <ele>898.01</ele>
        <time>2019-04-14T10:09:23Z</time>
      </trkpt>
      <trkpt lat="43.39677" lon="2.56524">
        <ele>897.53</ele>
        <time>2019-04-14T10:09:44Z</time>
      </trkpt>
      <trkpt lat="43.39677" lon="2.56526">
        <ele>898.01</ele>
        <time>2019-04-14T10:10:04Z</time>
      </trkpt>
      <trkpt lat="43.39678" lon="2.56529">
        <ele>898.01</ele>
        <time>2019-04-14T10:10:19Z</time>
      </trkpt>
      <trkpt lat="43.39677" lon="2.56528">
        <ele>897.53</ele>
        <time>2019-04-14T10:10:34Z</time>
      </trkpt>
      <trkpt lat="43.39678" lon="2.56526">
        <ele>898.01</ele>
        <time>2019-04-14T10:10:54Z</time>
      </trkpt>
      <trkpt lat="43.39678" lon="2.56524">
        <ele>898.01</ele>
        <time>2019-04-14T10:11:11Z</time>
      </trkpt>
      <trkpt lat="43.39677" lon="2.56526">
        <ele>898.01</ele>
        <time>2019-04-14T10:11:31Z</time>
      </trkpt>
      <trkpt lat="43.39678" lon="2.56528">
        <ele>898.01</ele>
        <time>2019-04-14T10:11:46Z</time>
      </trkpt>
      <trkpt lat="43.39675" lon="2.56527">
        <ele>898.01</ele>
        <time>2019-04-14T10:12:06Z</time>
      </trkpt>
      <trkpt lat="43.39675" lon="2.56528">
        <ele>897.05</ele>
        <time>2019-04-14T10:12:22Z</time>
      </trkpt>
      <trkpt lat="43.39676" lon="2.56526">
        <ele>898.49</ele>
        <time>2019-04-14T10:12:34Z</time>
      </trkpt>
      <trkpt lat="43.39678" lon="2.56526">
        <ele>898.01</ele>
        <time>2019-04-14T10:12:55Z</time>
      </trkpt>
      <trkpt lat="43.3968" lon="2.56526">
        <ele>897.53</ele>
        <time>2019-04-14T10:13:13Z</time>
      </trkpt>
      <trkpt lat="43.39679" lon="2.56528">
        <ele>897.53</ele>
        <time>2019-04-14T10:13:29Z</time>
      </trkpt>
      <trkpt lat="43.39676" lon="2.56528">
        <ele>897.05</ele>
        <time>2019-04-14T10:13:45Z</time>
      </trkpt>
      <trkpt lat="43.39675" lon="2.56527">
        <ele>897.53</ele>
        <time>2019-04-14T10:14:05Z</time>
      </trkpt>
      <trkpt lat="43.39677" lon="2.56527">
        <ele>898.01</ele>
        <time>2019-04-14T10:14:24Z</time>
      </trkpt>
      <trkpt lat="43.39677" lon="2.56531">
        <ele>897.53</ele>
        <time>2019-04-14T10:14:40Z</time>
      </trkpt>
      <trkpt lat="43.39679" lon="2.56532">
        <ele>898.01</ele>
        <time>2019-04-14T10:14:57Z</time>
      </trkpt>
      <trkpt lat="43.39676" lon="2.56531">
        <ele>898.49</ele>
        <time>2019-04-14T10:15:16Z</time>
      </trkpt>
      <trkpt lat="43.39676" lon="2.56533">
        <ele>898.97</ele>
        <time>2019-04-14T10:15:41Z</time>
      </trkpt>
      <trkpt lat="43.39677" lon="2.56529">
        <ele>898.49</ele>
        <time>2019-04-14T10:15:56Z</time>
      </trkpt>
      <trkpt lat="43.39676" lon="2.56527">
        <ele>898.97</ele>
        <time>2019-04-14T10:16:15Z</time>
      </trkpt>
      <trkpt lat="43.39676" lon="2.56527">
        <ele>899.45</ele>
        <time>2019-04-14T10:16:34Z</time>
      </trkpt>
      <trkpt lat="43.39677" lon="2.56528">
        <ele>898.97</ele>
        <time>2019-04-14T10:16:53Z</time>
      </trkpt>
      <trkpt lat="43.39676" lon="2.56529">
        <ele>899.45</ele>
        <time>2019-04-14T10:17:14Z</time>
      </trkpt>
      <trkpt lat="43.39676" lon="2.5653">
        <ele>899.93</ele>
        <time>2019-04-14T10:17:32Z</time>
      </trkpt>
      <trkpt lat="43.39677" lon="2.56527">
        <ele>899.45</ele>
        <time>2019-04-14T10:17:49Z</time>
      </trkpt>
      <trkpt lat="43.39678" lon="2.56525">
        <ele>899.93</ele>
        <time>2019-04-14T10:18:08Z</time>
      </trkpt>
      <trkpt lat="43.39679" lon="2.56524">
        <ele>899.45</ele>
        <time>2019-04-14T10:18:30Z</time>
      </trkpt>
      <trkpt lat="43.39678" lon="2.56525">
        <ele>898.97</ele>
        <time>2019-04-14T10:18:56Z</time>
      </trkpt>
      <trkpt lat="43.39679" lon="2.56526">
        <ele>899.93</ele>
        <time>2019-04-14T10:19:16Z</time>
      </trkpt>
      <trkpt lat="43.39679" lon="2.56526">
        <ele>899.45</ele>
        <time>2019-04-14T10:19:32Z</time>
      </trkpt>
      <trkpt lat="43.3968" lon="2.56526">
        <ele>899.45</ele>
        <time>2019-04-14T10:19:54Z</time>
      </trkpt>
      <trkpt lat="43.39676" lon="2.56527">
        <ele>898.49</ele>
        <time>2019-04-14T10:20:14Z</time>
      </trkpt>
      <trkpt lat="43.39678" lon="2.56531">
        <ele>898.97</ele>
        <time>2019-04-14T10:20:36Z</time>
      </trkpt>
      <trkpt lat="43.39677" lon="2.56531">
        <ele>899.45</ele>
        <time>2019-04-14T10:20:48Z</time>
      </trkpt>
      <trkpt lat="43.39677" lon="2.56531">
        <ele>898.97</ele>
        <time>2019-04-14T10:21:05Z</time>
      </trkpt>
      <trkpt lat="43.39676" lon="2.56528">
        <ele>899.93</ele>
        <time>2019-04-14T10:21:29Z</time>
      </trkpt>
      <trkpt lat="43.39678" lon="2.56528">
        <ele>899.93</ele>
        <time>2019-04-14T10:21:49Z</time>
      </trkpt>
      <trkpt lat="43.39678" lon="2.56533">
        <ele>899.93</ele>
        <time>2019-04-14T10:22:16Z</time>
      </trkpt>
      <trkpt lat="43.39678" lon="2.56533">
        <ele>899.93</ele>
        <time>2019-04-14T10:22:40Z</time>
      </trkpt>
      <trkpt lat="43.39676" lon="2.56535">
        <ele>900.41</ele>
        <time>2019-04-14T10:23:04Z</time>
      </trkpt>
      <trkpt lat="43.39677" lon="2.56537">
        <ele>899.93</ele>
        <time>2019-04-14T10:23:22Z</time>
      </trkpt>
      <trkpt lat="43.39676" lon="2.56539">
        <ele>900.41</ele>
        <time>2019-04-14T10:23:43Z</time>
      </trkpt>
      <trkpt lat="43.39676" lon="2.56535">
        <ele>900.41</ele>
        <time>2019-04-14T10:24:01Z</time>
      </trkpt>
      <trkpt lat="43.39675" lon="2.56532">
        <ele>900.41</ele>
        <time>2019-04-14T10:24:18Z</time>
      </trkpt>
      <trkpt lat="43.39675" lon="2.56528">
        <ele>899.93</ele>
        <time>2019-04-14T10:24:33Z</time>
      </trkpt>
      <trkpt lat="43.39675" lon="2.56528">
        <ele>900.89</ele>
        <time>2019-04-14T10:24:49Z</time>
      </trkpt>
      <trkpt lat="43.39677" lon="2.56531">
        <ele>900.89</ele>
        <time>2019-04-14T10:25:05Z</time>
      </trkpt>
      <trkpt lat="43.39676" lon="2.56533">
        <ele>900.41</ele>
        <time>2019-04-14T10:25:29Z</time>
      </trkpt>
      <trkpt lat="43.39675" lon="2.56532">
        <ele>900.41</ele>
        <time>2019-04-14T10:25:52Z</time>
      </trkpt>
      <trkpt lat="43.39675" lon="2.56535">
        <ele>900.41</ele>
        <time>2019-04-14T10:26:11Z</time>
      </trkpt>
      <trkpt lat="43.39674" lon="2.56537">
        <ele>900.41</ele>
        <time>2019-04-14T10:26:31Z</time>
      </trkpt>
      <trkpt lat="43.39675" lon="2.56534">
        <ele>900.41</ele>
        <time>2019-04-14T10:26:57Z</time>
      </trkpt>
      <trkpt lat="43.39675" lon="2.56532">
        <ele>899.93</ele>
        <time>2019-04-14T10:27:16Z</time>
      </trkpt>
      <trkpt lat="43.39675" lon="2.56533">
        <ele>899.93</ele>
        <time>2019-04-14T10:27:44Z</time>
      </trkpt>
      <trkpt lat="43.39676" lon="2.56534">
        <ele>900.89</ele>
        <time>2019-04-14T10:28:05Z</time>
      </trkpt>
      <trkpt lat="43.39676" lon="2.56535">
        <ele>900.41</ele>
        <time>2019-04-14T10:28:25Z</time>
      </trkpt>
      <trkpt lat="43.39674" lon="2.56537">
        <ele>900.41</ele>
        <time>2019-04-14T10:28:46Z</time>
      </trkpt>
      <trkpt lat="43.39673" lon="2.56537">
        <ele>899.93</ele>
        <time>2019-04-14T10:29:06Z</time>
      </trkpt>
      <trkpt lat="43.39672" lon="2.56536">
        <ele>900.41</ele>
        <time>2019-04-14T10:29:25Z</time>
      </trkpt>
      <trkpt lat="43.39671" lon="2.56534">
        <ele>900.41</ele>
        <time>2019-04-14T10:29:46Z</time>
      </trkpt>
      <trkpt lat="43.39672" lon="2.56533">
        <ele>899.93</ele>
        <time>2019-04-14T10:30:07Z</time>
      </trkpt>
      <trkpt lat="43.39675" lon="2.56533">
        <ele>900.89</ele>
        <time>2019-04-14T10:30:25Z</time>
      </trkpt>
      <trkpt lat="43.39677" lon="2.56534">
        <ele>901.37</ele>
        <time>2019-04-14T10:30:47Z</time>
      </trkpt>
      <trkpt lat="43.39676" lon="2.56531">
        <ele>900.89</ele>
        <time>2019-04-14T10:31:04Z</time>
      </trkpt>
      <trkpt lat="43.39676" lon="2.5653">
        <ele>900.89</ele>
        <time>2019-04-14T10:31:30Z</time>
      </trkpt>
      <trkpt lat="43.39675" lon="2.56531">
        <ele>900.89</ele>
        <time>2019-04-14T10:31:52Z</time>
      </trkpt>
      <trkpt lat="43.39675" lon="2.56533">
        <ele>900.89</ele>
        <time>2019-04-14T10:32:09Z</time>
      </trkpt>
      <trkpt lat="43.39675" lon="2.56531">
        <ele>900.89</ele>
        <time>2019-04-14T10:32:29Z</time>
      </trkpt>
      <trkpt lat="43.39675" lon="2.5653">
        <ele>901.37</ele>
        <time>2019-04-14T10:32:43Z</time>
      </trkpt>
      <trkpt lat="43.39675" lon="2.56531">
        <ele>900.89</ele>
        <time>2019-04-14T10:33:05Z</time>
      </trkpt>
      <trkpt lat="43.39675" lon="2.56532">
        <ele>900.41</ele>
        <time>2019-04-14T10:33:24Z</time>
      </trkpt>
      <trkpt lat="43.39675" lon="2.56533">
        <ele>900.89</ele>
        <time>2019-04-14T10:33:39Z</time>
      </trkpt>
      <trkpt lat="43.39674" lon="2.56534">
        <ele>900.89</ele>
        <time>2019-04-14T10:34:00Z</time>
      </trkpt>
      <trkpt lat="43.39674" lon="2.56536">
        <ele>900.41</ele>
        <time>2019-04-14T10:34:15Z</time>
      </trkpt>
      <trkpt lat="43.39674" lon="2.56536">
        <ele>899.93</ele>
        <time>2019-04-14T10:34:36Z</time>
      </trkpt>
      <trkpt lat="43.39675" lon="2.56534">
        <ele>900.41</ele>
        <time>2019-04-14T10:34:53Z</time>
      </trkpt>
      <trkpt lat="43.39674" lon="2.56534">
        <ele>900.89</ele>
        <time>2019-04-14T10:35:12Z</time>
      </trkpt>
      <trkpt lat="43.39675" lon="2.56534">
        <ele>900.89</ele>
        <time>2019-04-14T10:35:35Z</time>
      </trkpt>
      <trkpt lat="43.39676" lon="2.5653">
        <ele>900.89</ele>
        <time>2019-04-14T10:35:53Z</time>
      </trkpt>
      <trkpt lat="43.39677" lon="2.56534">
        <ele>901.37</ele>
        <time>2019-04-14T10:36:15Z</time>
      </trkpt>
      <trkpt lat="43.39677" lon="2.56537">
        <ele>901.85</ele>
        <time>2019-04-14T10:36:39Z</time>
      </trkpt>
      <trkpt lat="43.39675" lon="2.56538">
        <ele>902.33</ele>
        <time>2019-04-14T10:36:58Z</time>
      </trkpt>
      <trkpt lat="43.39674" lon="2.56536">
        <ele>901.85</ele>
        <time>2019-04-14T10:37:14Z</time>
      </trkpt>
      <trkpt lat="43.39674" lon="2.56535">
        <ele>901.37</ele>
        <time>2019-04-14T10:37:33Z</time>
      </trkpt>
      <trkpt lat="43.39676" lon="2.56532">
        <ele>902.33</ele>
        <time>2019-04-14T10:37:59Z</time>
      </trkpt>
      <trkpt lat="43.39676" lon="2.56526">
        <ele>902.33</ele>
        <time>2019-04-14T10:38:17Z</time>
      </trkpt>
      <trkpt lat="43.39677" lon="2.56527">
        <ele>902.82</ele>
        <time>2019-04-14T10:38:45Z</time>
      </trkpt>
      <trkpt lat="43.39678" lon="2.56528">
        <ele>901.37</ele>
        <time>2019-04-14T10:39:09Z</time>
      </trkpt>
      <trkpt lat="43.39675" lon="2.56525">
        <ele>901.37</ele>
        <time>2019-04-14T10:39:32Z</time>
      </trkpt>
      <trkpt lat="43.39674" lon="2.56524">
        <ele>901.37</ele>
        <time>2019-04-14T10:39:52Z</time>
      </trkpt>
      <trkpt lat="43.39674" lon="2.56526">
        <ele>901.85</ele>
        <time>2019-04-14T10:40:18Z</time>
      </trkpt>
      <trkpt lat="43.39675" lon="2.56529">
        <ele>901.85</ele>
        <time>2019-04-14T10:40:40Z</time>
      </trkpt>
      <trkpt lat="43.39674" lon="2.56529">
        <ele>900.89</ele>
        <time>2019-04-14T10:40:57Z</time>
      </trkpt>
      <trkpt lat="43.39675" lon="2.56529">
        <ele>900.41</ele>
        <time>2019-04-14T10:41:21Z</time>
      </trkpt>
      <trkpt lat="43.39676" lon="2.5653">
        <ele>900.41</ele>
        <time>2019-04-14T10:41:44Z</time>
      </trkpt>
      <trkpt lat="43.39675" lon="2.56531">
        <ele>900.89</ele>
        <time>2019-04-14T10:42:02Z</time>
      </trkpt>
      <trkpt lat="43.39673" lon="2.5653">
        <ele>901.37</ele>
        <time>2019-04-14T10:42:27Z</time>
      </trkpt>
      <trkpt lat="43.39674" lon="2.56532">
        <ele>901.37</ele>
        <time>2019-04-14T10:42:50Z</time>
      </trkpt>
      <trkpt lat="43.39674" lon="2.56531">
        <ele>900.89</ele>
        <time>2019-04-14T10:43:12Z</time>
      </trkpt>
      <trkpt lat="43.39672" lon="2.5653">
        <ele>902.33</ele>
        <time>2019-04-14T10:43:32Z</time>
      </trkpt>
      <trkpt lat="43.39672" lon="2.5653">
        <ele>901.85</ele>
        <time>2019-04-14T10:43:49Z</time>
      </trkpt>
      <trkpt lat="43.39673" lon="2.5653">
        <ele>901.85</ele>
        <time>2019-04-14T10:44:06Z</time>
      </trkpt>
      <trkpt lat="43.39673" lon="2.5653">
        <ele>900.89</ele>
        <time>2019-04-14T10:44:25Z</time>
      </trkpt>
      <trkpt lat="43.39673" lon="2.56532">
        <ele>901.37</ele>
        <time>2019-04-14T10:44:46Z</time>
      </trkpt>
      <trkpt lat="43.39672" lon="2.56528">
        <ele>901.37</ele>
        <time>2019-04-14T10:45:06Z</time>
      </trkpt>
      <trkpt lat="43.39671" lon="2.56525">
        <ele>902.33</ele>
        <time>2019-04-14T10:45:27Z</time>
      </trkpt>
      <trkpt lat="43.39671" lon="2.56528">
        <ele>901.85</ele>
        <time>2019-04-14T10:45:52Z</time>
      </trkpt>
      <trkpt lat="43.39672" lon="2.5653">
        <ele>900.89</ele>
        <time>2019-04-14T10:46:12Z</time>
      </trkpt>
      <trkpt lat="43.39675" lon="2.5653">
        <ele>901.37</ele>
        <time>2019-04-14T10:46:34Z</time>
      </trkpt>
      <trkpt lat="43.39676" lon="2.56528">
        <ele>901.85</ele>
        <time>2019-04-14T10:46:57Z</time>
      </trkpt>
      <trkpt lat="43.39676" lon="2.56528">
        <ele>901.37</ele>
        <time>2019-04-14T10:47:12Z</time>
      </trkpt>
      <trkpt lat="43.39674" lon="2.5653">
        <ele>900.89</ele>
        <time>2019-04-14T10:47:27Z</time>
      </trkpt>
      <trkpt lat="43.39673" lon="2.56529">
        <ele>899.93</ele>
        <time>2019-04-14T10:47:50Z</time>
      </trkpt>
      <trkpt lat="43.39674" lon="2.56531">
        <ele>899.93</ele>
        <time>2019-04-14T10:48:12Z</time>
      </trkpt>
      <trkpt lat="43.39672" lon="2.5653">
        <ele>900.41</ele>
        <time>2019-04-14T10:48:33Z</time>
      </trkpt>
      <trkpt lat="43.39674" lon="2.56532">
        <ele>900.89</ele>
        <time>2019-04-14T10:48:59Z</time>
      </trkpt>
      <trkpt lat="43.39673" lon="2.56535">
        <ele>900.89</ele>
        <time>2019-04-14T10:49:15Z</time>
      </trkpt>
      <trkpt lat="43.39674" lon="2.56534">
        <ele>900.41</ele>
        <time>2019-04-14T10:49:30Z</time>
      </trkpt>
      <trkpt lat="43.39675" lon="2.56531">
        <ele>899.93</ele>
        <time>2019-04-14T10:49:51Z</time>
      </trkpt>
      <trkpt lat="43.39676" lon="2.56529">
        <ele>900.89</ele>
        <time>2019-04-14T10:50:03Z</time>
      </trkpt>
      <trkpt lat="43.39677" lon="2.56524">
        <ele>900.89</ele>
        <time>2019-04-14T10:50:12Z</time>
      </trkpt>
      <trkpt lat="43.39677" lon="2.56523">
        <ele>900.89</ele>
        <time>2019-04-14T10:50:20Z</time>
      </trkpt>
      <trkpt lat="43.39677" lon="2.56525">
        <ele>900.41</ele>
        <time>2019-04-14T10:50:35Z</time>
      </trkpt>
      <trkpt lat="43.39679" lon="2.56523">
        <ele>900.41</ele>
        <time>2019-04-14T10:50:56Z</time>
      </trkpt>
      <trkpt lat="43.3968" lon="2.56526">
        <ele>900.89</ele>
        <time>2019-04-14T10:51:14Z</time>
      </trkpt>
      <trkpt lat="43.39679" lon="2.56525">
        <ele>901.37</ele>
        <time>2019-04-14T10:51:26Z</time>
      </trkpt>
      <trkpt lat="43.39679" lon="2.56525">
        <ele>900.41</ele>
        <time>2019-04-14T10:51:46Z</time>
      </trkpt>
      <trkpt lat="43.39679" lon="2.56524">
        <ele>899.93</ele>
        <time>2019-04-14T10:52:02Z</time>
      </trkpt>
      <trkpt lat="43.39679" lon="2.56525">
        <ele>899.93</ele>
        <time>2019-04-14T10:52:21Z</time>
      </trkpt>
      <trkpt lat="43.39679" lon="2.56526">
        <ele>899.45</ele>
        <time>2019-04-14T10:52:41Z</time>
      </trkpt>
      <trkpt lat="43.39678" lon="2.56524">
        <ele>900.41</ele>
        <time>2019-04-14T10:52:57Z</time>
      </trkpt>
      <trkpt lat="43.39675" lon="2.56523">
        <ele>901.37</ele>
        <time>2019-04-14T10:53:13Z</time>
      </trkpt>
      <trkpt lat="43.39676" lon="2.56525">
        <ele>900.89</ele>
        <time>2019-04-14T10:53:31Z</time>
      </trkpt>
      <trkpt lat="43.39677" lon="2.56523">
        <ele>899.93</ele>
        <time>2019-04-14T10:53:47Z</time>
      </trkpt>
      <trkpt lat="43.39679" lon="2.56527">
        <ele>900.41</ele>
        <time>2019-04-14T10:54:10Z</time>
      </trkpt>
      <trkpt lat="43.39678" lon="2.56526">
        <ele>900.41</ele>
        <time>2019-04-14T10:54:27Z</time>
      </trkpt>
      <trkpt lat="43.39677" lon="2.56525">
        <ele>901.85</ele>
        <time>2019-04-14T10:54:44Z</time>
      </trkpt>
      <trkpt lat="43.39678" lon="2.56525">
        <ele>900.89</ele>
        <time>2019-04-14T10:54:56Z</time>
      </trkpt>
      <trkpt lat="43.39676" lon="2.56525">
        <ele>900.89</ele>
        <time>2019-04-14T10:55:21Z</time>
      </trkpt>
      <trkpt lat="43.39675" lon="2.56525">
        <ele>901.37</ele>
        <time>2019-04-14T10:55:43Z</time>
      </trkpt>
      <trkpt lat="43.39675" lon="2.56525">
        <ele>901.37</ele>
        <time>2019-04-14T10:55:44Z</time>
      </trkpt>
      <trkpt lat="43.39674" lon="2.56526">
        <ele>902.33</ele>
        <time>2019-04-14T10:56:00Z</time>
      </trkpt>
      <trkpt lat="43.39674" lon="2.56528">
        <ele>900.89</ele>
        <time>2019-04-14T10:56:20Z</time>
      </trkpt>
      <trkpt lat="43.39674" lon="2.56528">
        <ele>900.89</ele>
        <time>2019-04-14T10:56:41Z</time>
      </trkpt>
      <trkpt lat="43.39674" lon="2.56528">
        <ele>900.89</ele>
        <time>2019-04-14T10:56:55Z</time>
      </trkpt>
      <trkpt lat="43.39674" lon="2.56522">
        <ele>901.37</ele>
        <time>2019-04-14T10:57:17Z</time>
      </trkpt>
      <trkpt lat="43.39674" lon="2.5652">
        <ele>901.37</ele>
        <time>2019-04-14T10:57:33Z</time>
      </trkpt>
      <trkpt lat="43.39675" lon="2.56523">
        <ele>901.37</ele>
        <time>2019-04-14T10:57:52Z</time>
      </trkpt>
      <trkpt lat="43.39676" lon="2.56526">
        <ele>901.37</ele>
        <time>2019-04-14T10:58:13Z</time>
      </trkpt>
      <trkpt lat="43.39678" lon="2.56529">
        <ele>901.37</ele>
        <time>2019-04-14T10:58:39Z</time>
      </trkpt>
      <trkpt lat="43.39677" lon="2.56527">
        <ele>901.85</ele>
        <time>2019-04-14T10:59:03Z</time>
      </trkpt>
      <trkpt lat="43.39676" lon="2.56525">
        <ele>901.85</ele>
        <time>2019-04-14T10:59:22Z</time>
      </trkpt>
      <trkpt lat="43.39678" lon="2.56524">
        <ele>901.85</ele>
        <time>2019-04-14T10:59:31Z</time>
      </trkpt>
      <trkpt lat="43.39679" lon="2.56524">
        <ele>901.85</ele>
        <time>2019-04-14T10:59:50Z</time>
      </trkpt>
      <trkpt lat="43.39679" lon="2.56524">
        <ele>901.37</ele>
        <time>2019-04-14T11:00:12Z</time>
      </trkpt>
      <trkpt lat="43.3968" lon="2.56524">
        <ele>901.85</ele>
        <time>2019-04-14T11:00:30Z</time>
      </trkpt>
      <trkpt lat="43.39679" lon="2.56523">
        <ele>901.37</ele>
        <time>2019-04-14T11:00:43Z</time>
      </trkpt>
      <trkpt lat="43.39678" lon="2.56523">
        <ele>901.37</ele>
        <time>2019-04-14T11:01:07Z</time>
      </trkpt>
      <trkpt lat="43.39678" lon="2.56524">
        <ele>901.37</ele>
        <time>2019-04-14T11:01:21Z</time>
      </trkpt>
      <trkpt lat="43.39677" lon="2.56526">
        <ele>901.37</ele>
        <time>2019-04-14T11:01:36Z</time>
      </trkpt>
      <trkpt lat="43.39677" lon="2.56527">
        <ele>902.33</ele>
        <time>2019-04-14T11:01:50Z</time>
      </trkpt>
      <trkpt lat="43.39678" lon="2.56526">
        <ele>901.85</ele>
        <time>2019-04-14T11:02:05Z</time>
      </trkpt>
      <trkpt lat="43.39675" lon="2.56524">
        <ele>901.85</ele>
        <time>2019-04-14T11:02:23Z</time>
      </trkpt>
      <trkpt lat="43.39677" lon="2.56526">
        <ele>901.85</ele>
        <time>2019-04-14T11:02:38Z</time>
      </trkpt>
      <trkpt lat="43.39677" lon="2.56525">
        <ele>901.85</ele>
        <time>2019-04-14T11:02:56Z</time>
      </trkpt>
      <trkpt lat="43.39679" lon="2.56525">
        <ele>901.85</ele>
        <time>2019-04-14T11:03:09Z</time>
      </trkpt>
      <trkpt lat="43.39679" lon="2.56525">
        <ele>901.85</ele>
        <time>2019-04-14T11:03:19Z</time>
      </trkpt>
      <trkpt lat="43.39678" lon="2.56525">
        <ele>901.37</ele>
        <time>2019-04-14T11:03:34Z</time>
      </trkpt>
      <trkpt lat="43.39679" lon="2.56525">
        <ele>901.85</ele>
        <time>2019-04-14T11:03:50Z</time>
      </trkpt>
      <trkpt lat="43.39678" lon="2.56524">
        <ele>901.85</ele>
        <time>2019-04-14T11:04:05Z</time>
      </trkpt>
      <trkpt lat="43.39678" lon="2.56525">
        <ele>901.37</ele>
        <time>2019-04-14T11:04:22Z</time>
      </trkpt>
      <trkpt lat="43.39678" lon="2.56523">
        <ele>901.85</ele>
        <time>2019-04-14T11:04:42Z</time>
      </trkpt>
      <trkpt lat="43.3968" lon="2.56526">
        <ele>902.33</ele>
        <time>2019-04-14T11:04:56Z</time>
      </trkpt>
      <trkpt lat="43.3968" lon="2.56525">
        <ele>900.89</ele>
        <time>2019-04-14T11:05:12Z</time>
      </trkpt>
      <trkpt lat="43.3968" lon="2.56526">
        <ele>900.89</ele>
        <time>2019-04-14T11:05:36Z</time>
      </trkpt>
      <trkpt lat="43.39681" lon="2.56525">
        <ele>901.37</ele>
        <time>2019-04-14T11:05:46Z</time>
      </trkpt>
      <trkpt lat="43.39679" lon="2.56524">
        <ele>900.41</ele>
        <time>2019-04-14T11:06:10Z</time>
      </trkpt>
      <trkpt lat="43.39679" lon="2.56525">
        <ele>899.93</ele>
        <time>2019-04-14T11:06:32Z</time>
      </trkpt>
      <trkpt lat="43.39676" lon="2.56525">
        <ele>900.41</ele>
        <time>2019-04-14T11:06:50Z</time>
      </trkpt>
      <trkpt lat="43.39674" lon="2.56525">
        <ele>900.41</ele>
        <time>2019-04-14T11:07:10Z</time>
      </trkpt>
      <trkpt lat="43.39679" lon="2.56526">
        <ele>901.85</ele>
        <time>2019-04-14T11:07:30Z</time>
      </trkpt>
      <trkpt lat="43.3968" lon="2.56527">
        <ele>900.41</ele>
        <time>2019-04-14T11:07:42Z</time>
      </trkpt>
      <trkpt lat="43.39679" lon="2.56525">
        <ele>902.82</ele>
        <time>2019-04-14T11:07:57Z</time>
      </trkpt>
      <trkpt lat="43.39679" lon="2.56525">
        <ele>899.93</ele>
        <time>2019-04-14T11:08:09Z</time>
      </trkpt>
      <trkpt lat="43.39678" lon="2.56526">
        <ele>900.41</ele>
        <time>2019-04-14T11:08:20Z</time>
      </trkpt>
      <trkpt lat="43.39677" lon="2.56525">
        <ele>900.41</ele>
        <time>2019-04-14T11:08:36Z</time>
      </trkpt>
      <trkpt lat="43.39677" lon="2.56525">
        <ele>898.97</ele>
        <time>2019-04-14T11:08:50Z</time>
      </trkpt>
      <trkpt lat="43.39677" lon="2.56524">
        <ele>900.41</ele>
        <time>2019-04-14T11:09:08Z</time>
      </trkpt>
      <trkpt lat="43.39677" lon="2.56524">
        <ele>899.93</ele>
        <time>2019-04-14T11:09:26Z</time>
      </trkpt>
      <trkpt lat="43.39676" lon="2.56524">
        <ele>899.93</ele>
        <time>2019-04-14T11:09:39Z</time>
      </trkpt>
      <trkpt lat="43.39675" lon="2.56525">
        <ele>900.41</ele>
        <time>2019-04-14T11:09:52Z</time>
      </trkpt>
      <trkpt lat="43.39676" lon="2.56525">
        <ele>899.93</ele>
        <time>2019-04-14T11:10:11Z</time>
      </trkpt>
      <trkpt lat="43.39676" lon="2.56525">
        <ele>900.41</ele>
        <time>2019-04-14T11:10:30Z</time>
      </trkpt>
      <trkpt lat="43.39676" lon="2.56524">
        <ele>899.93</ele>
        <time>2019-04-14T11:10:42Z</time>
      </trkpt>
      <trkpt lat="43.39677" lon="2.56523">
        <ele>899.93</ele>
        <time>2019-04-14T11:10:59Z</time>
      </trkpt>
      <trkpt lat="43.39677" lon="2.56524">
        <ele>900.41</ele>
        <time>2019-04-14T11:11:14Z</time>
      </trkpt>
      <trkpt lat="43.39677" lon="2.56526">
        <ele>900.41</ele>
        <time>2019-04-14T11:11:33Z</time>
      </trkpt>
      <trkpt lat="43.39676" lon="2.56526">
        <ele>900.89</ele>
        <time>2019-04-14T11:11:48Z</time>
      </trkpt>
      <trkpt lat="43.39677" lon="2.56526">
        <ele>901.37</ele>
        <time>2019-04-14T11:11:59Z</time>
      </trkpt>
      <trkpt lat="43.39677" lon="2.56527">
        <ele>900.41</ele>
        <time>2019-04-14T11:12:25Z</time>
      </trkpt>
      <trkpt lat="43.39677" lon="2.56527">
        <ele>898.97</ele>
        <time>2019-04-14T11:12:51Z</time>
      </trkpt>
      <trkpt lat="43.39677" lon="2.56526">
        <ele>899.45</ele>
        <time>2019-04-14T11:13:09Z</time>
      </trkpt>
      <trkpt lat="43.39676" lon="2.56528">
        <ele>899.93</ele>
        <time>2019-04-14T11:13:32Z</time>
      </trkpt>
      <trkpt lat="43.39676" lon="2.56528">
        <ele>900.41</ele>
        <time>2019-04-14T11:13:45Z</time>
      </trkpt>
      <trkpt lat="43.39675" lon="2.56528">
        <ele>899.45</ele>
        <time>2019-04-14T11:14:00Z</time>
      </trkpt>
      <trkpt lat="43.39675" lon="2.56527">
        <ele>898.01</ele>
        <time>2019-04-14T11:14:21Z</time>
      </trkpt>
      <trkpt lat="43.39676" lon="2.56526">
        <ele>898.49</ele>
        <time>2019-04-14T11:14:39Z</time>
      </trkpt>
      <trkpt lat="43.39678" lon="2.56524">
        <ele>898.49</ele>
        <time>2019-04-14T11:15:00Z</time>
      </trkpt>
      <trkpt lat="43.39678" lon="2.56524">
        <ele>898.97</ele>
        <time>2019-04-14T11:15:24Z</time>
      </trkpt>
      <trkpt lat="43.39678" lon="2.56524">
        <ele>899.45</ele>
        <time>2019-04-14T11:15:47Z</time>
      </trkpt>
      <trkpt lat="43.39677" lon="2.56526">
        <ele>899.45</ele>
        <time>2019-04-14T11:16:13Z</time>
      </trkpt>
      <trkpt lat="43.39677" lon="2.56528">
        <ele>898.49</ele>
        <time>2019-04-14T11:16:33Z</time>
      </trkpt>
      <trkpt lat="43.39674" lon="2.5653">
        <ele>898.49</ele>
        <time>2019-04-14T11:16:53Z</time>
      </trkpt>
      <trkpt lat="43.39672" lon="2.56532">
        <ele>899.93</ele>
        <time>2019-04-14T11:17:16Z</time>
      </trkpt>
      <trkpt lat="43.39672" lon="2.56531">
        <ele>899.45</ele>
        <time>2019-04-14T11:17:33Z</time>
      </trkpt>
      <trkpt lat="43.39673" lon="2.56529">
        <ele>899.45</ele>
        <time>2019-04-14T11:17:56Z</time>
      </trkpt>
      <trkpt lat="43.39674" lon="2.56528">
        <ele>899.45</ele>
        <time>2019-04-14T11:18:18Z</time>
      </trkpt>
      <trkpt lat="43.39674" lon="2.56527">
        <ele>898.97</ele>
        <time>2019-04-14T11:18:39Z</time>
      </trkpt>
      <trkpt lat="43.39672" lon="2.56525">
        <ele>898.97</ele>
        <time>2019-04-14T11:19:03Z</time>
      </trkpt>
      <trkpt lat="43.39672" lon="2.56525">
        <ele>898.49</ele>
        <time>2019-04-14T11:19:27Z</time>
      </trkpt>
      <trkpt lat="43.39674" lon="2.56526">
        <ele>899.45</ele>
        <time>2019-04-14T11:19:48Z</time>
      </trkpt>
      <trkpt lat="43.39674" lon="2.56528">
        <ele>899.45</ele>
        <time>2019-04-14T11:20:13Z</time>
      </trkpt>
      <trkpt lat="43.39673" lon="2.56529">
        <ele>899.93</ele>
        <time>2019-04-14T11:20:34Z</time>
      </trkpt>
      <trkpt lat="43.39672" lon="2.56529">
        <ele>900.89</ele>
        <time>2019-04-14T11:20:53Z</time>
      </trkpt>
      <trkpt lat="43.39673" lon="2.56529">
        <ele>899.45</ele>
        <time>2019-04-14T11:21:17Z</time>
      </trkpt>
      <trkpt lat="43.39672" lon="2.5653">
        <ele>899.45</ele>
        <time>2019-04-14T11:21:39Z</time>
      </trkpt>
      <trkpt lat="43.39674" lon="2.56527">
        <ele>899.93</ele>
        <time>2019-04-14T11:22:00Z</time>
      </trkpt>
      <trkpt lat="43.39677" lon="2.56525">
        <ele>899.45</ele>
        <time>2019-04-14T11:22:18Z</time>
      </trkpt>
      <trkpt lat="43.39677" lon="2.56526">
        <ele>899.93</ele>
        <time>2019-04-14T11:22:40Z</time>
      </trkpt>
      <trkpt lat="43.39676" lon="2.56526">
        <ele>899.93</ele>
        <time>2019-04-14T11:23:01Z</time>
      </trkpt>
      <trkpt lat="43.39675" lon="2.56524">
        <ele>900.41</ele>
        <time>2019-04-14T11:23:23Z</time>
      </trkpt>
      <trkpt lat="43.39675" lon="2.56523">
        <ele>901.37</ele>
        <time>2019-04-14T11:23:43Z</time>
      </trkpt>
      <trkpt lat="43.39675" lon="2.56524">
        <ele>900.41</ele>
        <time>2019-04-14T11:24:02Z</time>
      </trkpt>
      <trkpt lat="43.39677" lon="2.56526">
        <ele>900.41</ele>
        <time>2019-04-14T11:24:23Z</time>
      </trkpt>
      <trkpt lat="43.39677" lon="2.56524">
        <ele>900.41</ele>
        <time>2019-04-14T11:24:48Z</time>
      </trkpt>
      <trkpt lat="43.39678" lon="2.56525">
        <ele>899.93</ele>
        <time>2019-04-14T11:25:09Z</time>
      </trkpt>
      <trkpt lat="43.39677" lon="2.56525">
        <ele>899.93</ele>
        <time>2019-04-14T11:25:32Z</time>
      </trkpt>
      <trkpt lat="43.39678" lon="2.56523">
        <ele>898.97</ele>
        <time>2019-04-14T11:25:54Z</time>
      </trkpt>
      <trkpt lat="43.39678" lon="2.56523">
        <ele>899.45</ele>
        <time>2019-04-14T11:26:15Z</time>
      </trkpt>
      <trkpt lat="43.39679" lon="2.56524">
        <ele>899.93</ele>
        <time>2019-04-14T11:26:32Z</time>
      </trkpt>
      <trkpt lat="43.39677" lon="2.56522">
        <ele>899.45</ele>
        <time>2019-04-14T11:26:51Z</time>
      </trkpt>
      <trkpt lat="43.39676" lon="2.56524">
        <ele>899.93</ele>
        <time>2019-04-14T11:27:08Z</time>
      </trkpt>
      <trkpt lat="43.39674" lon="2.56525">
        <ele>899.93</ele>
        <time>2019-04-14T11:27:24Z</time>
      </trkpt>
      <trkpt lat="43.39672" lon="2.56527">
        <ele>900.89</ele>
        <time>2019-04-14T11:27:38Z</time>
      </trkpt>
      <trkpt lat="43.39671" lon="2.56527">
        <ele>901.37</ele>
        <time>2019-04-14T11:27:58Z</time>
      </trkpt>
      <trkpt lat="43.39673" lon="2.56528">
        <ele>900.89</ele>
        <time>2019-04-14T11:28:15Z</time>
      </trkpt>
      <trkpt lat="43.39675" lon="2.56529">
        <ele>901.37</ele>
        <time>2019-04-14T11:28:29Z</time>
      </trkpt>
      <trkpt lat="43.39677" lon="2.56527">
        <ele>900.89</ele>
        <time>2019-04-14T11:28:47Z</time>
      </trkpt>
      <trkpt lat="43.39675" lon="2.56527">
        <ele>900.89</ele>
        <time>2019-04-14T11:28:55Z</time>
      </trkpt>
      <trkpt lat="43.39676" lon="2.56527">
        <ele>900.41</ele>
        <time>2019-04-14T11:29:01Z</time>
      </trkpt>
      <trkpt lat="43.39678" lon="2.56526">
        <ele>900.41</ele>
        <time>2019-04-14T11:29:12Z</time>
      </trkpt>
      <trkpt lat="43.39679" lon="2.56521">
        <ele>900.41</ele>
        <time>2019-04-14T11:29:26Z</time>
      </trkpt>
      <trkpt lat="43.39681" lon="2.56524">
        <ele>900.41</ele>
        <time>2019-04-14T11:29:41Z</time>
      </trkpt>
      <trkpt lat="43.3968" lon="2.56521">
        <ele>899.45</ele>
        <time>2019-04-14T11:29:55Z</time>
      </trkpt>
      <trkpt lat="43.39679" lon="2.5652">
        <ele>900.89</ele>
        <time>2019-04-14T11:30:07Z</time>
      </trkpt>
      <trkpt lat="43.39679" lon="2.56522">
        <ele>901.37</ele>
        <time>2019-04-14T11:30:24Z</time>
      </trkpt>
      <trkpt lat="43.3968" lon="2.5652">
        <ele>900.41</ele>
        <time>2019-04-14T11:30:39Z</time>
      </trkpt>
      <trkpt lat="43.39679" lon="2.56518">
        <ele>899.45</ele>
        <time>2019-04-14T11:30:52Z</time>
      </trkpt>
      <trkpt lat="43.39679" lon="2.5652">
        <ele>899.45</ele>
        <time>2019-04-14T11:31:05Z</time>
      </trkpt>
      <trkpt lat="43.3968" lon="2.56518">
        <ele>899.45</ele>
        <time>2019-04-14T11:31:24Z</time>
      </trkpt>
      <trkpt lat="43.39679" lon="2.56524">
        <ele>899.45</ele>
        <time>2019-04-14T11:31:37Z</time>
      </trkpt>
      <trkpt lat="43.39678" lon="2.56526">
        <ele>899.93</ele>
        <time>2019-04-14T11:31:45Z</time>
      </trkpt>
      <trkpt lat="43.39679" lon="2.56521">
        <ele>899.93</ele>
        <time>2019-04-14T11:31:55Z</time>
      </trkpt>
      <trkpt lat="43.39681" lon="2.56512">
        <ele>899.93</ele>
        <time>2019-04-14T11:32:05Z</time>
      </trkpt>
      <trkpt lat="43.39682" lon="2.56509">
        <ele>901.37</ele>
        <time>2019-04-14T11:32:08Z</time>
      </trkpt>
      <trkpt lat="43.39684" lon="2.56502">
        <ele>900.89</ele>
        <time>2019-04-14T11:32:15Z</time>
      </trkpt>
      <trkpt lat="43.39688" lon="2.56493">
        <ele>900.89</ele>
        <time>2019-04-14T11:32:24Z</time>
      </trkpt>
      <trkpt lat="43.39694" lon="2.56488">
        <ele>900.41</ele>
        <time>2019-04-14T11:32:33Z</time>
      </trkpt>
      <trkpt lat="43.39696" lon="2.56488">
        <ele>901.37</ele>
        <time>2019-04-14T11:32:40Z</time>
      </trkpt>
      <trkpt lat="43.39698" lon="2.5649">
        <ele>902.33</ele>
        <time>2019-04-14T11:32:48Z</time>
      </trkpt>
      <trkpt lat="43.39699" lon="2.56489">
        <ele>904.74</ele>
        <time>2019-04-14T11:32:57Z</time>
      </trkpt>
      <trkpt lat="43.39703" lon="2.56493">
        <ele>904.74</ele>
        <time>2019-04-14T11:33:05Z</time>
      </trkpt>
      <trkpt lat="43.39706" lon="2.56496">
        <ele>905.22</ele>
        <time>2019-04-14T11:33:13Z</time>
      </trkpt>
      <trkpt lat="43.39708" lon="2.56499">
        <ele>906.18</ele>
        <time>2019-04-14T11:33:19Z</time>
      </trkpt>
      <trkpt lat="43.3971" lon="2.56499">
        <ele>904.74</ele>
        <time>2019-04-14T11:33:21Z</time>
      </trkpt>
      <trkpt lat="43.39714" lon="2.56504">
        <ele>906.66</ele>
        <time>2019-04-14T11:33:30Z</time>
      </trkpt>
      <trkpt lat="43.39718" lon="2.56507">
        <ele>909.06</ele>
        <time>2019-04-14T11:33:39Z</time>
      </trkpt>
      <trkpt lat="43.3972" lon="2.56511">
        <ele>910.03</ele>
        <time>2019-04-14T11:33:46Z</time>
      </trkpt>
      <trkpt lat="43.39725" lon="2.56517">
        <ele>911.95</ele>
        <time>2019-04-14T11:33:56Z</time>
      </trkpt>
      <trkpt lat="43.39728" lon="2.56522">
        <ele>912.43</ele>
        <time>2019-04-14T11:34:05Z</time>
      </trkpt>
      <trkpt lat="43.39728" lon="2.56521">
        <ele>912.91</ele>
        <time>2019-04-14T11:34:15Z</time>
      </trkpt>
      <trkpt lat="43.39729" lon="2.56524">
        <ele>913.39</ele>
        <time>2019-04-14T11:34:31Z</time>
      </trkpt>
      <trkpt lat="43.3973" lon="2.56526">
        <ele>914.83</ele>
        <time>2019-04-14T11:34:34Z</time>
      </trkpt>
      <trkpt lat="43.39736" lon="2.56531">
        <ele>915.79</ele>
        <time>2019-04-14T11:34:44Z</time>
      </trkpt>
      <trkpt lat="43.39738" lon="2.56534">
        <ele>916.75</ele>
        <time>2019-04-14T11:34:49Z</time>
      </trkpt>
      <trkpt lat="43.39742" lon="2.56541">
        <ele>918.68</ele>
        <time>2019-04-14T11:34:59Z</time>
      </trkpt>
      <trkpt lat="43.39746" lon="2.56546">
        <ele>920.6</ele>
        <time>2019-04-14T11:35:08Z</time>
      </trkpt>
      <trkpt lat="43.39749" lon="2.56551">
        <ele>921.56</ele>
        <time>2019-04-14T11:35:17Z</time>
      </trkpt>
      <trkpt lat="43.39751" lon="2.56553">
        <ele>922.52</ele>
        <time>2019-04-14T11:35:21Z</time>
      </trkpt>
      <trkpt lat="43.39755" lon="2.56558">
        <ele>923.48</ele>
        <time>2019-04-14T11:35:29Z</time>
      </trkpt>
      <trkpt lat="43.39759" lon="2.56566">
        <ele>923.96</ele>
        <time>2019-04-14T11:35:39Z</time>
      </trkpt>
      <trkpt lat="43.39762" lon="2.56572">
        <ele>923.48</ele>
        <time>2019-04-14T11:35:48Z</time>
      </trkpt>
      <trkpt lat="43.39764" lon="2.56578">
        <ele>925.41</ele>
        <time>2019-04-14T11:35:54Z</time>
      </trkpt>
      <trkpt lat="43.39765" lon="2.56588">
        <ele>926.37</ele>
        <time>2019-04-14T11:36:03Z</time>
      </trkpt>
      <trkpt lat="43.39766" lon="2.56598">
        <ele>927.33</ele>
        <time>2019-04-14T11:36:12Z</time>
      </trkpt>
      <trkpt lat="43.39767" lon="2.56607">
        <ele>927.81</ele>
        <time>2019-04-14T11:36:20Z</time>
      </trkpt>
      <trkpt lat="43.3977" lon="2.56613">
        <ele>929.25</ele>
        <time>2019-04-14T11:36:28Z</time>
      </trkpt>
      <trkpt lat="43.39773" lon="2.5662">
        <ele>929.73</ele>
        <time>2019-04-14T11:36:36Z</time>
      </trkpt>
      <trkpt lat="43.39777" lon="2.56627">
        <ele>931.65</ele>
        <time>2019-04-14T11:36:45Z</time>
      </trkpt>
      <trkpt lat="43.39779" lon="2.56636">
        <ele>933.58</ele>
        <time>2019-04-14T11:36:53Z</time>
      </trkpt>
      <trkpt lat="43.39782" lon="2.56644">
        <ele>935.98</ele>
        <time>2019-04-14T11:37:01Z</time>
      </trkpt>
      <trkpt lat="43.39783" lon="2.56648">
        <ele>934.06</ele>
        <time>2019-04-14T11:37:04Z</time>
      </trkpt>
      <trkpt lat="43.39785" lon="2.56656">
        <ele>935.02</ele>
        <time>2019-04-14T11:37:11Z</time>
      </trkpt>
      <trkpt lat="43.39787" lon="2.56665">
        <ele>935.5</ele>
        <time>2019-04-14T11:37:19Z</time>
      </trkpt>
      <trkpt lat="43.39788" lon="2.56673">
        <ele>935.02</ele>
        <time>2019-04-14T11:37:27Z</time>
      </trkpt>
      <trkpt lat="43.3979" lon="2.56674">
        <ele>934.06</ele>
        <time>2019-04-14T11:37:33Z</time>
      </trkpt>
      <trkpt lat="43.39785" lon="2.56677">
        <ele>937.42</ele>
        <time>2019-04-14T11:37:42Z</time>
      </trkpt>
      <trkpt lat="43.39781" lon="2.56684">
        <ele>938.38</ele>
        <time>2019-04-14T11:37:50Z</time>
      </trkpt>
      <trkpt lat="43.39781" lon="2.56685">
        <ele>938.38</ele>
        <time>2019-04-14T11:37:51Z</time>
      </trkpt>
      <trkpt lat="43.39782" lon="2.56694">
        <ele>938.86</ele>
        <time>2019-04-14T11:38:00Z</time>
      </trkpt>
      <trkpt lat="43.39788" lon="2.56701">
        <ele>939.35</ele>
        <time>2019-04-14T11:38:07Z</time>
      </trkpt>
      <trkpt lat="43.39794" lon="2.56711">
        <ele>937.42</ele>
        <time>2019-04-14T11:38:15Z</time>
      </trkpt>
      <trkpt lat="43.39798" lon="2.56717">
        <ele>938.86</ele>
        <time>2019-04-14T11:38:20Z</time>
      </trkpt>
      <trkpt lat="43.39805" lon="2.56726">
        <ele>938.38</ele>
        <time>2019-04-14T11:38:28Z</time>
      </trkpt>
      <trkpt lat="43.39812" lon="2.56733">
        <ele>939.35</ele>
        <time>2019-04-14T11:38:34Z</time>
      </trkpt>
      <trkpt lat="43.39816" lon="2.56736">
        <ele>937.42</ele>
        <time>2019-04-14T11:38:40Z</time>
      </trkpt>
      <trkpt lat="43.39818" lon="2.56736">
        <ele>935.98</ele>
        <time>2019-04-14T11:38:41Z</time>
      </trkpt>
      <trkpt lat="43.39827" lon="2.56728">
        <ele>935.98</ele>
        <time>2019-04-14T11:38:49Z</time>
      </trkpt>
      <trkpt lat="43.3983" lon="2.56724">
        <ele>937.42</ele>
        <time>2019-04-14T11:38:55Z</time>
      </trkpt>
      <trkpt lat="43.39831" lon="2.56723">
        <ele>936.94</ele>
        <time>2019-04-14T11:38:56Z</time>
      </trkpt>
      <trkpt lat="43.39831" lon="2.56721">
        <ele>932.14</ele>
        <time>2019-04-14T11:38:59Z</time>
      </trkpt>
      <trkpt lat="43.39829" lon="2.56713">
        <ele>932.62</ele>
        <time>2019-04-14T11:39:05Z</time>
      </trkpt>
      <trkpt lat="43.39832" lon="2.56711">
        <ele>928.77</ele>
        <time>2019-04-14T11:39:08Z</time>
      </trkpt>
      <trkpt lat="43.39829" lon="2.56705">
        <ele>932.14</ele>
        <time>2019-04-14T11:39:12Z</time>
      </trkpt>
      <trkpt lat="43.39828" lon="2.56704">
        <ele>932.14</ele>
        <time>2019-04-14T11:39:13Z</time>
      </trkpt>
      <trkpt lat="43.39821" lon="2.56697">
        <ele>931.65</ele>
        <time>2019-04-14T11:39:21Z</time>
      </trkpt>
      <trkpt lat="43.39816" lon="2.56693">
        <ele>932.14</ele>
        <time>2019-04-14T11:39:28Z</time>
      </trkpt>
      <trkpt lat="43.39814" lon="2.56689">
        <ele>930.69</ele>
        <time>2019-04-14T11:39:33Z</time>
      </trkpt>
      <trkpt lat="43.3981" lon="2.56685">
        <ele>930.69</ele>
        <time>2019-04-14T11:39:42Z</time>
      </trkpt>
      <trkpt lat="43.3981" lon="2.56685">
        <ele>933.58</ele>
        <time>2019-04-14T11:39:43Z</time>
      </trkpt>
      <trkpt lat="43.3981" lon="2.56685">
        <ele>932.14</ele>
        <time>2019-04-14T11:39:44Z</time>
      </trkpt>
      <trkpt lat="43.3981" lon="2.56685">
        <ele>933.58</ele>
        <time>2019-04-14T11:39:47Z</time>
      </trkpt>
      <trkpt lat="43.39807" lon="2.56682">
        <ele>932.62</ele>
        <time>2019-04-14T11:39:56Z</time>
      </trkpt>
      <trkpt lat="43.39804" lon="2.56679">
        <ele>933.58</ele>
        <time>2019-04-14T11:40:01Z</time>
      </trkpt>
      <trkpt lat="43.39804" lon="2.56681">
        <ele>933.1</ele>
        <time>2019-04-14T11:40:07Z</time>
      </trkpt>
      <trkpt lat="43.398" lon="2.56679">
        <ele>933.58</ele>
        <time>2019-04-14T11:40:16Z</time>
      </trkpt>
      <trkpt lat="43.39801" lon="2.56681">
        <ele>933.1</ele>
        <time>2019-04-14T11:40:25Z</time>
      </trkpt>
      <trkpt lat="43.39803" lon="2.56685">
        <ele>932.62</ele>
        <time>2019-04-14T11:40:35Z</time>
      </trkpt>
      <trkpt lat="43.39806" lon="2.56686">
        <ele>933.1</ele>
        <time>2019-04-14T11:40:40Z</time>
      </trkpt>
      <trkpt lat="43.3981" lon="2.56688">
        <ele>931.17</ele>
        <time>2019-04-14T11:40:47Z</time>
      </trkpt>
      <trkpt lat="43.39811" lon="2.56688">
        <ele>932.14</ele>
        <time>2019-04-14T11:40:53Z</time>
      </trkpt>
      <trkpt lat="43.39813" lon="2.56691">
        <ele>932.62</ele>
        <time>2019-04-14T11:41:01Z</time>
      </trkpt>
      <trkpt lat="43.39817" lon="2.56698">
        <ele>930.69</ele>
        <time>2019-04-14T11:41:09Z</time>
      </trkpt>
      <trkpt lat="43.39827" lon="2.56708">
        <ele>930.21</ele>
        <time>2019-04-14T11:41:18Z</time>
      </trkpt>
      <trkpt lat="43.39836" lon="2.56717">
        <ele>928.29</ele>
        <time>2019-04-14T11:41:27Z</time>
      </trkpt>
      <trkpt lat="43.39846" lon="2.56726">
        <ele>926.37</ele>
        <time>2019-04-14T11:41:36Z</time>
      </trkpt>
      <trkpt lat="43.39856" lon="2.56735">
        <ele>926.37</ele>
        <time>2019-04-14T11:41:46Z</time>
      </trkpt>
      <trkpt lat="43.39857" lon="2.56735">
        <ele>925.89</ele>
        <time>2019-04-14T11:41:47Z</time>
      </trkpt>
      <trkpt lat="43.3986" lon="2.56738">
        <ele>925.41</ele>
        <time>2019-04-14T11:41:49Z</time>
      </trkpt>
      <trkpt lat="43.3987" lon="2.56748">
        <ele>923.48</ele>
        <time>2019-04-14T11:41:59Z</time>
      </trkpt>
      <trkpt lat="43.39878" lon="2.56755">
        <ele>922.04</ele>
        <time>2019-04-14T11:42:07Z</time>
      </trkpt>
      <trkpt lat="43.3989" lon="2.56766">
        <ele>921.56</ele>
        <time>2019-04-14T11:42:18Z</time>
      </trkpt>
      <trkpt lat="43.39898" lon="2.56773">
        <ele>920.6</ele>
        <time>2019-04-14T11:42:26Z</time>
      </trkpt>
      <trkpt lat="43.39907" lon="2.5678">
        <ele>920.12</ele>
        <time>2019-04-14T11:42:34Z</time>
      </trkpt>
      <trkpt lat="43.39917" lon="2.56787">
        <ele>919.64</ele>
        <time>2019-04-14T11:42:43Z</time>
      </trkpt>
      <trkpt lat="43.39928" lon="2.56795">
        <ele>919.16</ele>
        <time>2019-04-14T11:42:53Z</time>
      </trkpt>
      <trkpt lat="43.39931" lon="2.56798">
        <ele>918.2</ele>
        <time>2019-04-14T11:43:00Z</time>
      </trkpt>
      <trkpt lat="43.39931" lon="2.56798">
        <ele>918.2</ele>
        <time>2019-04-14T11:43:16Z</time>
      </trkpt>
      <trkpt lat="43.39934" lon="2.56798">
        <ele>918.68</ele>
        <time>2019-04-14T11:43:27Z</time>
      </trkpt>
      <trkpt lat="43.39935" lon="2.56799">
        <ele>917.72</ele>
        <time>2019-04-14T11:43:28Z</time>
      </trkpt>
      <trkpt lat="43.3994" lon="2.56801">
        <ele>919.64</ele>
        <time>2019-04-14T11:43:34Z</time>
      </trkpt>
      <trkpt lat="43.39947" lon="2.56811">
        <ele>920.12</ele>
        <time>2019-04-14T11:43:45Z</time>
      </trkpt>
      <trkpt lat="43.39952" lon="2.56817">
        <ele>921.56</ele>
        <time>2019-04-14T11:43:52Z</time>
      </trkpt>
      <trkpt lat="43.39956" lon="2.56823">
        <ele>921.08</ele>
        <time>2019-04-14T11:43:58Z</time>
      </trkpt>
      <trkpt lat="43.39957" lon="2.56825">
        <ele>922.52</ele>
        <time>2019-04-14T11:44:00Z</time>
      </trkpt>
      <trkpt lat="43.39961" lon="2.5683">
        <ele>923</ele>
        <time>2019-04-14T11:44:07Z</time>
      </trkpt>
      <trkpt lat="43.39961" lon="2.5683">
        <ele>923.48</ele>
        <time>2019-04-14T11:44:08Z</time>
      </trkpt>
      <trkpt lat="43.39965" lon="2.56831">
        <ele>922.52</ele>
        <time>2019-04-14T11:44:11Z</time>
      </trkpt>
      <trkpt lat="43.39968" lon="2.56832">
        <ele>923.96</ele>
        <time>2019-04-14T11:44:14Z</time>
      </trkpt>
      <trkpt lat="43.39972" lon="2.56835">
        <ele>924.93</ele>
        <time>2019-04-14T11:44:22Z</time>
      </trkpt>
      <trkpt lat="43.39974" lon="2.56838">
        <ele>926.37</ele>
        <time>2019-04-14T11:44:27Z</time>
      </trkpt>
      <trkpt lat="43.39977" lon="2.56844">
        <ele>926.37</ele>
        <time>2019-04-14T11:44:34Z</time>
      </trkpt>
      <trkpt lat="43.39982" lon="2.56849">
        <ele>925.89</ele>
        <time>2019-04-14T11:44:42Z</time>
      </trkpt>
      <trkpt lat="43.39985" lon="2.56853">
        <ele>927.33</ele>
        <time>2019-04-14T11:44:49Z</time>
      </trkpt>
      <trkpt lat="43.39989" lon="2.56857">
        <ele>926.37</ele>
        <time>2019-04-14T11:44:56Z</time>
      </trkpt>
      <trkpt lat="43.39995" lon="2.56861">
        <ele>926.85</ele>
        <time>2019-04-14T11:45:03Z</time>
      </trkpt>
      <trkpt lat="43.39998" lon="2.56865">
        <ele>927.81</ele>
        <time>2019-04-14T11:45:11Z</time>
      </trkpt>
      <trkpt lat="43.40002" lon="2.5687">
        <ele>929.73</ele>
        <time>2019-04-14T11:45:20Z</time>
      </trkpt>
      <trkpt lat="43.40006" lon="2.56875">
        <ele>929.73</ele>
        <time>2019-04-14T11:45:27Z</time>
      </trkpt>
      <trkpt lat="43.40011" lon="2.5688">
        <ele>930.69</ele>
        <time>2019-04-14T11:45:35Z</time>
      </trkpt>
      <trkpt lat="43.40012" lon="2.56882">
        <ele>932.14</ele>
        <time>2019-04-14T11:45:38Z</time>
      </trkpt>
      <trkpt lat="43.40016" lon="2.56887">
        <ele>934.54</ele>
        <time>2019-04-14T11:45:47Z</time>
      </trkpt>
      <trkpt lat="43.40019" lon="2.56892">
        <ele>935.02</ele>
        <time>2019-04-14T11:45:55Z</time>
      </trkpt>
      <trkpt lat="43.40024" lon="2.56897">
        <ele>937.42</ele>
        <time>2019-04-14T11:46:03Z</time>
      </trkpt>
      <trkpt lat="43.40026" lon="2.56901">
        <ele>937.9</ele>
        <time>2019-04-14T11:46:09Z</time>
      </trkpt>
      <trkpt lat="43.40028" lon="2.56905">
        <ele>939.83</ele>
        <time>2019-04-14T11:46:13Z</time>
      </trkpt>
      <trkpt lat="43.40029" lon="2.56906">
        <ele>939.83</ele>
        <time>2019-04-14T11:46:15Z</time>
      </trkpt>
      <trkpt lat="43.40032" lon="2.56915">
        <ele>939.35</ele>
        <time>2019-04-14T11:46:23Z</time>
      </trkpt>
      <trkpt lat="43.40033" lon="2.56922">
        <ele>939.83</ele>
        <time>2019-04-14T11:46:30Z</time>
      </trkpt>
      <trkpt lat="43.40032" lon="2.56921">
        <ele>940.79</ele>
        <time>2019-04-14T11:46:35Z</time>
      </trkpt>
      <trkpt lat="43.40033" lon="2.56918">
        <ele>937.42</ele>
        <time>2019-04-14T11:46:43Z</time>
      </trkpt>
      <trkpt lat="43.40034" lon="2.56918">
        <ele>937.42</ele>
        <time>2019-04-14T11:46:44Z</time>
      </trkpt>
      <trkpt lat="43.40036" lon="2.56915">
        <ele>935.5</ele>
        <time>2019-04-14T11:46:51Z</time>
      </trkpt>
      <trkpt lat="43.40037" lon="2.56915">
        <ele>939.83</ele>
        <time>2019-04-14T11:46:53Z</time>
      </trkpt>
      <trkpt lat="43.40037" lon="2.56916">
        <ele>939.83</ele>
        <time>2019-04-14T11:46:54Z</time>
      </trkpt>
      <trkpt lat="43.40035" lon="2.56917">
        <ele>941.27</ele>
        <time>2019-04-14T11:47:05Z</time>
      </trkpt>
      <trkpt lat="43.40034" lon="2.56919">
        <ele>939.83</ele>
        <time>2019-04-14T11:47:20Z</time>
      </trkpt>
      <trkpt lat="43.40033" lon="2.56919">
        <ele>941.27</ele>
        <time>2019-04-14T11:47:39Z</time>
      </trkpt>
      <trkpt lat="43.40033" lon="2.56918">
        <ele>939.35</ele>
        <time>2019-04-14T11:47:43Z</time>
      </trkpt>
      <trkpt lat="43.40036" lon="2.56911">
        <ele>936.94</ele>
        <time>2019-04-14T11:47:51Z</time>
      </trkpt>
      <trkpt lat="43.40036" lon="2.56914">
        <ele>939.83</ele>
        <time>2019-04-14T11:48:01Z</time>
      </trkpt>
      <trkpt lat="43.40035" lon="2.56922">
        <ele>938.38</ele>
        <time>2019-04-14T11:48:13Z</time>
      </trkpt>
      <trkpt lat="43.40034" lon="2.56929">
        <ele>935.98</ele>
        <time>2019-04-14T11:48:21Z</time>
      </trkpt>
      <trkpt lat="43.40035" lon="2.56931">
        <ele>935.5</ele>
        <time>2019-04-14T11:48:23Z</time>
      </trkpt>
      <trkpt lat="43.40035" lon="2.56934">
        <ele>932.14</ele>
        <time>2019-04-14T11:48:26Z</time>
      </trkpt>
      <trkpt lat="43.40033" lon="2.56942">
        <ele>931.65</ele>
        <time>2019-04-14T11:48:35Z</time>
      </trkpt>
      <trkpt lat="43.40032" lon="2.56946">
        <ele>930.21</ele>
        <time>2019-04-14T11:48:40Z</time>
      </trkpt>
      <trkpt lat="43.40031" lon="2.5695">
        <ele>930.69</ele>
        <time>2019-04-14T11:48:49Z</time>
      </trkpt>
      <trkpt lat="43.40029" lon="2.56958">
        <ele>928.29</ele>
        <time>2019-04-14T11:48:56Z</time>
      </trkpt>
      <trkpt lat="43.40029" lon="2.5696">
        <ele>927.81</ele>
        <time>2019-04-14T11:48:57Z</time>
      </trkpt>
      <trkpt lat="43.40027" lon="2.56974">
        <ele>925.41</ele>
        <time>2019-04-14T11:49:07Z</time>
      </trkpt>
      <trkpt lat="43.40026" lon="2.56977">
        <ele>923.48</ele>
        <time>2019-04-14T11:49:10Z</time>
      </trkpt>
      <trkpt lat="43.40024" lon="2.56985">
        <ele>920.6</ele>
        <time>2019-04-14T11:49:16Z</time>
      </trkpt>
      <trkpt lat="43.4002" lon="2.57001">
        <ele>917.72</ele>
        <time>2019-04-14T11:49:25Z</time>
      </trkpt>
      <trkpt lat="43.40019" lon="2.57006">
        <ele>916.75</ele>
        <time>2019-04-14T11:49:28Z</time>
      </trkpt>
      <trkpt lat="43.40018" lon="2.57019">
        <ele>913.87</ele>
        <time>2019-04-14T11:49:36Z</time>
      </trkpt>
      <trkpt lat="43.40015" lon="2.57031">
        <ele>912.91</ele>
        <time>2019-04-14T11:49:44Z</time>
      </trkpt>
      <trkpt lat="43.40015" lon="2.57037">
        <ele>910.03</ele>
        <time>2019-04-14T11:49:52Z</time>
      </trkpt>
      <trkpt lat="43.40014" lon="2.57039">
        <ele>909.54</ele>
        <time>2019-04-14T11:49:59Z</time>
      </trkpt>
      <trkpt lat="43.40013" lon="2.57045">
        <ele>908.58</ele>
        <time>2019-04-14T11:50:02Z</time>
      </trkpt>
      <trkpt lat="43.4001" lon="2.57055">
        <ele>907.14</ele>
        <time>2019-04-14T11:50:09Z</time>
      </trkpt>
      <trkpt lat="43.40007" lon="2.5707">
        <ele>904.26</ele>
        <time>2019-04-14T11:50:18Z</time>
      </trkpt>
      <trkpt lat="43.40002" lon="2.57088">
        <ele>901.85</ele>
        <time>2019-04-14T11:50:27Z</time>
      </trkpt>
      <trkpt lat="43.39998" lon="2.57102">
        <ele>898.97</ele>
        <time>2019-04-14T11:50:36Z</time>
      </trkpt>
      <trkpt lat="43.39995" lon="2.57114">
        <ele>897.53</ele>
        <time>2019-04-14T11:50:44Z</time>
      </trkpt>
      <trkpt lat="43.39991" lon="2.57125">
        <ele>896.09</ele>
        <time>2019-04-14T11:50:51Z</time>
      </trkpt>
      <trkpt lat="43.39988" lon="2.57135">
        <ele>894.16</ele>
        <time>2019-04-14T11:50:58Z</time>
      </trkpt>
      <trkpt lat="43.39984" lon="2.57148">
        <ele>891.76</ele>
        <time>2019-04-14T11:51:07Z</time>
      </trkpt>
      <trkpt lat="43.39982" lon="2.5716">
        <ele>888.88</ele>
        <time>2019-04-14T11:51:15Z</time>
      </trkpt>
      <trkpt lat="43.39979" lon="2.5717">
        <ele>887.91</ele>
        <time>2019-04-14T11:51:23Z</time>
      </trkpt>
      <trkpt lat="43.39976" lon="2.57185">
        <ele>886.47</ele>
        <time>2019-04-14T11:51:32Z</time>
      </trkpt>
      <trkpt lat="43.39975" lon="2.57194">
        <ele>885.99</ele>
        <time>2019-04-14T11:51:39Z</time>
      </trkpt>
      <trkpt lat="43.39975" lon="2.57202">
        <ele>885.03</ele>
        <time>2019-04-14T11:51:43Z</time>
      </trkpt>
      <trkpt lat="43.39976" lon="2.57214">
        <ele>884.55</ele>
        <time>2019-04-14T11:51:48Z</time>
      </trkpt>
      <trkpt lat="43.39972" lon="2.5723">
        <ele>883.11</ele>
        <time>2019-04-14T11:51:57Z</time>
      </trkpt>
      <trkpt lat="43.39972" lon="2.57231">
        <ele>883.59</ele>
        <time>2019-04-14T11:51:58Z</time>
      </trkpt>
      <trkpt lat="43.3997" lon="2.57247">
        <ele>881.19</ele>
        <time>2019-04-14T11:52:07Z</time>
      </trkpt>
      <trkpt lat="43.39975" lon="2.57254">
        <ele>880.71</ele>
        <time>2019-04-14T11:52:13Z</time>
      </trkpt>
      <trkpt lat="43.39975" lon="2.57252">
        <ele>879.74</ele>
        <time>2019-04-14T11:52:16Z</time>
      </trkpt>
      <trkpt lat="43.39971" lon="2.5726">
        <ele>880.71</ele>
        <time>2019-04-14T11:52:25Z</time>
      </trkpt>
      <trkpt lat="43.39969" lon="2.57263">
        <ele>880.22</ele>
        <time>2019-04-14T11:52:42Z</time>
      </trkpt>
      <trkpt lat="43.39971" lon="2.57261">
        <ele>883.59</ele>
        <time>2019-04-14T11:52:53Z</time>
      </trkpt>
      <trkpt lat="43.39974" lon="2.57254">
        <ele>881.67</ele>
        <time>2019-04-14T11:53:00Z</time>
      </trkpt>
      <trkpt lat="43.39977" lon="2.57256">
        <ele>880.71</ele>
        <time>2019-04-14T11:53:11Z</time>
      </trkpt>
      <trkpt lat="43.39978" lon="2.57256">
        <ele>882.63</ele>
        <time>2019-04-14T11:53:14Z</time>
      </trkpt>
      <trkpt lat="43.39977" lon="2.57254">
        <ele>881.19</ele>
        <time>2019-04-14T11:53:33Z</time>
      </trkpt>
      <trkpt lat="43.39976" lon="2.57254">
        <ele>882.15</ele>
        <time>2019-04-14T11:53:47Z</time>
      </trkpt>
      <trkpt lat="43.39976" lon="2.57255">
        <ele>881.19</ele>
        <time>2019-04-14T11:54:08Z</time>
      </trkpt>
      <trkpt lat="43.39972" lon="2.57253">
        <ele>881.19</ele>
        <time>2019-04-14T11:54:19Z</time>
      </trkpt>
      <trkpt lat="43.39964" lon="2.57247">
        <ele>880.22</ele>
        <time>2019-04-14T11:54:27Z</time>
      </trkpt>
      <trkpt lat="43.39962" lon="2.57245">
        <ele>880.22</ele>
        <time>2019-04-14T11:54:29Z</time>
      </trkpt>
      <trkpt lat="43.39958" lon="2.57234">
        <ele>878.78</ele>
        <time>2019-04-14T11:54:39Z</time>
      </trkpt>
      <trkpt lat="43.39955" lon="2.57225">
        <ele>878.78</ele>
        <time>2019-04-14T11:54:47Z</time>
      </trkpt>
      <trkpt lat="43.39951" lon="2.57218">
        <ele>879.26</ele>
        <time>2019-04-14T11:54:55Z</time>
      </trkpt>
      <trkpt lat="43.3995" lon="2.57218">
        <ele>879.26</ele>
        <time>2019-04-14T11:54:56Z</time>
      </trkpt>
      <trkpt lat="43.39949" lon="2.57214">
        <ele>879.74</ele>
        <time>2019-04-14T11:55:00Z</time>
      </trkpt>
      <trkpt lat="43.39947" lon="2.57202">
        <ele>879.74</ele>
        <time>2019-04-14T11:55:08Z</time>
      </trkpt>
      <trkpt lat="43.39945" lon="2.5719">
        <ele>879.26</ele>
        <time>2019-04-14T11:55:17Z</time>
      </trkpt>
      <trkpt lat="43.39943" lon="2.57175">
        <ele>877.82</ele>
        <time>2019-04-14T11:55:26Z</time>
      </trkpt>
      <trkpt lat="43.39941" lon="2.57163">
        <ele>876.86</ele>
        <time>2019-04-14T11:55:34Z</time>
      </trkpt>
      <trkpt lat="43.39936" lon="2.57149">
        <ele>875.9</ele>
        <time>2019-04-14T11:55:43Z</time>
      </trkpt>
      <trkpt lat="43.39935" lon="2.57138">
        <ele>874.46</ele>
        <time>2019-04-14T11:55:51Z</time>
      </trkpt>
      <trkpt lat="43.39932" lon="2.57124">
        <ele>873.5</ele>
        <time>2019-04-14T11:56:00Z</time>
      </trkpt>
      <trkpt lat="43.39931" lon="2.57116">
        <ele>874.94</ele>
        <time>2019-04-14T11:56:05Z</time>
      </trkpt>
      <trkpt lat="43.39931" lon="2.57104">
        <ele>873.01</ele>
        <time>2019-04-14T11:56:12Z</time>
      </trkpt>
      <trkpt lat="43.3993" lon="2.57095">
        <ele>872.05</ele>
        <time>2019-04-14T11:56:18Z</time>
      </trkpt>
      <trkpt lat="43.39931" lon="2.57083">
        <ele>871.57</ele>
        <time>2019-04-14T11:56:25Z</time>
      </trkpt>
      <trkpt lat="43.39932" lon="2.57068">
        <ele>871.57</ele>
        <time>2019-04-14T11:56:34Z</time>
      </trkpt>
      <trkpt lat="43.39933" lon="2.57054">
        <ele>870.61</ele>
        <time>2019-04-14T11:56:43Z</time>
      </trkpt>
      <trkpt lat="43.39933" lon="2.57042">
        <ele>869.65</ele>
        <time>2019-04-14T11:56:50Z</time>
      </trkpt>
      <trkpt lat="43.39933" lon="2.5704">
        <ele>869.65</ele>
        <time>2019-04-14T11:56:52Z</time>
      </trkpt>
      <trkpt lat="43.39933" lon="2.57027">
        <ele>868.69</ele>
        <time>2019-04-14T11:56:59Z</time>
      </trkpt>
      <trkpt lat="43.39933" lon="2.57024">
        <ele>868.69</ele>
        <time>2019-04-14T11:57:01Z</time>
      </trkpt>
      <trkpt lat="43.39933" lon="2.57019">
        <ele>868.21</ele>
        <time>2019-04-14T11:57:04Z</time>
      </trkpt>
      <trkpt lat="43.39934" lon="2.57012">
        <ele>867.73</ele>
        <time>2019-04-14T11:57:09Z</time>
      </trkpt>
      <trkpt lat="43.39932" lon="2.57">
        <ele>867.25</ele>
        <time>2019-04-14T11:57:16Z</time>
      </trkpt>
      <trkpt lat="43.39926" lon="2.56988">
        <ele>866.77</ele>
        <time>2019-04-14T11:57:23Z</time>
      </trkpt>
      <trkpt lat="43.39918" lon="2.5698">
        <ele>866.77</ele>
        <time>2019-04-14T11:57:30Z</time>
      </trkpt>
      <trkpt lat="43.39914" lon="2.56972">
        <ele>865.8</ele>
        <time>2019-04-14T11:57:37Z</time>
      </trkpt>
      <trkpt lat="43.39907" lon="2.56963">
        <ele>864.84</ele>
        <time>2019-04-14T11:57:45Z</time>
      </trkpt>
      <trkpt lat="43.39906" lon="2.56961">
        <ele>864.36</ele>
        <time>2019-04-14T11:57:48Z</time>
      </trkpt>
      <trkpt lat="43.39902" lon="2.56954">
        <ele>863.88</ele>
        <time>2019-04-14T11:57:53Z</time>
      </trkpt>
      <trkpt lat="43.399" lon="2.56946">
        <ele>863.4</ele>
        <time>2019-04-14T11:57:58Z</time>
      </trkpt>
      <trkpt lat="43.39897" lon="2.56936">
        <ele>862.44</ele>
        <time>2019-04-14T11:58:06Z</time>
      </trkpt>
      <trkpt lat="43.39892" lon="2.56929">
        <ele>861.48</ele>
        <time>2019-04-14T11:58:14Z</time>
      </trkpt>
      <trkpt lat="43.39888" lon="2.56923">
        <ele>861</ele>
        <time>2019-04-14T11:58:21Z</time>
      </trkpt>
      <trkpt lat="43.39887" lon="2.56927">
        <ele>861.48</ele>
        <time>2019-04-14T11:58:29Z</time>
      </trkpt>
      <trkpt lat="43.39884" lon="2.56924">
        <ele>860.52</ele>
        <time>2019-04-14T11:58:40Z</time>
      </trkpt>
      <trkpt lat="43.39883" lon="2.56922">
        <ele>860.52</ele>
        <time>2019-04-14T11:58:51Z</time>
      </trkpt>
      <trkpt lat="43.39882" lon="2.5692">
        <ele>860.52</ele>
        <time>2019-04-14T11:59:07Z</time>
      </trkpt>
      <trkpt lat="43.39882" lon="2.56922">
        <ele>861.48</ele>
        <time>2019-04-14T11:59:14Z</time>
      </trkpt>
      <trkpt lat="43.39883" lon="2.56923">
        <ele>861.48</ele>
        <time>2019-04-14T11:59:19Z</time>
      </trkpt>
      <trkpt lat="43.39882" lon="2.56925">
        <ele>861</ele>
        <time>2019-04-14T11:59:32Z</time>
      </trkpt>
      <trkpt lat="43.3988" lon="2.56923">
        <ele>860.52</ele>
        <time>2019-04-14T11:59:35Z</time>
      </trkpt>
      <trkpt lat="43.39878" lon="2.56921">
        <ele>861</ele>
        <time>2019-04-14T11:59:37Z</time>
      </trkpt>
      <trkpt lat="43.39871" lon="2.56919">
        <ele>859.56</ele>
        <time>2019-04-14T11:59:45Z</time>
      </trkpt>
      <trkpt lat="43.39865" lon="2.56918">
        <ele>859.08</ele>
        <time>2019-04-14T11:59:51Z</time>
      </trkpt>
      <trkpt lat="43.39859" lon="2.56916">
        <ele>858.59</ele>
        <time>2019-04-14T11:59:56Z</time>
      </trkpt>
      <trkpt lat="43.39848" lon="2.56912">
        <ele>857.15</ele>
        <time>2019-04-14T12:00:05Z</time>
      </trkpt>
      <trkpt lat="43.39839" lon="2.5691">
        <ele>856.19</ele>
        <time>2019-04-14T12:00:14Z</time>
      </trkpt>
      <trkpt lat="43.39831" lon="2.56907">
        <ele>855.71</ele>
        <time>2019-04-14T12:00:21Z</time>
      </trkpt>
      <trkpt lat="43.39825" lon="2.56905">
        <ele>854.27</ele>
        <time>2019-04-14T12:00:28Z</time>
      </trkpt>
      <trkpt lat="43.39816" lon="2.56902">
        <ele>852.35</ele>
        <time>2019-04-14T12:00:35Z</time>
      </trkpt>
      <trkpt lat="43.3981" lon="2.56899">
        <ele>850.9</ele>
        <time>2019-04-14T12:00:40Z</time>
      </trkpt>
      <trkpt lat="43.39796" lon="2.56901">
        <ele>850.9</ele>
        <time>2019-04-14T12:00:49Z</time>
      </trkpt>
      <trkpt lat="43.39787" lon="2.56903">
        <ele>850.9</ele>
        <time>2019-04-14T12:00:57Z</time>
      </trkpt>
      <trkpt lat="43.39779" lon="2.56904">
        <ele>849.46</ele>
        <time>2019-04-14T12:01:04Z</time>
      </trkpt>
      <trkpt lat="43.39768" lon="2.56908">
        <ele>848.98</ele>
        <time>2019-04-14T12:01:14Z</time>
      </trkpt>
      <trkpt lat="43.3976" lon="2.56914">
        <ele>848.02</ele>
        <time>2019-04-14T12:01:21Z</time>
      </trkpt>
      <trkpt lat="43.39751" lon="2.56922">
        <ele>846.58</ele>
        <time>2019-04-14T12:01:30Z</time>
      </trkpt>
      <trkpt lat="43.39739" lon="2.56927">
        <ele>844.66</ele>
        <time>2019-04-14T12:01:40Z</time>
      </trkpt>
      <trkpt lat="43.39731" lon="2.56927">
        <ele>843.69</ele>
        <time>2019-04-14T12:01:47Z</time>
      </trkpt>
      <trkpt lat="43.3972" lon="2.56923">
        <ele>843.69</ele>
        <time>2019-04-14T12:01:57Z</time>
      </trkpt>
      <trkpt lat="43.39711" lon="2.5692">
        <ele>843.69</ele>
        <time>2019-04-14T12:02:05Z</time>
      </trkpt>
      <trkpt lat="43.39702" lon="2.56915">
        <ele>843.69</ele>
        <time>2019-04-14T12:02:13Z</time>
      </trkpt>
      <trkpt lat="43.39695" lon="2.56909">
        <ele>843.69</ele>
        <time>2019-04-14T12:02:20Z</time>
      </trkpt>
      <trkpt lat="43.39687" lon="2.56904">
        <ele>844.18</ele>
        <time>2019-04-14T12:02:28Z</time>
      </trkpt>
      <trkpt lat="43.39679" lon="2.56899">
        <ele>843.69</ele>
        <time>2019-04-14T12:02:36Z</time>
      </trkpt>
      <trkpt lat="43.39671" lon="2.56895">
        <ele>843.21</ele>
        <time>2019-04-14T12:02:46Z</time>
      </trkpt>
      <trkpt lat="43.39665" lon="2.56888">
        <ele>843.21</ele>
        <time>2019-04-14T12:02:54Z</time>
      </trkpt>
      <trkpt lat="43.39655" lon="2.5688">
        <ele>842.73</ele>
        <time>2019-04-14T12:03:04Z</time>
      </trkpt>
      <trkpt lat="43.39647" lon="2.56863">
        <ele>843.21</ele>
        <time>2019-04-14T12:03:15Z</time>
      </trkpt>
      <trkpt lat="43.39644" lon="2.56856">
        <ele>842.73</ele>
        <time>2019-04-14T12:03:17Z</time>
      </trkpt>
      <trkpt lat="43.3964" lon="2.56842">
        <ele>843.69</ele>
        <time>2019-04-14T12:03:26Z</time>
      </trkpt>
      <trkpt lat="43.39638" lon="2.56823">
        <ele>843.21</ele>
        <time>2019-04-14T12:03:36Z</time>
      </trkpt>
      <trkpt lat="43.39634" lon="2.56813">
        <ele>843.21</ele>
        <time>2019-04-14T12:03:43Z</time>
      </trkpt>
      <trkpt lat="43.39629" lon="2.568">
        <ele>843.21</ele>
        <time>2019-04-14T12:03:52Z</time>
      </trkpt>
      <trkpt lat="43.39628" lon="2.56787">
        <ele>842.73</ele>
        <time>2019-04-14T12:04:00Z</time>
      </trkpt>
      <trkpt lat="43.39623" lon="2.56775">
        <ele>842.73</ele>
        <time>2019-04-14T12:04:09Z</time>
      </trkpt>
      <trkpt lat="43.39619" lon="2.56759">
        <ele>843.21</ele>
        <time>2019-04-14T12:04:18Z</time>
      </trkpt>
      <trkpt lat="43.39616" lon="2.56746">
        <ele>843.21</ele>
        <time>2019-04-14T12:04:27Z</time>
      </trkpt>
      <trkpt lat="43.39613" lon="2.5673">
        <ele>843.69</ele>
        <time>2019-04-14T12:04:36Z</time>
      </trkpt>
      <trkpt lat="43.3961" lon="2.56719">
        <ele>843.69</ele>
        <time>2019-04-14T12:04:43Z</time>
      </trkpt>
      <trkpt lat="43.39606" lon="2.56703">
        <ele>844.18</ele>
        <time>2019-04-14T12:04:55Z</time>
      </trkpt>
      <trkpt lat="43.39602" lon="2.56692">
        <ele>844.66</ele>
        <time>2019-04-14T12:05:04Z</time>
      </trkpt>
      <trkpt lat="43.39598" lon="2.56677">
        <ele>844.66</ele>
        <time>2019-04-14T12:05:14Z</time>
      </trkpt>
      <trkpt lat="43.39593" lon="2.56661">
        <ele>843.69</ele>
        <time>2019-04-14T12:05:24Z</time>
      </trkpt>
      <trkpt lat="43.39592" lon="2.56643">
        <ele>843.69</ele>
        <time>2019-04-14T12:05:33Z</time>
      </trkpt>
      <trkpt lat="43.3959" lon="2.5663">
        <ele>843.21</ele>
        <time>2019-04-14T12:05:40Z</time>
      </trkpt>
      <trkpt lat="43.39588" lon="2.56615">
        <ele>843.21</ele>
        <time>2019-04-14T12:05:49Z</time>
      </trkpt>
      <trkpt lat="43.39584" lon="2.56598">
        <ele>843.21</ele>
        <time>2019-04-14T12:05:59Z</time>
      </trkpt>
      <trkpt lat="43.39584" lon="2.56583">
        <ele>843.69</ele>
        <time>2019-04-14T12:06:07Z</time>
      </trkpt>
      <trkpt lat="43.39581" lon="2.56572">
        <ele>843.21</ele>
        <time>2019-04-14T12:06:14Z</time>
      </trkpt>
      <trkpt lat="43.39578" lon="2.56558">
        <ele>843.21</ele>
        <time>2019-04-14T12:06:22Z</time>
      </trkpt>
      <trkpt lat="43.39577" lon="2.56547">
        <ele>843.69</ele>
        <time>2019-04-14T12:06:28Z</time>
      </trkpt>
      <trkpt lat="43.39576" lon="2.56532">
        <ele>844.18</ele>
        <time>2019-04-14T12:06:38Z</time>
      </trkpt>
      <trkpt lat="43.39576" lon="2.56519">
        <ele>843.21</ele>
        <time>2019-04-14T12:06:46Z</time>
      </trkpt>
      <trkpt lat="43.39575" lon="2.56508">
        <ele>843.69</ele>
        <time>2019-04-14T12:06:54Z</time>
      </trkpt>
      <trkpt lat="43.39577" lon="2.56491">
        <ele>843.69</ele>
        <time>2019-04-14T12:07:03Z</time>
      </trkpt>
      <trkpt lat="43.39578" lon="2.56478">
        <ele>844.66</ele>
        <time>2019-04-14T12:07:11Z</time>
      </trkpt>
      <trkpt lat="43.39578" lon="2.5647">
        <ele>844.66</ele>
        <time>2019-04-14T12:07:17Z</time>
      </trkpt>
      <trkpt lat="43.39578" lon="2.56468">
        <ele>844.18</ele>
        <time>2019-04-14T12:07:18Z</time>
      </trkpt>
      <trkpt lat="43.39578" lon="2.56453">
        <ele>845.14</ele>
        <time>2019-04-14T12:07:26Z</time>
      </trkpt>
      <trkpt lat="43.39581" lon="2.56438">
        <ele>845.62</ele>
        <time>2019-04-14T12:07:35Z</time>
      </trkpt>
      <trkpt lat="43.39582" lon="2.56425">
        <ele>845.62</ele>
        <time>2019-04-14T12:07:43Z</time>
      </trkpt>
      <trkpt lat="43.39587" lon="2.56411">
        <ele>843.21</ele>
        <time>2019-04-14T12:07:52Z</time>
      </trkpt>
      <trkpt lat="43.39588" lon="2.56407">
        <ele>845.62</ele>
        <time>2019-04-14T12:07:55Z</time>
      </trkpt>
      <trkpt lat="43.39591" lon="2.56395">
        <ele>843.69</ele>
        <time>2019-04-14T12:08:02Z</time>
      </trkpt>
      <trkpt lat="43.39592" lon="2.56384">
        <ele>843.21</ele>
        <time>2019-04-14T12:08:10Z</time>
      </trkpt>
      <trkpt lat="43.39596" lon="2.56378">
        <ele>841.77</ele>
        <time>2019-04-14T12:08:17Z</time>
      </trkpt>
      <trkpt lat="43.39598" lon="2.56376">
        <ele>841.29</ele>
        <time>2019-04-14T12:08:20Z</time>
      </trkpt>
      <trkpt lat="43.39602" lon="2.56368">
        <ele>840.33</ele>
        <time>2019-04-14T12:08:28Z</time>
      </trkpt>
      <trkpt lat="43.39598" lon="2.56358">
        <ele>838.89</ele>
        <time>2019-04-14T12:08:37Z</time>
      </trkpt>
      <trkpt lat="43.39595" lon="2.56352">
        <ele>836.48</ele>
        <time>2019-04-14T12:08:43Z</time>
      </trkpt>
      <trkpt lat="43.39591" lon="2.5635">
        <ele>834.56</ele>
        <time>2019-04-14T12:08:49Z</time>
      </trkpt>
      <trkpt lat="43.39588" lon="2.56346">
        <ele>832.64</ele>
        <time>2019-04-14T12:08:55Z</time>
      </trkpt>
      <trkpt lat="43.39583" lon="2.56339">
        <ele>830.72</ele>
        <time>2019-04-14T12:09:04Z</time>
      </trkpt>
      <trkpt lat="43.39581" lon="2.56337">
        <ele>829.27</ele>
        <time>2019-04-14T12:09:07Z</time>
      </trkpt>
      <trkpt lat="43.3958" lon="2.56335">
        <ele>828.79</ele>
        <time>2019-04-14T12:09:09Z</time>
      </trkpt>
      <trkpt lat="43.39571" lon="2.56326">
        <ele>826.87</ele>
        <time>2019-04-14T12:09:19Z</time>
      </trkpt>
      <trkpt lat="43.39565" lon="2.56319">
        <ele>825.91</ele>
        <time>2019-04-14T12:09:27Z</time>
      </trkpt>
      <trkpt lat="43.3956" lon="2.56316">
        <ele>823.99</ele>
        <time>2019-04-14T12:09:33Z</time>
      </trkpt>
      <trkpt lat="43.39555" lon="2.56308">
        <ele>822.55</ele>
        <time>2019-04-14T12:09:41Z</time>
      </trkpt>
      <trkpt lat="43.39552" lon="2.56304">
        <ele>823.03</ele>
        <time>2019-04-14T12:09:48Z</time>
      </trkpt>
      <trkpt lat="43.39546" lon="2.56298">
        <ele>821.58</ele>
        <time>2019-04-14T12:09:56Z</time>
      </trkpt>
      <trkpt lat="43.39543" lon="2.56294">
        <ele>819.66</ele>
        <time>2019-04-14T12:10:01Z</time>
      </trkpt>
      <trkpt lat="43.39538" lon="2.56289">
        <ele>818.7</ele>
        <time>2019-04-14T12:10:08Z</time>
      </trkpt>
      <trkpt lat="43.39532" lon="2.56282">
        <ele>815.82</ele>
        <time>2019-04-14T12:10:17Z</time>
      </trkpt>
      <trkpt lat="43.39531" lon="2.56282">
        <ele>815.82</ele>
        <time>2019-04-14T12:10:18Z</time>
      </trkpt>
      <trkpt lat="43.39528" lon="2.56279">
        <ele>812.93</ele>
        <time>2019-04-14T12:10:23Z</time>
      </trkpt>
      <trkpt lat="43.39523" lon="2.56274">
        <ele>814.37</ele>
        <time>2019-04-14T12:10:31Z</time>
      </trkpt>
      <trkpt lat="43.39518" lon="2.56268">
        <ele>811.49</ele>
        <time>2019-04-14T12:10:39Z</time>
      </trkpt>
      <trkpt lat="43.39517" lon="2.56268">
        <ele>811.49</ele>
        <time>2019-04-14T12:10:40Z</time>
      </trkpt>
      <trkpt lat="43.39511" lon="2.56259">
        <ele>810.53</ele>
        <time>2019-04-14T12:10:49Z</time>
      </trkpt>
      <trkpt lat="43.39504" lon="2.56249">
        <ele>808.61</ele>
        <time>2019-04-14T12:10:58Z</time>
      </trkpt>
      <trkpt lat="43.39498" lon="2.56241">
        <ele>807.64</ele>
        <time>2019-04-14T12:11:06Z</time>
      </trkpt>
      <trkpt lat="43.39494" lon="2.56236">
        <ele>806.2</ele>
        <time>2019-04-14T12:11:14Z</time>
      </trkpt>
      <trkpt lat="43.39488" lon="2.56229">
        <ele>804.76</ele>
        <time>2019-04-14T12:11:22Z</time>
      </trkpt>
      <trkpt lat="43.39483" lon="2.5622">
        <ele>803.32</ele>
        <time>2019-04-14T12:11:30Z</time>
      </trkpt>
      <trkpt lat="43.39477" lon="2.56214">
        <ele>800.44</ele>
        <time>2019-04-14T12:11:37Z</time>
      </trkpt>
      <trkpt lat="43.39475" lon="2.56212">
        <ele>800.44</ele>
        <time>2019-04-14T12:11:39Z</time>
      </trkpt>
      <trkpt lat="43.39471" lon="2.56206">
        <ele>802.36</ele>
        <time>2019-04-14T12:11:46Z</time>
      </trkpt>
      <trkpt lat="43.39471" lon="2.56205">
        <ele>802.84</ele>
        <time>2019-04-14T12:11:53Z</time>
      </trkpt>
      <trkpt lat="43.3947" lon="2.56209">
        <ele>803.32</ele>
        <time>2019-04-14T12:12:03Z</time>
      </trkpt>
      <trkpt lat="43.39469" lon="2.56209">
        <ele>802.84</ele>
        <time>2019-04-14T12:12:12Z</time>
      </trkpt>
      <trkpt lat="43.39467" lon="2.56208">
        <ele>802.84</ele>
        <time>2019-04-14T12:12:15Z</time>
      </trkpt>
      <trkpt lat="43.39462" lon="2.5621">
        <ele>801.88</ele>
        <time>2019-04-14T12:12:22Z</time>
      </trkpt>
      <trkpt lat="43.39452" lon="2.56209">
        <ele>800.92</ele>
        <time>2019-04-14T12:12:30Z</time>
      </trkpt>
      <trkpt lat="43.39451" lon="2.5621">
        <ele>800.92</ele>
        <time>2019-04-14T12:12:31Z</time>
      </trkpt>
      <trkpt lat="43.39442" lon="2.56209">
        <ele>800.92</ele>
        <time>2019-04-14T12:12:40Z</time>
      </trkpt>
      <trkpt lat="43.39432" lon="2.56205">
        <ele>800.92</ele>
        <time>2019-04-14T12:12:48Z</time>
      </trkpt>
      <trkpt lat="43.39424" lon="2.56202">
        <ele>799.95</ele>
        <time>2019-04-14T12:12:56Z</time>
      </trkpt>
      <trkpt lat="43.39414" lon="2.562">
        <ele>799.95</ele>
        <time>2019-04-14T12:13:06Z</time>
      </trkpt>
      <trkpt lat="43.39408" lon="2.56199">
        <ele>799.47</ele>
        <time>2019-04-14T12:13:14Z</time>
      </trkpt>
      <trkpt lat="43.39407" lon="2.562">
        <ele>799.95</ele>
        <time>2019-04-14T12:13:29Z</time>
      </trkpt>
      <trkpt lat="43.39402" lon="2.56198">
        <ele>798.99</ele>
        <time>2019-04-14T12:13:40Z</time>
      </trkpt>
      <trkpt lat="43.39392" lon="2.56197">
        <ele>798.51</ele>
        <time>2019-04-14T12:13:49Z</time>
      </trkpt>
      <trkpt lat="43.39381" lon="2.56196">
        <ele>798.99</ele>
        <time>2019-04-14T12:13:58Z</time>
      </trkpt>
      <trkpt lat="43.39369" lon="2.56199">
        <ele>798.03</ele>
        <time>2019-04-14T12:14:08Z</time>
      </trkpt>
      <trkpt lat="43.39356" lon="2.56201">
        <ele>798.51</ele>
        <time>2019-04-14T12:14:18Z</time>
      </trkpt>
      <trkpt lat="43.39344" lon="2.562">
        <ele>798.03</ele>
        <time>2019-04-14T12:14:27Z</time>
      </trkpt>
      <trkpt lat="43.39334" lon="2.56197">
        <ele>797.07</ele>
        <time>2019-04-14T12:14:35Z</time>
      </trkpt>
      <trkpt lat="43.39328" lon="2.56192">
        <ele>795.63</ele>
        <time>2019-04-14T12:14:41Z</time>
      </trkpt>
      <trkpt lat="43.39318" lon="2.56186">
        <ele>795.15</ele>
        <time>2019-04-14T12:14:49Z</time>
      </trkpt>
      <trkpt lat="43.39311" lon="2.56183">
        <ele>794.67</ele>
        <time>2019-04-14T12:14:56Z</time>
      </trkpt>
      <trkpt lat="43.39304" lon="2.56179">
        <ele>796.59</ele>
        <time>2019-04-14T12:15:02Z</time>
      </trkpt>
      <trkpt lat="43.39295" lon="2.56173">
        <ele>796.11</ele>
        <time>2019-04-14T12:15:10Z</time>
      </trkpt>
      <trkpt lat="43.39286" lon="2.56168">
        <ele>794.67</ele>
        <time>2019-04-14T12:15:18Z</time>
      </trkpt>
      <trkpt lat="43.39281" lon="2.56165">
        <ele>794.19</ele>
        <time>2019-04-14T12:15:22Z</time>
      </trkpt>
      <trkpt lat="43.39271" lon="2.56158">
        <ele>793.22</ele>
        <time>2019-04-14T12:15:31Z</time>
      </trkpt>
      <trkpt lat="43.39263" lon="2.56151">
        <ele>793.71</ele>
        <time>2019-04-14T12:15:38Z</time>
      </trkpt>
      <trkpt lat="43.39254" lon="2.56143">
        <ele>789.86</ele>
        <time>2019-04-14T12:15:46Z</time>
      </trkpt>
      <trkpt lat="43.39251" lon="2.56142">
        <ele>787.94</ele>
        <time>2019-04-14T12:15:48Z</time>
      </trkpt>
      <trkpt lat="43.39245" lon="2.56136">
        <ele>790.82</ele>
        <time>2019-04-14T12:15:54Z</time>
      </trkpt>
      <trkpt lat="43.39235" lon="2.56127">
        <ele>791.78</ele>
        <time>2019-04-14T12:16:04Z</time>
      </trkpt>
      <trkpt lat="43.39229" lon="2.56121">
        <ele>791.78</ele>
        <time>2019-04-14T12:16:10Z</time>
      </trkpt>
      <trkpt lat="43.39226" lon="2.56117">
        <ele>789.86</ele>
        <time>2019-04-14T12:16:13Z</time>
      </trkpt>
      <trkpt lat="43.39219" lon="2.5611">
        <ele>788.42</ele>
        <time>2019-04-14T12:16:20Z</time>
      </trkpt>
      <trkpt lat="43.39213" lon="2.561">
        <ele>788.42</ele>
        <time>2019-04-14T12:16:28Z</time>
      </trkpt>
      <trkpt lat="43.3921" lon="2.56097">
        <ele>786.98</ele>
        <time>2019-04-14T12:16:31Z</time>
      </trkpt>
      <trkpt lat="43.39205" lon="2.56088">
        <ele>788.9</ele>
        <time>2019-04-14T12:16:40Z</time>
      </trkpt>
      <trkpt lat="43.39204" lon="2.56087">
        <ele>788.9</ele>
        <time>2019-04-14T12:16:51Z</time>
      </trkpt>
      <trkpt lat="43.39204" lon="2.56088">
        <ele>787.94</ele>
        <time>2019-04-14T12:16:59Z</time>
      </trkpt>
      <trkpt lat="43.39199" lon="2.56076">
        <ele>786.02</ele>
        <time>2019-04-14T12:17:07Z</time>
      </trkpt>
      <trkpt lat="43.39198" lon="2.56075">
        <ele>786.02</ele>
        <time>2019-04-14T12:17:08Z</time>
      </trkpt>
      <trkpt lat="43.39194" lon="2.56069">
        <ele>786.5</ele>
        <time>2019-04-14T12:17:16Z</time>
      </trkpt>
      <trkpt lat="43.39191" lon="2.56061">
        <ele>787.46</ele>
        <time>2019-04-14T12:17:21Z</time>
      </trkpt>
      <trkpt lat="43.39183" lon="2.56046">
        <ele>785.53</ele>
        <time>2019-04-14T12:17:32Z</time>
      </trkpt>
      <trkpt lat="43.39176" lon="2.56035">
        <ele>783.61</ele>
        <time>2019-04-14T12:17:40Z</time>
      </trkpt>
      <trkpt lat="43.3917" lon="2.56024">
        <ele>783.61</ele>
        <time>2019-04-14T12:17:48Z</time>
      </trkpt>
      <trkpt lat="43.39161" lon="2.56011">
        <ele>783.13</ele>
        <time>2019-04-14T12:17:58Z</time>
      </trkpt>
      <trkpt lat="43.39151" lon="2.55999">
        <ele>782.17</ele>
        <time>2019-04-14T12:18:08Z</time>
      </trkpt>
      <trkpt lat="43.39143" lon="2.5599">
        <ele>781.21</ele>
        <time>2019-04-14T12:18:16Z</time>
      </trkpt>
      <trkpt lat="43.39137" lon="2.55981">
        <ele>781.21</ele>
        <time>2019-04-14T12:18:24Z</time>
      </trkpt>
      <trkpt lat="43.39127" lon="2.5597">
        <ele>781.21</ele>
        <time>2019-04-14T12:18:34Z</time>
      </trkpt>
      <trkpt lat="43.39117" lon="2.55965">
        <ele>779.77</ele>
        <time>2019-04-14T12:18:43Z</time>
      </trkpt>
      <trkpt lat="43.3911" lon="2.5596">
        <ele>779.29</ele>
        <time>2019-04-14T12:18:51Z</time>
      </trkpt>
      <trkpt lat="43.39102" lon="2.55952">
        <ele>778.32</ele>
        <time>2019-04-14T12:19:02Z</time>
      </trkpt>
      <trkpt lat="43.39097" lon="2.55947">
        <ele>777.36</ele>
        <time>2019-04-14T12:19:10Z</time>
      </trkpt>
      <trkpt lat="43.39098" lon="2.55948">
        <ele>777.36</ele>
        <time>2019-04-14T12:19:16Z</time>
      </trkpt>
      <trkpt lat="43.39096" lon="2.55946">
        <ele>778.32</ele>
        <time>2019-04-14T12:19:18Z</time>
      </trkpt>
      <trkpt lat="43.39086" lon="2.55938">
        <ele>777.84</ele>
        <time>2019-04-14T12:19:28Z</time>
      </trkpt>
      <trkpt lat="43.39086" lon="2.55938">
        <ele>777.36</ele>
        <time>2019-04-14T12:19:30Z</time>
      </trkpt>
      <trkpt lat="43.39083" lon="2.55935">
        <ele>776.4</ele>
        <time>2019-04-14T12:19:33Z</time>
      </trkpt>
      <trkpt lat="43.39074" lon="2.5593">
        <ele>776.4</ele>
        <time>2019-04-14T12:19:42Z</time>
      </trkpt>
      <trkpt lat="43.39063" lon="2.55927">
        <ele>775.44</ele>
        <time>2019-04-14T12:19:50Z</time>
      </trkpt>
      <trkpt lat="43.39053" lon="2.55926">
        <ele>774.48</ele>
        <time>2019-04-14T12:19:58Z</time>
      </trkpt>
      <trkpt lat="43.39045" lon="2.55923">
        <ele>774.48</ele>
        <time>2019-04-14T12:20:05Z</time>
      </trkpt>
      <trkpt lat="43.39042" lon="2.55923">
        <ele>773.52</ele>
        <time>2019-04-14T12:20:08Z</time>
      </trkpt>
      <trkpt lat="43.39031" lon="2.55918">
        <ele>773.52</ele>
        <time>2019-04-14T12:20:18Z</time>
      </trkpt>
      <trkpt lat="43.39019" lon="2.5591">
        <ele>772.56</ele>
        <time>2019-04-14T12:20:29Z</time>
      </trkpt>
      <trkpt lat="43.39009" lon="2.55902">
        <ele>772.08</ele>
        <time>2019-04-14T12:20:39Z</time>
      </trkpt>
      <trkpt lat="43.39" lon="2.55897">
        <ele>772.08</ele>
        <time>2019-04-14T12:20:47Z</time>
      </trkpt>
      <trkpt lat="43.38988" lon="2.55894">
        <ele>771.6</ele>
        <time>2019-04-14T12:20:57Z</time>
      </trkpt>
      <trkpt lat="43.38985" lon="2.55893">
        <ele>772.08</ele>
        <time>2019-04-14T12:21:00Z</time>
      </trkpt>
      <trkpt lat="43.38971" lon="2.5589">
        <ele>771.6</ele>
        <time>2019-04-14T12:21:11Z</time>
      </trkpt>
      <trkpt lat="43.38965" lon="2.5589">
        <ele>771.6</ele>
        <time>2019-04-14T12:21:17Z</time>
      </trkpt>
      <trkpt lat="43.38952" lon="2.55887">
        <ele>770.63</ele>
        <time>2019-04-14T12:21:28Z</time>
      </trkpt>
      <trkpt lat="43.38943" lon="2.55884">
        <ele>770.63</ele>
        <time>2019-04-14T12:21:36Z</time>
      </trkpt>
      <trkpt lat="43.38932" lon="2.5588">
        <ele>770.63</ele>
        <time>2019-04-14T12:21:45Z</time>
      </trkpt>
      <trkpt lat="43.38923" lon="2.55875">
        <ele>769.67</ele>
        <time>2019-04-14T12:21:55Z</time>
      </trkpt>
      <trkpt lat="43.38916" lon="2.55867">
        <ele>769.67</ele>
        <time>2019-04-14T12:22:04Z</time>
      </trkpt>
      <trkpt lat="43.38905" lon="2.55857">
        <ele>768.71</ele>
        <time>2019-04-14T12:22:14Z</time>
      </trkpt>
      <trkpt lat="43.38904" lon="2.55857">
        <ele>768.71</ele>
        <time>2019-04-14T12:22:15Z</time>
      </trkpt>
      <trkpt lat="43.38896" lon="2.55848">
        <ele>768.71</ele>
        <time>2019-04-14T12:22:25Z</time>
      </trkpt>
      <trkpt lat="43.38888" lon="2.55836">
        <ele>767.27</ele>
        <time>2019-04-14T12:22:34Z</time>
      </trkpt>
      <trkpt lat="43.38881" lon="2.55824">
        <ele>765.35</ele>
        <time>2019-04-14T12:22:42Z</time>
      </trkpt>
      <trkpt lat="43.38875" lon="2.55821">
        <ele>764.39</ele>
        <time>2019-04-14T12:22:49Z</time>
      </trkpt>
      <trkpt lat="43.38872" lon="2.5582">
        <ele>764.87</ele>
        <time>2019-04-14T12:22:57Z</time>
      </trkpt>
      <trkpt lat="43.38869" lon="2.55818">
        <ele>764.87</ele>
        <time>2019-04-14T12:23:05Z</time>
      </trkpt>
      <trkpt lat="43.38869" lon="2.55817">
        <ele>765.35</ele>
        <time>2019-04-14T12:23:06Z</time>
      </trkpt>
      <trkpt lat="43.38862" lon="2.55808">
        <ele>764.39</ele>
        <time>2019-04-14T12:23:14Z</time>
      </trkpt>
      <trkpt lat="43.38861" lon="2.55807">
        <ele>763.42</ele>
        <time>2019-04-14T12:23:15Z</time>
      </trkpt>
      <trkpt lat="43.38853" lon="2.55797">
        <ele>762.46</ele>
        <time>2019-04-14T12:23:23Z</time>
      </trkpt>
      <trkpt lat="43.38847" lon="2.55789">
        <ele>762.46</ele>
        <time>2019-04-14T12:23:29Z</time>
      </trkpt>
      <trkpt lat="43.38837" lon="2.55775">
        <ele>760.54</ele>
        <time>2019-04-14T12:23:39Z</time>
      </trkpt>
      <trkpt lat="43.38831" lon="2.55763">
        <ele>760.06</ele>
        <time>2019-04-14T12:23:48Z</time>
      </trkpt>
      <trkpt lat="43.38823" lon="2.55751">
        <ele>758.14</ele>
        <time>2019-04-14T12:23:57Z</time>
      </trkpt>
      <trkpt lat="43.38814" lon="2.55739">
        <ele>757.18</ele>
        <time>2019-04-14T12:24:07Z</time>
      </trkpt>
      <trkpt lat="43.38813" lon="2.55742">
        <ele>756.69</ele>
        <time>2019-04-14T12:24:20Z</time>
      </trkpt>
      <trkpt lat="43.38813" lon="2.55741">
        <ele>757.18</ele>
        <time>2019-04-14T12:24:33Z</time>
      </trkpt>
      <trkpt lat="43.38815" lon="2.55736">
        <ele>757.18</ele>
        <time>2019-04-14T12:24:50Z</time>
      </trkpt>
      <trkpt lat="43.38815" lon="2.55737">
        <ele>756.69</ele>
        <time>2019-04-14T12:25:09Z</time>
      </trkpt>
      <trkpt lat="43.38813" lon="2.55734">
        <ele>757.18</ele>
        <time>2019-04-14T12:25:18Z</time>
      </trkpt>
      <trkpt lat="43.38805" lon="2.55721">
        <ele>756.21</ele>
        <time>2019-04-14T12:25:27Z</time>
      </trkpt>
      <trkpt lat="43.38796" lon="2.55708">
        <ele>754.77</ele>
        <time>2019-04-14T12:25:36Z</time>
      </trkpt>
      <trkpt lat="43.38787" lon="2.55697">
        <ele>754.29</ele>
        <time>2019-04-14T12:25:45Z</time>
      </trkpt>
      <trkpt lat="43.38776" lon="2.55685">
        <ele>753.33</ele>
        <time>2019-04-14T12:25:51Z</time>
      </trkpt>
      <trkpt lat="43.38758" lon="2.55667">
        <ele>750.93</ele>
        <time>2019-04-14T12:26:00Z</time>
      </trkpt>
      <trkpt lat="43.38748" lon="2.55658">
        <ele>750.45</ele>
        <time>2019-04-14T12:26:07Z</time>
      </trkpt>
      <trkpt lat="43.38739" lon="2.55651">
        <ele>749.49</ele>
        <time>2019-04-14T12:26:15Z</time>
      </trkpt>
      <trkpt lat="43.38734" lon="2.55645">
        <ele>748.52</ele>
        <time>2019-04-14T12:26:23Z</time>
      </trkpt>
      <trkpt lat="43.38729" lon="2.55636">
        <ele>747.56</ele>
        <time>2019-04-14T12:26:30Z</time>
      </trkpt>
      <trkpt lat="43.38723" lon="2.55628">
        <ele>747.56</ele>
        <time>2019-04-14T12:26:38Z</time>
      </trkpt>
      <trkpt lat="43.38716" lon="2.55615">
        <ele>746.6</ele>
        <time>2019-04-14T12:26:48Z</time>
      </trkpt>
      <trkpt lat="43.38712" lon="2.55605">
        <ele>745.16</ele>
        <time>2019-04-14T12:26:55Z</time>
      </trkpt>
      <trkpt lat="43.38704" lon="2.55597">
        <ele>744.2</ele>
        <time>2019-04-14T12:27:04Z</time>
      </trkpt>
      <trkpt lat="43.38699" lon="2.55592">
        <ele>743.24</ele>
        <time>2019-04-14T12:27:13Z</time>
      </trkpt>
      <trkpt lat="43.387" lon="2.55593">
        <ele>743.72</ele>
        <time>2019-04-14T12:27:23Z</time>
      </trkpt>
      <trkpt lat="43.38698" lon="2.55591">
        <ele>743.24</ele>
        <time>2019-04-14T12:27:34Z</time>
      </trkpt>
      <trkpt lat="43.38694" lon="2.55592">
        <ele>742.76</ele>
        <time>2019-04-14T12:27:40Z</time>
      </trkpt>
      <trkpt lat="43.38693" lon="2.55593">
        <ele>741.79</ele>
        <time>2019-04-14T12:27:41Z</time>
      </trkpt>
      <trkpt lat="43.38686" lon="2.55597">
        <ele>740.83</ele>
        <time>2019-04-14T12:27:49Z</time>
      </trkpt>
      <trkpt lat="43.38679" lon="2.556">
        <ele>737.95</ele>
        <time>2019-04-14T12:27:56Z</time>
      </trkpt>
      <trkpt lat="43.38678" lon="2.55601">
        <ele>737.47</ele>
        <time>2019-04-14T12:27:57Z</time>
      </trkpt>
      <trkpt lat="43.38677" lon="2.556">
        <ele>736.51</ele>
        <time>2019-04-14T12:28:04Z</time>
      </trkpt>
      <trkpt lat="43.38668" lon="2.55606">
        <ele>734.1</ele>
        <time>2019-04-14T12:28:14Z</time>
      </trkpt>
      <trkpt lat="43.38663" lon="2.55609">
        <ele>733.14</ele>
        <time>2019-04-14T12:28:20Z</time>
      </trkpt>
      <trkpt lat="43.38654" lon="2.55614">
        <ele>730.26</ele>
        <time>2019-04-14T12:28:29Z</time>
      </trkpt>
      <trkpt lat="43.38645" lon="2.55618">
        <ele>727.86</ele>
        <time>2019-04-14T12:28:38Z</time>
      </trkpt>
      <trkpt lat="43.38636" lon="2.55622">
        <ele>726.41</ele>
        <time>2019-04-14T12:28:46Z</time>
      </trkpt>
      <trkpt lat="43.38626" lon="2.55626">
        <ele>725.93</ele>
        <time>2019-04-14T12:28:54Z</time>
      </trkpt>
      <trkpt lat="43.38614" lon="2.5563">
        <ele>724.49</ele>
        <time>2019-04-14T12:29:03Z</time>
      </trkpt>
      <trkpt lat="43.38603" lon="2.55631">
        <ele>724.49</ele>
        <time>2019-04-14T12:29:12Z</time>
      </trkpt>
      <trkpt lat="43.38598" lon="2.55634">
        <ele>725.45</ele>
        <time>2019-04-14T12:29:19Z</time>
      </trkpt>
      <trkpt lat="43.38591" lon="2.55638">
        <ele>724.49</ele>
        <time>2019-04-14T12:29:26Z</time>
      </trkpt>
      <trkpt lat="43.38589" lon="2.55638">
        <ele>724.01</ele>
        <time>2019-04-14T12:29:28Z</time>
      </trkpt>
      <trkpt lat="43.38579" lon="2.55642">
        <ele>721.13</ele>
        <time>2019-04-14T12:29:38Z</time>
      </trkpt>
      <trkpt lat="43.38571" lon="2.55646">
        <ele>718.72</ele>
        <time>2019-04-14T12:29:46Z</time>
      </trkpt>
      <trkpt lat="43.38559" lon="2.55648">
        <ele>718.24</ele>
        <time>2019-04-14T12:29:56Z</time>
      </trkpt>
      <trkpt lat="43.38551" lon="2.55649">
        <ele>716.32</ele>
        <time>2019-04-14T12:30:05Z</time>
      </trkpt>
      <trkpt lat="43.38545" lon="2.55648">
        <ele>715.36</ele>
        <time>2019-04-14T12:30:13Z</time>
      </trkpt>
      <trkpt lat="43.38537" lon="2.55652">
        <ele>715.36</ele>
        <time>2019-04-14T12:30:20Z</time>
      </trkpt>
      <trkpt lat="43.38529" lon="2.55656">
        <ele>714.4</ele>
        <time>2019-04-14T12:30:29Z</time>
      </trkpt>
      <trkpt lat="43.38523" lon="2.55658">
        <ele>714.4</ele>
        <time>2019-04-14T12:30:34Z</time>
      </trkpt>
      <trkpt lat="43.38511" lon="2.55657">
        <ele>713.44</ele>
        <time>2019-04-14T12:30:44Z</time>
      </trkpt>
      <trkpt lat="43.38503" lon="2.55655">
        <ele>712.47</ele>
        <time>2019-04-14T12:30:51Z</time>
      </trkpt>
      <trkpt lat="43.38496" lon="2.5565">
        <ele>711.03</ele>
        <time>2019-04-14T12:30:58Z</time>
      </trkpt>
      <trkpt lat="43.38489" lon="2.55647">
        <ele>710.07</ele>
        <time>2019-04-14T12:31:05Z</time>
      </trkpt>
      <trkpt lat="43.38482" lon="2.55645">
        <ele>708.63</ele>
        <time>2019-04-14T12:31:13Z</time>
      </trkpt>
      <trkpt lat="43.38474" lon="2.55643">
        <ele>707.67</ele>
        <time>2019-04-14T12:31:21Z</time>
      </trkpt>
      <trkpt lat="43.38469" lon="2.55637">
        <ele>706.23</ele>
        <time>2019-04-14T12:31:29Z</time>
      </trkpt>
      <trkpt lat="43.38466" lon="2.55633">
        <ele>704.78</ele>
        <time>2019-04-14T12:31:36Z</time>
      </trkpt>
      <trkpt lat="43.38461" lon="2.55626">
        <ele>703.34</ele>
        <time>2019-04-14T12:31:44Z</time>
      </trkpt>
      <trkpt lat="43.38458" lon="2.55623">
        <ele>702.38</ele>
        <time>2019-04-14T12:31:50Z</time>
      </trkpt>
      <trkpt lat="43.38454" lon="2.55616">
        <ele>699.98</ele>
        <time>2019-04-14T12:31:59Z</time>
      </trkpt>
      <trkpt lat="43.38448" lon="2.55609">
        <ele>698.05</ele>
        <time>2019-04-14T12:32:07Z</time>
      </trkpt>
      <trkpt lat="43.38444" lon="2.55603">
        <ele>696.61</ele>
        <time>2019-04-14T12:32:15Z</time>
      </trkpt>
      <trkpt lat="43.38443" lon="2.55599">
        <ele>694.69</ele>
        <time>2019-04-14T12:32:18Z</time>
      </trkpt>
      <trkpt lat="43.38438" lon="2.55592">
        <ele>693.73</ele>
        <time>2019-04-14T12:32:25Z</time>
      </trkpt>
      <trkpt lat="43.38435" lon="2.55588">
        <ele>693.25</ele>
        <time>2019-04-14T12:32:29Z</time>
      </trkpt>
      <trkpt lat="43.38431" lon="2.55582">
        <ele>690.36</ele>
        <time>2019-04-14T12:32:37Z</time>
      </trkpt>
      <trkpt lat="43.38426" lon="2.55575">
        <ele>688.44</ele>
        <time>2019-04-14T12:32:46Z</time>
      </trkpt>
      <trkpt lat="43.38422" lon="2.55571">
        <ele>687.96</ele>
        <time>2019-04-14T12:32:52Z</time>
      </trkpt>
      <trkpt lat="43.38416" lon="2.55562">
        <ele>685.08</ele>
        <time>2019-04-14T12:33:01Z</time>
      </trkpt>
      <trkpt lat="43.38412" lon="2.55554">
        <ele>683.15</ele>
        <time>2019-04-14T12:33:09Z</time>
      </trkpt>
      <trkpt lat="43.38405" lon="2.55548">
        <ele>681.71</ele>
        <time>2019-04-14T12:33:16Z</time>
      </trkpt>
      <trkpt lat="43.384" lon="2.55538">
        <ele>680.27</ele>
        <time>2019-04-14T12:33:25Z</time>
      </trkpt>
      <trkpt lat="43.38396" lon="2.55528">
        <ele>679.79</ele>
        <time>2019-04-14T12:33:33Z</time>
      </trkpt>
      <trkpt lat="43.38393" lon="2.55517">
        <ele>678.35</ele>
        <time>2019-04-14T12:33:41Z</time>
      </trkpt>
      <trkpt lat="43.38392" lon="2.55512">
        <ele>677.39</ele>
        <time>2019-04-14T12:33:44Z</time>
      </trkpt>
      <trkpt lat="43.38388" lon="2.55499">
        <ele>676.91</ele>
        <time>2019-04-14T12:33:52Z</time>
      </trkpt>
      <trkpt lat="43.38389" lon="2.55491">
        <ele>675.94</ele>
        <time>2019-04-14T12:34:01Z</time>
      </trkpt>
      <trkpt lat="43.38389" lon="2.55485">
        <ele>674.02</ele>
        <time>2019-04-14T12:34:08Z</time>
      </trkpt>
      <trkpt lat="43.38388" lon="2.55482">
        <ele>672.58</ele>
        <time>2019-04-14T12:34:12Z</time>
      </trkpt>
      <trkpt lat="43.38383" lon="2.55474">
        <ele>670.18</ele>
        <time>2019-04-14T12:34:21Z</time>
      </trkpt>
      <trkpt lat="43.38378" lon="2.55465">
        <ele>668.73</ele>
        <time>2019-04-14T12:34:31Z</time>
      </trkpt>
      <trkpt lat="43.38371" lon="2.55461">
        <ele>667.77</ele>
        <time>2019-04-14T12:34:40Z</time>
      </trkpt>
      <trkpt lat="43.38368" lon="2.55454">
        <ele>666.33</ele>
        <time>2019-04-14T12:34:47Z</time>
      </trkpt>
      <trkpt lat="43.38365" lon="2.55449">
        <ele>665.37</ele>
        <time>2019-04-14T12:34:52Z</time>
      </trkpt>
      <trkpt lat="43.38356" lon="2.55453">
        <ele>664.41</ele>
        <time>2019-04-14T12:34:59Z</time>
      </trkpt>
      <trkpt lat="43.3835" lon="2.55455">
        <ele>662.97</ele>
        <time>2019-04-14T12:35:06Z</time>
      </trkpt>
      <trkpt lat="43.38346" lon="2.55457">
        <ele>662.01</ele>
        <time>2019-04-14T12:35:11Z</time>
      </trkpt>
      <trkpt lat="43.3834" lon="2.55455">
        <ele>660.56</ele>
        <time>2019-04-14T12:35:18Z</time>
      </trkpt>
      <trkpt lat="43.38334" lon="2.5545">
        <ele>659.6</ele>
        <time>2019-04-14T12:35:29Z</time>
      </trkpt>
      <trkpt lat="43.38331" lon="2.55448">
        <ele>657.68</ele>
        <time>2019-04-14T12:35:33Z</time>
      </trkpt>
      <trkpt lat="43.38327" lon="2.55445">
        <ele>656.72</ele>
        <time>2019-04-14T12:35:40Z</time>
      </trkpt>
      <trkpt lat="43.38322" lon="2.55444">
        <ele>655.28</ele>
        <time>2019-04-14T12:35:46Z</time>
      </trkpt>
      <trkpt lat="43.38318" lon="2.55444">
        <ele>653.83</ele>
        <time>2019-04-14T12:35:53Z</time>
      </trkpt>
      <trkpt lat="43.38312" lon="2.5544">
        <ele>652.87</ele>
        <time>2019-04-14T12:35:59Z</time>
      </trkpt>
      <trkpt lat="43.38304" lon="2.55439">
        <ele>650.95</ele>
        <time>2019-04-14T12:36:08Z</time>
      </trkpt>
      <trkpt lat="43.383" lon="2.55436">
        <ele>649.03</ele>
        <time>2019-04-14T12:36:13Z</time>
      </trkpt>
      <trkpt lat="43.38297" lon="2.55426">
        <ele>648.07</ele>
        <time>2019-04-14T12:36:22Z</time>
      </trkpt>
      <trkpt lat="43.38291" lon="2.55418">
        <ele>646.14</ele>
        <time>2019-04-14T12:36:31Z</time>
      </trkpt>
      <trkpt lat="43.38289" lon="2.55413">
        <ele>645.66</ele>
        <time>2019-04-14T12:36:39Z</time>
      </trkpt>
      <trkpt lat="43.38286" lon="2.554">
        <ele>644.22</ele>
        <time>2019-04-14T12:36:47Z</time>
      </trkpt>
      <trkpt lat="43.38284" lon="2.55391">
        <ele>644.22</ele>
        <time>2019-04-14T12:36:54Z</time>
      </trkpt>
      <trkpt lat="43.38283" lon="2.55389">
        <ele>644.22</ele>
        <time>2019-04-14T12:36:55Z</time>
      </trkpt>
      <trkpt lat="43.38272" lon="2.5538">
        <ele>643.74</ele>
        <time>2019-04-14T12:37:04Z</time>
      </trkpt>
      <trkpt lat="43.38264" lon="2.55369">
        <ele>642.78</ele>
        <time>2019-04-14T12:37:13Z</time>
      </trkpt>
      <trkpt lat="43.38262" lon="2.55359">
        <ele>643.26</ele>
        <time>2019-04-14T12:37:22Z</time>
      </trkpt>
      <trkpt lat="43.38256" lon="2.55354">
        <ele>642.78</ele>
        <time>2019-04-14T12:37:30Z</time>
      </trkpt>
      <trkpt lat="43.38251" lon="2.55352">
        <ele>642.3</ele>
        <time>2019-04-14T12:37:40Z</time>
      </trkpt>
      <trkpt lat="43.38252" lon="2.55351">
        <ele>642.78</ele>
        <time>2019-04-14T12:37:57Z</time>
      </trkpt>
      <trkpt lat="43.38253" lon="2.55351">
        <ele>643.26</ele>
        <time>2019-04-14T12:38:11Z</time>
      </trkpt>
      <trkpt lat="43.38253" lon="2.55352">
        <ele>642.78</ele>
        <time>2019-04-14T12:38:21Z</time>
      </trkpt>
      <trkpt lat="43.38253" lon="2.55348">
        <ele>642.3</ele>
        <time>2019-04-14T12:38:32Z</time>
      </trkpt>
      <trkpt lat="43.38252" lon="2.5535">
        <ele>642.78</ele>
        <time>2019-04-14T12:38:46Z</time>
      </trkpt>
      <trkpt lat="43.38253" lon="2.55354">
        <ele>643.26</ele>
        <time>2019-04-14T12:38:54Z</time>
      </trkpt>
      <trkpt lat="43.38251" lon="2.55355">
        <ele>643.26</ele>
        <time>2019-04-14T12:39:09Z</time>
      </trkpt>
      <trkpt lat="43.38252" lon="2.55353">
        <ele>643.74</ele>
        <time>2019-04-14T12:39:18Z</time>
      </trkpt>
      <trkpt lat="43.3825" lon="2.55352">
        <ele>642.3</ele>
        <time>2019-04-14T12:39:35Z</time>
      </trkpt>
      <trkpt lat="43.38252" lon="2.55351">
        <ele>642.78</ele>
        <time>2019-04-14T12:39:47Z</time>
      </trkpt>
      <trkpt lat="43.38249" lon="2.55353">
        <ele>643.26</ele>
        <time>2019-04-14T12:40:03Z</time>
      </trkpt>
      <trkpt lat="43.3825" lon="2.55354">
        <ele>643.26</ele>
        <time>2019-04-14T12:40:20Z</time>
      </trkpt>
      <trkpt lat="43.38252" lon="2.55355">
        <ele>643.26</ele>
        <time>2019-04-14T12:40:34Z</time>
      </trkpt>
      <trkpt lat="43.38253" lon="2.55354">
        <ele>643.26</ele>
        <time>2019-04-14T12:40:51Z</time>
      </trkpt>
      <trkpt lat="43.38253" lon="2.55356">
        <ele>643.26</ele>
        <time>2019-04-14T12:41:08Z</time>
      </trkpt>
      <trkpt lat="43.38253" lon="2.55359">
        <ele>642.78</ele>
        <time>2019-04-14T12:41:25Z</time>
      </trkpt>
      <trkpt lat="43.38255" lon="2.55354">
        <ele>642.3</ele>
        <time>2019-04-14T12:41:44Z</time>
      </trkpt>
      <trkpt lat="43.38253" lon="2.55354">
        <ele>642.3</ele>
        <time>2019-04-14T12:42:01Z</time>
      </trkpt>
      <trkpt lat="43.38252" lon="2.55352">
        <ele>642.3</ele>
        <time>2019-04-14T12:42:11Z</time>
      </trkpt>
      <trkpt lat="43.38244" lon="2.55344">
        <ele>641.82</ele>
        <time>2019-04-14T12:42:19Z</time>
      </trkpt>
      <trkpt lat="43.38234" lon="2.55335">
        <ele>640.86</ele>
        <time>2019-04-14T12:42:30Z</time>
      </trkpt>
      <trkpt lat="43.38226" lon="2.55325">
        <ele>640.38</ele>
        <time>2019-04-14T12:42:39Z</time>
      </trkpt>
      <trkpt lat="43.38219" lon="2.55319">
        <ele>639.41</ele>
        <time>2019-04-14T12:42:47Z</time>
      </trkpt>
      <trkpt lat="43.38216" lon="2.55318">
        <ele>639.41</ele>
        <time>2019-04-14T12:42:54Z</time>
      </trkpt>
      <trkpt lat="43.38216" lon="2.55317">
        <ele>638.45</ele>
        <time>2019-04-14T12:43:01Z</time>
      </trkpt>
      <trkpt lat="43.38215" lon="2.55315">
        <ele>637.97</ele>
        <time>2019-04-14T12:43:03Z</time>
      </trkpt>
      <trkpt lat="43.38208" lon="2.55306">
        <ele>636.53</ele>
        <time>2019-04-14T12:43:11Z</time>
      </trkpt>
      <trkpt lat="43.38206" lon="2.55304">
        <ele>637.97</ele>
        <time>2019-04-14T12:43:15Z</time>
      </trkpt>
      <trkpt lat="43.38205" lon="2.55301">
        <ele>637.01</ele>
        <time>2019-04-14T12:43:17Z</time>
      </trkpt>
      <trkpt lat="43.38196" lon="2.55294">
        <ele>637.01</ele>
        <time>2019-04-14T12:43:25Z</time>
      </trkpt>
      <trkpt lat="43.38193" lon="2.55291">
        <ele>637.01</ele>
        <time>2019-04-14T12:43:32Z</time>
      </trkpt>
      <trkpt lat="43.38189" lon="2.55289">
        <ele>636.53</ele>
        <time>2019-04-14T12:43:43Z</time>
      </trkpt>
      <trkpt lat="43.38182" lon="2.55284">
        <ele>636.05</ele>
        <time>2019-04-14T12:43:51Z</time>
      </trkpt>
      <trkpt lat="43.38181" lon="2.55282">
        <ele>636.53</ele>
        <time>2019-04-14T12:43:54Z</time>
      </trkpt>
      <trkpt lat="43.3818" lon="2.55276">
        <ele>635.09</ele>
        <time>2019-04-14T12:43:57Z</time>
      </trkpt>
      <trkpt lat="43.38177" lon="2.5527">
        <ele>636.05</ele>
        <time>2019-04-14T12:44:01Z</time>
      </trkpt>
      <trkpt lat="43.38173" lon="2.55259">
        <ele>635.57</ele>
        <time>2019-04-14T12:44:08Z</time>
      </trkpt>
      <trkpt lat="43.38173" lon="2.55256">
        <ele>636.05</ele>
        <time>2019-04-14T12:44:10Z</time>
      </trkpt>
      <trkpt lat="43.38171" lon="2.55254">
        <ele>635.57</ele>
        <time>2019-04-14T12:44:12Z</time>
      </trkpt>
      <trkpt lat="43.38165" lon="2.55241">
        <ele>636.05</ele>
        <time>2019-04-14T12:44:22Z</time>
      </trkpt>
      <trkpt lat="43.38163" lon="2.55229">
        <ele>635.57</ele>
        <time>2019-04-14T12:44:30Z</time>
      </trkpt>
      <trkpt lat="43.38162" lon="2.55216">
        <ele>635.57</ele>
        <time>2019-04-14T12:44:37Z</time>
      </trkpt>
      <trkpt lat="43.38161" lon="2.55202">
        <ele>636.05</ele>
        <time>2019-04-14T12:44:45Z</time>
      </trkpt>
      <trkpt lat="43.38156" lon="2.55188">
        <ele>636.05</ele>
        <time>2019-04-14T12:44:55Z</time>
      </trkpt>
      <trkpt lat="43.38151" lon="2.5518">
        <ele>636.53</ele>
        <time>2019-04-14T12:45:03Z</time>
      </trkpt>
      <trkpt lat="43.38148" lon="2.55177">
        <ele>635.57</ele>
        <time>2019-04-14T12:45:13Z</time>
      </trkpt>
      <trkpt lat="43.38147" lon="2.55176">
        <ele>635.09</ele>
        <time>2019-04-14T12:45:23Z</time>
      </trkpt>
      <trkpt lat="43.38149" lon="2.55171">
        <ele>634.13</ele>
        <time>2019-04-14T12:45:32Z</time>
      </trkpt>
      <trkpt lat="43.38152" lon="2.5516">
        <ele>634.13</ele>
        <time>2019-04-14T12:45:38Z</time>
      </trkpt>
      <trkpt lat="43.38154" lon="2.55146">
        <ele>634.13</ele>
        <time>2019-04-14T12:45:46Z</time>
      </trkpt>
      <trkpt lat="43.38155" lon="2.5514">
        <ele>633.65</ele>
        <time>2019-04-14T12:45:53Z</time>
      </trkpt>
      <trkpt lat="43.38155" lon="2.55138">
        <ele>633.17</ele>
        <time>2019-04-14T12:45:57Z</time>
      </trkpt>
      <trkpt lat="43.38155" lon="2.5513">
        <ele>634.13</ele>
        <time>2019-04-14T12:46:06Z</time>
      </trkpt>
      <trkpt lat="43.38155" lon="2.55129">
        <ele>634.13</ele>
        <time>2019-04-14T12:46:20Z</time>
      </trkpt>
      <trkpt lat="43.38154" lon="2.55132">
        <ele>633.17</ele>
        <time>2019-04-14T12:46:34Z</time>
      </trkpt>
      <trkpt lat="43.38154" lon="2.55133">
        <ele>633.65</ele>
        <time>2019-04-14T12:46:35Z</time>
      </trkpt>
      <trkpt lat="43.3815" lon="2.55144">
        <ele>633.17</ele>
        <time>2019-04-14T12:46:44Z</time>
      </trkpt>
      <trkpt lat="43.38144" lon="2.55154">
        <ele>631.72</ele>
        <time>2019-04-14T12:46:51Z</time>
      </trkpt>
      <trkpt lat="43.3814" lon="2.55155">
        <ele>631.72</ele>
        <time>2019-04-14T12:46:59Z</time>
      </trkpt>
      <trkpt lat="43.38136" lon="2.55153">
        <ele>629.32</ele>
        <time>2019-04-14T12:47:08Z</time>
      </trkpt>
      <trkpt lat="43.38127" lon="2.5515">
        <ele>628.36</ele>
        <time>2019-04-14T12:47:16Z</time>
      </trkpt>
      <trkpt lat="43.38124" lon="2.55148">
        <ele>627.88</ele>
        <time>2019-04-14T12:47:23Z</time>
      </trkpt>
      <trkpt lat="43.38121" lon="2.55147">
        <ele>626.92</ele>
        <time>2019-04-14T12:47:33Z</time>
      </trkpt>
      <trkpt lat="43.38117" lon="2.55148">
        <ele>625.47</ele>
        <time>2019-04-14T12:47:37Z</time>
      </trkpt>
      <trkpt lat="43.38115" lon="2.55147">
        <ele>625.47</ele>
        <time>2019-04-14T12:47:41Z</time>
      </trkpt>
      <trkpt lat="43.38112" lon="2.55147">
        <ele>624.03</ele>
        <time>2019-04-14T12:47:44Z</time>
      </trkpt>
      <trkpt lat="43.38107" lon="2.5515">
        <ele>622.59</ele>
        <time>2019-04-14T12:47:51Z</time>
      </trkpt>
      <trkpt lat="43.38103" lon="2.55149">
        <ele>621.63</ele>
        <time>2019-04-14T12:47:56Z</time>
      </trkpt>
      <trkpt lat="43.38102" lon="2.55149">
        <ele>620.67</ele>
        <time>2019-04-14T12:47:57Z</time>
      </trkpt>
      <trkpt lat="43.381" lon="2.55148">
        <ele>620.19</ele>
        <time>2019-04-14T12:47:59Z</time>
      </trkpt>
      <trkpt lat="43.38095" lon="2.55145">
        <ele>617.78</ele>
        <time>2019-04-14T12:48:06Z</time>
      </trkpt>
      <trkpt lat="43.38095" lon="2.55143">
        <ele>616.82</ele>
        <time>2019-04-14T12:48:08Z</time>
      </trkpt>
      <trkpt lat="43.38095" lon="2.55136">
        <ele>613.94</ele>
        <time>2019-04-14T12:48:13Z</time>
      </trkpt>
      <trkpt lat="43.38093" lon="2.55132">
        <ele>612.5</ele>
        <time>2019-04-14T12:48:17Z</time>
      </trkpt>
      <trkpt lat="43.38091" lon="2.55125">
        <ele>611.54</ele>
        <time>2019-04-14T12:48:23Z</time>
      </trkpt>
      <trkpt lat="43.3809" lon="2.55119">
        <ele>611.06</ele>
        <time>2019-04-14T12:48:30Z</time>
      </trkpt>
      <trkpt lat="43.38087" lon="2.55112">
        <ele>610.09</ele>
        <time>2019-04-14T12:48:36Z</time>
      </trkpt>
      <trkpt lat="43.38082" lon="2.55106">
        <ele>607.69</ele>
        <time>2019-04-14T12:48:44Z</time>
      </trkpt>
      <trkpt lat="43.38079" lon="2.55103">
        <ele>607.21</ele>
        <time>2019-04-14T12:48:52Z</time>
      </trkpt>
      <trkpt lat="43.38078" lon="2.551">
        <ele>606.25</ele>
        <time>2019-04-14T12:48:55Z</time>
      </trkpt>
      <trkpt lat="43.38074" lon="2.55092">
        <ele>604.33</ele>
        <time>2019-04-14T12:49:01Z</time>
      </trkpt>
      <trkpt lat="43.38073" lon="2.55091">
        <ele>604.33</ele>
        <time>2019-04-14T12:49:02Z</time>
      </trkpt>
      <trkpt lat="43.38066" lon="2.5508">
        <ele>602.4</ele>
        <time>2019-04-14T12:49:11Z</time>
      </trkpt>
      <trkpt lat="43.38066" lon="2.55079">
        <ele>601.44</ele>
        <time>2019-04-14T12:49:14Z</time>
      </trkpt>
      <trkpt lat="43.38063" lon="2.55073">
        <ele>600</ele>
        <time>2019-04-14T12:49:22Z</time>
      </trkpt>
      <trkpt lat="43.38063" lon="2.55073">
        <ele>600</ele>
        <time>2019-04-14T12:49:30Z</time>
      </trkpt>
      <trkpt lat="43.3806" lon="2.55066">
        <ele>598.56</ele>
        <time>2019-04-14T12:49:38Z</time>
      </trkpt>
      <trkpt lat="43.3806" lon="2.55064">
        <ele>598.56</ele>
        <time>2019-04-14T12:49:39Z</time>
      </trkpt>
      <trkpt lat="43.38056" lon="2.55053">
        <ele>596.15</ele>
        <time>2019-04-14T12:49:44Z</time>
      </trkpt>
      <trkpt lat="43.38052" lon="2.55046">
        <ele>595.19</ele>
        <time>2019-04-14T12:49:51Z</time>
      </trkpt>
      <trkpt lat="43.38051" lon="2.55045">
        <ele>595.19</ele>
        <time>2019-04-14T12:49:53Z</time>
      </trkpt>
      <trkpt lat="43.38048" lon="2.55035">
        <ele>591.83</ele>
        <time>2019-04-14T12:50:02Z</time>
      </trkpt>
      <trkpt lat="43.38049" lon="2.55033">
        <ele>591.83</ele>
        <time>2019-04-14T12:50:04Z</time>
      </trkpt>
      <trkpt lat="43.38048" lon="2.55027">
        <ele>589.91</ele>
        <time>2019-04-14T12:50:09Z</time>
      </trkpt>
      <trkpt lat="43.38047" lon="2.55021">
        <ele>587.98</ele>
        <time>2019-04-14T12:50:15Z</time>
      </trkpt>
      <trkpt lat="43.38046" lon="2.55019">
        <ele>587.02</ele>
        <time>2019-04-14T12:50:23Z</time>
      </trkpt>
      <trkpt lat="43.3804" lon="2.55021">
        <ele>587.02</ele>
        <time>2019-04-14T12:50:41Z</time>
      </trkpt>
      <trkpt lat="43.38042" lon="2.55018">
        <ele>587.5</ele>
        <time>2019-04-14T12:50:56Z</time>
      </trkpt>
      <trkpt lat="43.38044" lon="2.55007">
        <ele>585.58</ele>
        <time>2019-04-14T12:51:02Z</time>
      </trkpt>
      <trkpt lat="43.38041" lon="2.54995">
        <ele>583.66</ele>
        <time>2019-04-14T12:51:09Z</time>
      </trkpt>
      <trkpt lat="43.38038" lon="2.54985">
        <ele>582.22</ele>
        <time>2019-04-14T12:51:17Z</time>
      </trkpt>
      <trkpt lat="43.38036" lon="2.54983">
        <ele>582.22</ele>
        <time>2019-04-14T12:51:22Z</time>
      </trkpt>
      <trkpt lat="43.38035" lon="2.54974">
        <ele>580.77</ele>
        <time>2019-04-14T12:51:28Z</time>
      </trkpt>
      <trkpt lat="43.38029" lon="2.54965">
        <ele>580.29</ele>
        <time>2019-04-14T12:51:36Z</time>
      </trkpt>
      <trkpt lat="43.38023" lon="2.54948">
        <ele>576.93</ele>
        <time>2019-04-14T12:51:46Z</time>
      </trkpt>
      <trkpt lat="43.38021" lon="2.54939">
        <ele>575.49</ele>
        <time>2019-04-14T12:51:53Z</time>
      </trkpt>
      <trkpt lat="43.38021" lon="2.54931">
        <ele>574.53</ele>
        <time>2019-04-14T12:51:59Z</time>
      </trkpt>
      <trkpt lat="43.3802" lon="2.54922">
        <ele>572.6</ele>
        <time>2019-04-14T12:52:06Z</time>
      </trkpt>
      <trkpt lat="43.38018" lon="2.54913">
        <ele>571.64</ele>
        <time>2019-04-14T12:52:13Z</time>
      </trkpt>
      <trkpt lat="43.38015" lon="2.54902">
        <ele>570.2</ele>
        <time>2019-04-14T12:52:21Z</time>
      </trkpt>
      <trkpt lat="43.38014" lon="2.5489">
        <ele>568.28</ele>
        <time>2019-04-14T12:52:29Z</time>
      </trkpt>
      <trkpt lat="43.38014" lon="2.54886">
        <ele>567.32</ele>
        <time>2019-04-14T12:52:35Z</time>
      </trkpt>
      <trkpt lat="43.38012" lon="2.54878">
        <ele>566.35</ele>
        <time>2019-04-14T12:52:42Z</time>
      </trkpt>
      <trkpt lat="43.38009" lon="2.54867">
        <ele>563.47</ele>
        <time>2019-04-14T12:52:51Z</time>
      </trkpt>
      <trkpt lat="43.38009" lon="2.54856">
        <ele>562.03</ele>
        <time>2019-04-14T12:52:59Z</time>
      </trkpt>
      <trkpt lat="43.38007" lon="2.54849">
        <ele>560.11</ele>
        <time>2019-04-14T12:53:08Z</time>
      </trkpt>
      <trkpt lat="43.38004" lon="2.54837">
        <ele>558.18</ele>
        <time>2019-04-14T12:53:16Z</time>
      </trkpt>
      <trkpt lat="43.38" lon="2.54828">
        <ele>557.22</ele>
        <time>2019-04-14T12:53:23Z</time>
      </trkpt>
      <trkpt lat="43.38" lon="2.54825">
        <ele>556.74</ele>
        <time>2019-04-14T12:53:25Z</time>
      </trkpt>
      <trkpt lat="43.37995" lon="2.54814">
        <ele>555.3</ele>
        <time>2019-04-14T12:53:34Z</time>
      </trkpt>
      <trkpt lat="43.37994" lon="2.54807">
        <ele>554.34</ele>
        <time>2019-04-14T12:53:40Z</time>
      </trkpt>
      <trkpt lat="43.37986" lon="2.54801">
        <ele>552.41</ele>
        <time>2019-04-14T12:53:49Z</time>
      </trkpt>
      <trkpt lat="43.37979" lon="2.54791">
        <ele>550.01</ele>
        <time>2019-04-14T12:53:58Z</time>
      </trkpt>
      <trkpt lat="43.37975" lon="2.54785">
        <ele>548.57</ele>
        <time>2019-04-14T12:54:04Z</time>
      </trkpt>
      <trkpt lat="43.37974" lon="2.54783">
        <ele>548.09</ele>
        <time>2019-04-14T12:54:06Z</time>
      </trkpt>
      <trkpt lat="43.37971" lon="2.54776">
        <ele>547.13</ele>
        <time>2019-04-14T12:54:13Z</time>
      </trkpt>
      <trkpt lat="43.37968" lon="2.5477">
        <ele>545.69</ele>
        <time>2019-04-14T12:54:22Z</time>
      </trkpt>
      <trkpt lat="43.37965" lon="2.54763">
        <ele>545.2</ele>
        <time>2019-04-14T12:54:28Z</time>
      </trkpt>
      <trkpt lat="43.37967" lon="2.54764">
        <ele>543.28</ele>
        <time>2019-04-14T12:54:31Z</time>
      </trkpt>
      <trkpt lat="43.37974" lon="2.54769">
        <ele>542.8</ele>
        <time>2019-04-14T12:54:39Z</time>
      </trkpt>
      <trkpt lat="43.37977" lon="2.54769">
        <ele>542.32</ele>
        <time>2019-04-14T12:54:42Z</time>
      </trkpt>
      <trkpt lat="43.37979" lon="2.54763">
        <ele>541.84</ele>
        <time>2019-04-14T12:54:45Z</time>
      </trkpt>
      <trkpt lat="43.37973" lon="2.54754">
        <ele>538.96</ele>
        <time>2019-04-14T12:54:52Z</time>
      </trkpt>
      <trkpt lat="43.37971" lon="2.54746">
        <ele>536.55</ele>
        <time>2019-04-14T12:55:00Z</time>
      </trkpt>
      <trkpt lat="43.37966" lon="2.54738">
        <ele>534.63</ele>
        <time>2019-04-14T12:55:08Z</time>
      </trkpt>
      <trkpt lat="43.37962" lon="2.54727">
        <ele>531.75</ele>
        <time>2019-04-14T12:55:17Z</time>
      </trkpt>
      <trkpt lat="43.37959" lon="2.54718">
        <ele>529.82</ele>
        <time>2019-04-14T12:55:28Z</time>
      </trkpt>
      <trkpt lat="43.37953" lon="2.54705">
        <ele>526.94</ele>
        <time>2019-04-14T12:55:36Z</time>
      </trkpt>
      <trkpt lat="43.37947" lon="2.54696">
        <ele>525.02</ele>
        <time>2019-04-14T12:55:44Z</time>
      </trkpt>
      <trkpt lat="43.37948" lon="2.54694">
        <ele>525.02</ele>
        <time>2019-04-14T12:55:45Z</time>
      </trkpt>
      <trkpt lat="43.37946" lon="2.54689">
        <ele>523.58</ele>
        <time>2019-04-14T12:55:48Z</time>
      </trkpt>
      <trkpt lat="43.3794" lon="2.54678">
        <ele>523.58</ele>
        <time>2019-04-14T12:55:56Z</time>
      </trkpt>
      <trkpt lat="43.37937" lon="2.54673">
        <ele>522.13</ele>
        <time>2019-04-14T12:56:04Z</time>
      </trkpt>
      <trkpt lat="43.37934" lon="2.54663">
        <ele>520.69</ele>
        <time>2019-04-14T12:56:11Z</time>
      </trkpt>
      <trkpt lat="43.37932" lon="2.54658">
        <ele>518.77</ele>
        <time>2019-04-14T12:56:15Z</time>
      </trkpt>
      <trkpt lat="43.37931" lon="2.54651">
        <ele>515.4</ele>
        <time>2019-04-14T12:56:23Z</time>
      </trkpt>
      <trkpt lat="43.37931" lon="2.5465">
        <ele>515.4</ele>
        <time>2019-04-14T12:56:24Z</time>
      </trkpt>
      <trkpt lat="43.37927" lon="2.54641">
        <ele>514.44</ele>
        <time>2019-04-14T12:56:31Z</time>
      </trkpt>
      <trkpt lat="43.37923" lon="2.5463">
        <ele>513.48</ele>
        <time>2019-04-14T12:56:39Z</time>
      </trkpt>
      <trkpt lat="43.37918" lon="2.54619">
        <ele>513</ele>
        <time>2019-04-14T12:56:46Z</time>
      </trkpt>
      <trkpt lat="43.37916" lon="2.54616">
        <ele>512.52</ele>
        <time>2019-04-14T12:56:49Z</time>
      </trkpt>
      <trkpt lat="43.37913" lon="2.54606">
        <ele>511.08</ele>
        <time>2019-04-14T12:56:57Z</time>
      </trkpt>
      <trkpt lat="43.37907" lon="2.54597">
        <ele>510.12</ele>
        <time>2019-04-14T12:57:05Z</time>
      </trkpt>
      <trkpt lat="43.37906" lon="2.54588">
        <ele>508.67</ele>
        <time>2019-04-14T12:57:12Z</time>
      </trkpt>
      <trkpt lat="43.37906" lon="2.5458">
        <ele>508.19</ele>
        <time>2019-04-14T12:57:20Z</time>
      </trkpt>
      <trkpt lat="43.37904" lon="2.54572">
        <ele>507.71</ele>
        <time>2019-04-14T12:57:26Z</time>
      </trkpt>
      <trkpt lat="43.37903" lon="2.54568">
        <ele>507.23</ele>
        <time>2019-04-14T12:57:29Z</time>
      </trkpt>
      <trkpt lat="43.379" lon="2.54555">
        <ele>506.75</ele>
        <time>2019-04-14T12:57:36Z</time>
      </trkpt>
      <trkpt lat="43.37901" lon="2.54542">
        <ele>506.27</ele>
        <time>2019-04-14T12:57:44Z</time>
      </trkpt>
      <trkpt lat="43.37904" lon="2.54529">
        <ele>506.75</ele>
        <time>2019-04-14T12:57:53Z</time>
      </trkpt>
      <trkpt lat="43.37906" lon="2.54531">
        <ele>505.31</ele>
        <time>2019-04-14T12:58:08Z</time>
      </trkpt>
      <trkpt lat="43.37908" lon="2.5453">
        <ele>505.79</ele>
        <time>2019-04-14T12:58:24Z</time>
      </trkpt>
      <trkpt lat="43.37909" lon="2.54526">
        <ele>505.79</ele>
        <time>2019-04-14T12:58:34Z</time>
      </trkpt>
      <trkpt lat="43.37909" lon="2.54529">
        <ele>504.35</ele>
        <time>2019-04-14T12:58:47Z</time>
      </trkpt>
      <trkpt lat="43.37908" lon="2.54531">
        <ele>504.35</ele>
        <time>2019-04-14T12:58:59Z</time>
      </trkpt>
      <trkpt lat="43.37905" lon="2.54529">
        <ele>503.39</ele>
        <time>2019-04-14T12:59:10Z</time>
      </trkpt>
      <trkpt lat="43.37904" lon="2.54529">
        <ele>503.87</ele>
        <time>2019-04-14T12:59:23Z</time>
      </trkpt>
      <trkpt lat="43.37905" lon="2.54529">
        <ele>504.83</ele>
        <time>2019-04-14T12:59:37Z</time>
      </trkpt>
      <trkpt lat="43.37903" lon="2.54529">
        <ele>506.27</ele>
        <time>2019-04-14T12:59:46Z</time>
      </trkpt>
      <trkpt lat="43.37903" lon="2.54528">
        <ele>504.35</ele>
        <time>2019-04-14T12:59:52Z</time>
      </trkpt>
      <trkpt lat="43.37902" lon="2.54528">
        <ele>503.87</ele>
        <time>2019-04-14T13:00:00Z</time>
      </trkpt>
      <trkpt lat="43.37901" lon="2.5453">
        <ele>501.95</ele>
        <time>2019-04-14T13:00:05Z</time>
      </trkpt>
      <trkpt lat="43.37901" lon="2.5453">
        <ele>505.79</ele>
        <time>2019-04-14T13:00:07Z</time>
      </trkpt>
      <trkpt lat="43.37901" lon="2.5453">
        <ele>505.79</ele>
        <time>2019-04-14T13:00:08Z</time>
      </trkpt>
      <trkpt lat="43.37901" lon="2.54527">
        <ele>503.87</ele>
        <time>2019-04-14T13:00:13Z</time>
      </trkpt>
      <trkpt lat="43.37902" lon="2.54525">
        <ele>504.83</ele>
        <time>2019-04-14T13:00:22Z</time>
      </trkpt>
      <trkpt lat="43.37902" lon="2.54523">
        <ele>504.35</ele>
        <time>2019-04-14T13:00:31Z</time>
      </trkpt>
      <trkpt lat="43.37902" lon="2.54525">
        <ele>505.31</ele>
        <time>2019-04-14T13:00:42Z</time>
      </trkpt>
      <trkpt lat="43.37901" lon="2.54524">
        <ele>505.79</ele>
        <time>2019-04-14T13:00:51Z</time>
      </trkpt>
      <trkpt lat="43.379" lon="2.54522">
        <ele>504.83</ele>
        <time>2019-04-14T13:00:54Z</time>
      </trkpt>
      <trkpt lat="43.37897" lon="2.54518">
        <ele>503.87</ele>
        <time>2019-04-14T13:00:58Z</time>
      </trkpt>
      <trkpt lat="43.37895" lon="2.54514">
        <ele>502.91</ele>
        <time>2019-04-14T13:01:05Z</time>
      </trkpt>
      <trkpt lat="43.37893" lon="2.54509">
        <ele>501.46</ele>
        <time>2019-04-14T13:01:10Z</time>
      </trkpt>
      <trkpt lat="43.3789" lon="2.54501">
        <ele>500.02</ele>
        <time>2019-04-14T13:01:17Z</time>
      </trkpt>
      <trkpt lat="43.37888" lon="2.54497">
        <ele>498.1</ele>
        <time>2019-04-14T13:01:20Z</time>
      </trkpt>
      <trkpt lat="43.37884" lon="2.54494">
        <ele>496.66</ele>
        <time>2019-04-14T13:01:26Z</time>
      </trkpt>
      <trkpt lat="43.37882" lon="2.54491">
        <ele>496.18</ele>
        <time>2019-04-14T13:01:28Z</time>
      </trkpt>
      <trkpt lat="43.37881" lon="2.5449">
        <ele>495.7</ele>
        <time>2019-04-14T13:01:29Z</time>
      </trkpt>
      <trkpt lat="43.3788" lon="2.54484">
        <ele>492.33</ele>
        <time>2019-04-14T13:01:34Z</time>
      </trkpt>
      <trkpt lat="43.37874" lon="2.54477">
        <ele>491.85</ele>
        <time>2019-04-14T13:01:42Z</time>
      </trkpt>
      <trkpt lat="43.3787" lon="2.54475">
        <ele>491.37</ele>
        <time>2019-04-14T13:01:52Z</time>
      </trkpt>
      <trkpt lat="43.37863" lon="2.54472">
        <ele>490.41</ele>
        <time>2019-04-14T13:02:00Z</time>
      </trkpt>
      <trkpt lat="43.37859" lon="2.54464">
        <ele>489.45</ele>
        <time>2019-04-14T13:02:07Z</time>
      </trkpt>
      <trkpt lat="43.37851" lon="2.54457">
        <ele>488.49</ele>
        <time>2019-04-14T13:02:16Z</time>
      </trkpt>
      <trkpt lat="43.37847" lon="2.54451">
        <ele>487.53</ele>
        <time>2019-04-14T13:02:23Z</time>
      </trkpt>
      <trkpt lat="43.3784" lon="2.54444">
        <ele>485.12</ele>
        <time>2019-04-14T13:02:31Z</time>
      </trkpt>
      <trkpt lat="43.37833" lon="2.54433">
        <ele>483.68</ele>
        <time>2019-04-14T13:02:39Z</time>
      </trkpt>
      <trkpt lat="43.37829" lon="2.54423">
        <ele>483.2</ele>
        <time>2019-04-14T13:02:45Z</time>
      </trkpt>
      <trkpt lat="43.37829" lon="2.5442">
        <ele>482.72</ele>
        <time>2019-04-14T13:02:54Z</time>
      </trkpt>
      <trkpt lat="43.37824" lon="2.54414">
        <ele>481.28</ele>
        <time>2019-04-14T13:03:00Z</time>
      </trkpt>
      <trkpt lat="43.37824" lon="2.54409">
        <ele>481.28</ele>
        <time>2019-04-14T13:03:04Z</time>
      </trkpt>
      <trkpt lat="43.37819" lon="2.54402">
        <ele>480.32</ele>
        <time>2019-04-14T13:03:10Z</time>
      </trkpt>
      <trkpt lat="43.37816" lon="2.54398">
        <ele>479.35</ele>
        <time>2019-04-14T13:03:13Z</time>
      </trkpt>
      <trkpt lat="43.37809" lon="2.54391">
        <ele>478.39</ele>
        <time>2019-04-14T13:03:21Z</time>
      </trkpt>
      <trkpt lat="43.37806" lon="2.54386">
        <ele>477.91</ele>
        <time>2019-04-14T13:03:27Z</time>
      </trkpt>
      <trkpt lat="43.37802" lon="2.54379">
        <ele>476.95</ele>
        <time>2019-04-14T13:03:34Z</time>
      </trkpt>
      <trkpt lat="43.37798" lon="2.54379">
        <ele>475.99</ele>
        <time>2019-04-14T13:03:40Z</time>
      </trkpt>
      <trkpt lat="43.378" lon="2.54373">
        <ele>474.55</ele>
        <time>2019-04-14T13:03:47Z</time>
      </trkpt>
      <trkpt lat="43.37803" lon="2.54366">
        <ele>472.63</ele>
        <time>2019-04-14T13:03:54Z</time>
      </trkpt>
      <trkpt lat="43.37803" lon="2.54354">
        <ele>469.74</ele>
        <time>2019-04-14T13:04:02Z</time>
      </trkpt>
      <trkpt lat="43.37805" lon="2.54345">
        <ele>467.82</ele>
        <time>2019-04-14T13:04:09Z</time>
      </trkpt>
      <trkpt lat="43.37805" lon="2.54343">
        <ele>467.34</ele>
        <time>2019-04-14T13:04:11Z</time>
      </trkpt>
      <trkpt lat="43.37804" lon="2.5433">
        <ele>464.45</ele>
        <time>2019-04-14T13:04:19Z</time>
      </trkpt>
      <trkpt lat="43.37802" lon="2.54315">
        <ele>461.57</ele>
        <time>2019-04-14T13:04:29Z</time>
      </trkpt>
      <trkpt lat="43.37798" lon="2.54306">
        <ele>461.09</ele>
        <time>2019-04-14T13:04:36Z</time>
      </trkpt>
      <trkpt lat="43.37796" lon="2.54302">
        <ele>460.13</ele>
        <time>2019-04-14T13:04:39Z</time>
      </trkpt>
      <trkpt lat="43.37794" lon="2.54291">
        <ele>458.21</ele>
        <time>2019-04-14T13:04:46Z</time>
      </trkpt>
      <trkpt lat="43.3779" lon="2.54283">
        <ele>456.28</ele>
        <time>2019-04-14T13:04:53Z</time>
      </trkpt>
      <trkpt lat="43.3779" lon="2.54272">
        <ele>455.32</ele>
        <time>2019-04-14T13:05:00Z</time>
      </trkpt>
      <trkpt lat="43.37793" lon="2.54269">
        <ele>454.84</ele>
        <time>2019-04-14T13:05:08Z</time>
      </trkpt>
      <trkpt lat="43.37795" lon="2.54266">
        <ele>456.28</ele>
        <time>2019-04-14T13:05:14Z</time>
      </trkpt>
      <trkpt lat="43.37799" lon="2.54265">
        <ele>453.88</ele>
        <time>2019-04-14T13:05:31Z</time>
      </trkpt>
      <trkpt lat="43.37795" lon="2.54265">
        <ele>454.36</ele>
        <time>2019-04-14T13:05:37Z</time>
      </trkpt>
      <trkpt lat="43.37791" lon="2.54266">
        <ele>452.44</ele>
        <time>2019-04-14T13:05:40Z</time>
      </trkpt>
      <trkpt lat="43.37793" lon="2.5426">
        <ele>451</ele>
        <time>2019-04-14T13:05:46Z</time>
      </trkpt>
      <trkpt lat="43.37796" lon="2.54253">
        <ele>450.52</ele>
        <time>2019-04-14T13:05:54Z</time>
      </trkpt>
      <trkpt lat="43.37796" lon="2.54251">
        <ele>449.55</ele>
        <time>2019-04-14T13:05:56Z</time>
      </trkpt>
      <trkpt lat="43.37797" lon="2.54247">
        <ele>449.07</ele>
        <time>2019-04-14T13:06:04Z</time>
      </trkpt>
      <trkpt lat="43.37797" lon="2.54247">
        <ele>449.07</ele>
        <time>2019-04-14T13:06:14Z</time>
      </trkpt>
      <trkpt lat="43.378" lon="2.5424">
        <ele>447.63</ele>
        <time>2019-04-14T13:06:25Z</time>
      </trkpt>
      <trkpt lat="43.37801" lon="2.54241">
        <ele>447.63</ele>
        <time>2019-04-14T13:06:32Z</time>
      </trkpt>
      <trkpt lat="43.37799" lon="2.54242">
        <ele>445.71</ele>
        <time>2019-04-14T13:06:50Z</time>
      </trkpt>
      <trkpt lat="43.37801" lon="2.54241">
        <ele>443.79</ele>
        <time>2019-04-14T13:06:56Z</time>
      </trkpt>
      <trkpt lat="43.37803" lon="2.5424">
        <ele>444.75</ele>
        <time>2019-04-14T13:06:59Z</time>
      </trkpt>
      <trkpt lat="43.37809" lon="2.54234">
        <ele>444.75</ele>
        <time>2019-04-14T13:07:06Z</time>
      </trkpt>
      <trkpt lat="43.37812" lon="2.54231">
        <ele>442.82</ele>
        <time>2019-04-14T13:07:09Z</time>
      </trkpt>
      <trkpt lat="43.37814" lon="2.54227">
        <ele>441.86</ele>
        <time>2019-04-14T13:07:11Z</time>
      </trkpt>
      <trkpt lat="43.37814" lon="2.54226">
        <ele>441.86</ele>
        <time>2019-04-14T13:07:12Z</time>
      </trkpt>
      <trkpt lat="43.37821" lon="2.54216">
        <ele>441.86</ele>
        <time>2019-04-14T13:07:21Z</time>
      </trkpt>
      <trkpt lat="43.37825" lon="2.54208">
        <ele>439.46</ele>
        <time>2019-04-14T13:07:28Z</time>
      </trkpt>
      <trkpt lat="43.37826" lon="2.54204">
        <ele>438.98</ele>
        <time>2019-04-14T13:07:30Z</time>
      </trkpt>
      <trkpt lat="43.3783" lon="2.5419">
        <ele>437.06</ele>
        <time>2019-04-14T13:07:38Z</time>
      </trkpt>
      <trkpt lat="43.37834" lon="2.54184">
        <ele>438.5</ele>
        <time>2019-04-14T13:07:45Z</time>
      </trkpt>
      <trkpt lat="43.37833" lon="2.54182">
        <ele>438.02</ele>
        <time>2019-04-14T13:07:46Z</time>
      </trkpt>
      <trkpt lat="43.37831" lon="2.54174">
        <ele>436.58</ele>
        <time>2019-04-14T13:07:53Z</time>
      </trkpt>
      <trkpt lat="43.3783" lon="2.54173">
        <ele>435.61</ele>
        <time>2019-04-14T13:07:55Z</time>
      </trkpt>
      <trkpt lat="43.37828" lon="2.54166">
        <ele>434.65</ele>
        <time>2019-04-14T13:08:03Z</time>
      </trkpt>
      <trkpt lat="43.37831" lon="2.54164">
        <ele>433.69</ele>
        <time>2019-04-14T13:08:14Z</time>
      </trkpt>
      <trkpt lat="43.37829" lon="2.54164">
        <ele>435.13</ele>
        <time>2019-04-14T13:08:28Z</time>
      </trkpt>
      <trkpt lat="43.3783" lon="2.54164">
        <ele>434.65</ele>
        <time>2019-04-14T13:08:43Z</time>
      </trkpt>
      <trkpt lat="43.3783" lon="2.54162">
        <ele>433.21</ele>
        <time>2019-04-14T13:08:55Z</time>
      </trkpt>
      <trkpt lat="43.37829" lon="2.54159">
        <ele>433.69</ele>
        <time>2019-04-14T13:08:57Z</time>
      </trkpt>
      <trkpt lat="43.37826" lon="2.54154">
        <ele>433.21</ele>
        <time>2019-04-14T13:09:03Z</time>
      </trkpt>
      <trkpt lat="43.37823" lon="2.54158">
        <ele>431.77</ele>
        <time>2019-04-14T13:09:10Z</time>
      </trkpt>
      <trkpt lat="43.37822" lon="2.5416">
        <ele>430.81</ele>
        <time>2019-04-14T13:09:12Z</time>
      </trkpt>
      <trkpt lat="43.3782" lon="2.54161">
        <ele>428.89</ele>
        <time>2019-04-14T13:09:19Z</time>
      </trkpt>
      <trkpt lat="43.3782" lon="2.54152">
        <ele>428.4</ele>
        <time>2019-04-14T13:09:27Z</time>
      </trkpt>
      <trkpt lat="43.3782" lon="2.54148">
        <ele>428.4</ele>
        <time>2019-04-14T13:09:30Z</time>
      </trkpt>
      <trkpt lat="43.37819" lon="2.54142">
        <ele>427.92</ele>
        <time>2019-04-14T13:09:34Z</time>
      </trkpt>
      <trkpt lat="43.3782" lon="2.54134">
        <ele>427.44</ele>
        <time>2019-04-14T13:09:39Z</time>
      </trkpt>
      <trkpt lat="43.3782" lon="2.54122">
        <ele>426</ele>
        <time>2019-04-14T13:09:48Z</time>
      </trkpt>
      <trkpt lat="43.37821" lon="2.54115">
        <ele>425.52</ele>
        <time>2019-04-14T13:09:56Z</time>
      </trkpt>
      <trkpt lat="43.37821" lon="2.54112">
        <ele>426</ele>
        <time>2019-04-14T13:10:04Z</time>
      </trkpt>
      <trkpt lat="43.37825" lon="2.54104">
        <ele>425.52</ele>
        <time>2019-04-14T13:10:12Z</time>
      </trkpt>
      <trkpt lat="43.37825" lon="2.54104">
        <ele>426</ele>
        <time>2019-04-14T13:10:13Z</time>
      </trkpt>
      <trkpt lat="43.37829" lon="2.541">
        <ele>424.56</ele>
        <time>2019-04-14T13:10:21Z</time>
      </trkpt>
      <trkpt lat="43.3783" lon="2.54097">
        <ele>426.48</ele>
        <time>2019-04-14T13:10:35Z</time>
      </trkpt>
      <trkpt lat="43.37828" lon="2.54099">
        <ele>426</ele>
        <time>2019-04-14T13:10:43Z</time>
      </trkpt>
      <trkpt lat="43.3783" lon="2.54097">
        <ele>425.04</ele>
        <time>2019-04-14T13:10:47Z</time>
      </trkpt>
      <trkpt lat="43.37837" lon="2.54093">
        <ele>425.04</ele>
        <time>2019-04-14T13:10:55Z</time>
      </trkpt>
      <trkpt lat="43.37842" lon="2.54086">
        <ele>424.08</ele>
        <time>2019-04-14T13:11:04Z</time>
      </trkpt>
      <trkpt lat="43.37844" lon="2.54081">
        <ele>422.64</ele>
        <time>2019-04-14T13:11:09Z</time>
      </trkpt>
      <trkpt lat="43.3785" lon="2.54077">
        <ele>421.19</ele>
        <time>2019-04-14T13:11:18Z</time>
      </trkpt>
      <trkpt lat="43.37853" lon="2.54076">
        <ele>420.71</ele>
        <time>2019-04-14T13:11:22Z</time>
      </trkpt>
      <trkpt lat="43.37859" lon="2.54078">
        <ele>421.19</ele>
        <time>2019-04-14T13:11:36Z</time>
      </trkpt>
      <trkpt lat="43.37861" lon="2.54074">
        <ele>420.71</ele>
        <time>2019-04-14T13:11:45Z</time>
      </trkpt>
      <trkpt lat="43.37867" lon="2.54069">
        <ele>419.27</ele>
        <time>2019-04-14T13:11:52Z</time>
      </trkpt>
      <trkpt lat="43.37868" lon="2.54069">
        <ele>419.27</ele>
        <time>2019-04-14T13:11:59Z</time>
      </trkpt>
      <trkpt lat="43.37868" lon="2.5407">
        <ele>418.79</ele>
        <time>2019-04-14T13:12:09Z</time>
      </trkpt>
      <trkpt lat="43.37869" lon="2.54073">
        <ele>419.27</ele>
        <time>2019-04-14T13:12:15Z</time>
      </trkpt>
      <trkpt lat="43.37869" lon="2.54081">
        <ele>421.19</ele>
        <time>2019-04-14T13:12:21Z</time>
      </trkpt>
      <trkpt lat="43.37873" lon="2.54091">
        <ele>422.64</ele>
        <time>2019-04-14T13:12:30Z</time>
      </trkpt>
      <trkpt lat="43.37876" lon="2.54088">
        <ele>422.16</ele>
        <time>2019-04-14T13:12:35Z</time>
      </trkpt>
      <trkpt lat="43.37878" lon="2.54082">
        <ele>422.64</ele>
        <time>2019-04-14T13:12:40Z</time>
      </trkpt>
      <trkpt lat="43.37878" lon="2.54072">
        <ele>424.08</ele>
        <time>2019-04-14T13:12:49Z</time>
      </trkpt>
      <trkpt lat="43.3788" lon="2.54065">
        <ele>425.52</ele>
        <time>2019-04-14T13:12:56Z</time>
      </trkpt>
      <trkpt lat="43.37881" lon="2.54061">
        <ele>426.96</ele>
        <time>2019-04-14T13:13:04Z</time>
      </trkpt>
      <trkpt lat="43.37883" lon="2.54056">
        <ele>427.92</ele>
        <time>2019-04-14T13:13:15Z</time>
      </trkpt>
      <trkpt lat="43.37885" lon="2.54056">
        <ele>429.37</ele>
        <time>2019-04-14T13:13:23Z</time>
      </trkpt>
      <trkpt lat="43.3789" lon="2.54058">
        <ele>431.29</ele>
        <time>2019-04-14T13:13:31Z</time>
      </trkpt>
      <trkpt lat="43.37893" lon="2.54058">
        <ele>434.65</ele>
        <time>2019-04-14T13:13:39Z</time>
      </trkpt>
      <trkpt lat="43.37894" lon="2.54056">
        <ele>434.65</ele>
        <time>2019-04-14T13:13:40Z</time>
      </trkpt>
      <trkpt lat="43.37898" lon="2.5405">
        <ele>436.1</ele>
        <time>2019-04-14T13:13:49Z</time>
      </trkpt>
      <trkpt lat="43.37897" lon="2.54039">
        <ele>436.1</ele>
        <time>2019-04-14T13:13:58Z</time>
      </trkpt>
      <trkpt lat="43.37898" lon="2.54038">
        <ele>435.61</ele>
        <time>2019-04-14T13:14:05Z</time>
      </trkpt>
      <trkpt lat="43.37899" lon="2.54037">
        <ele>435.13</ele>
        <time>2019-04-14T13:14:10Z</time>
      </trkpt>
      <trkpt lat="43.37899" lon="2.54031">
        <ele>434.65</ele>
        <time>2019-04-14T13:14:14Z</time>
      </trkpt>
      <trkpt lat="43.37901" lon="2.5402">
        <ele>434.65</ele>
        <time>2019-04-14T13:14:22Z</time>
      </trkpt>
      <trkpt lat="43.37904" lon="2.54015">
        <ele>434.65</ele>
        <time>2019-04-14T13:14:30Z</time>
      </trkpt>
      <trkpt lat="43.37904" lon="2.54018">
        <ele>436.58</ele>
        <time>2019-04-14T13:14:34Z</time>
      </trkpt>
      <trkpt lat="43.37906" lon="2.54025">
        <ele>438.98</ele>
        <time>2019-04-14T13:14:44Z</time>
      </trkpt>
      <trkpt lat="43.37909" lon="2.54022">
        <ele>441.38</ele>
        <time>2019-04-14T13:14:53Z</time>
      </trkpt>
      <trkpt lat="43.37909" lon="2.54017">
        <ele>443.31</ele>
        <time>2019-04-14T13:15:01Z</time>
      </trkpt>
      <trkpt lat="43.37909" lon="2.54017">
        <ele>443.31</ele>
        <time>2019-04-14T13:15:02Z</time>
      </trkpt>
      <trkpt lat="43.37905" lon="2.54014">
        <ele>443.31</ele>
        <time>2019-04-14T13:15:10Z</time>
      </trkpt>
      <trkpt lat="43.37902" lon="2.54009">
        <ele>443.31</ele>
        <time>2019-04-14T13:15:23Z</time>
      </trkpt>
      <trkpt lat="43.37898" lon="2.54009">
        <ele>442.34</ele>
        <time>2019-04-14T13:15:33Z</time>
      </trkpt>
      <trkpt lat="43.37886" lon="2.54004">
        <ele>441.38</ele>
        <time>2019-04-14T13:15:43Z</time>
      </trkpt>
      <trkpt lat="43.37887" lon="2.54005">
        <ele>440.42</ele>
        <time>2019-04-14T13:15:45Z</time>
      </trkpt>
      <trkpt lat="43.37908" lon="2.54028">
        <ele>441.86</ele>
        <time>2019-04-14T13:15:53Z</time>
      </trkpt>
      <trkpt lat="43.37911" lon="2.5403">
        <ele>443.31</ele>
        <time>2019-04-14T13:16:01Z</time>
      </trkpt>
      <trkpt lat="43.37909" lon="2.54031">
        <ele>441.38</ele>
        <time>2019-04-14T13:16:04Z</time>
      </trkpt>
      <trkpt lat="43.37909" lon="2.54032">
        <ele>442.34</ele>
        <time>2019-04-14T13:16:11Z</time>
      </trkpt>
      <trkpt lat="43.37906" lon="2.54042">
        <ele>439.94</ele>
        <time>2019-04-14T13:16:19Z</time>
      </trkpt>
      <trkpt lat="43.37905" lon="2.54046">
        <ele>439.94</ele>
        <time>2019-04-14T13:16:26Z</time>
      </trkpt>
      <trkpt lat="43.37907" lon="2.54046">
        <ele>438.98</ele>
        <time>2019-04-14T13:16:42Z</time>
      </trkpt>
      <trkpt lat="43.3791" lon="2.54046">
        <ele>439.46</ele>
        <time>2019-04-14T13:16:49Z</time>
      </trkpt>
      <trkpt lat="43.37912" lon="2.54045">
        <ele>440.42</ele>
        <time>2019-04-14T13:16:56Z</time>
      </trkpt>
      <trkpt lat="43.37912" lon="2.54047">
        <ele>441.86</ele>
        <time>2019-04-14T13:17:08Z</time>
      </trkpt>
      <trkpt lat="43.37913" lon="2.54046">
        <ele>441.86</ele>
        <time>2019-04-14T13:17:23Z</time>
      </trkpt>
      <trkpt lat="43.37912" lon="2.54043">
        <ele>441.86</ele>
        <time>2019-04-14T13:17:34Z</time>
      </trkpt>
      <trkpt lat="43.37913" lon="2.54044">
        <ele>442.34</ele>
        <time>2019-04-14T13:17:47Z</time>
      </trkpt>
      <trkpt lat="43.37913" lon="2.54046">
        <ele>441.38</ele>
        <time>2019-04-14T13:17:57Z</time>
      </trkpt>
      <trkpt lat="43.37914" lon="2.54045">
        <ele>440.42</ele>
        <time>2019-04-14T13:18:10Z</time>
      </trkpt>
      <trkpt lat="43.37911" lon="2.54046">
        <ele>440.42</ele>
        <time>2019-04-14T13:18:23Z</time>
      </trkpt>
      <trkpt lat="43.37908" lon="2.54045">
        <ele>439.46</ele>
        <time>2019-04-14T13:18:29Z</time>
      </trkpt>
      <trkpt lat="43.37903" lon="2.54043">
        <ele>438.02</ele>
        <time>2019-04-14T13:18:40Z</time>
      </trkpt>
      <trkpt lat="43.37905" lon="2.54043">
        <ele>438.5</ele>
        <time>2019-04-14T13:18:57Z</time>
      </trkpt>
      <trkpt lat="43.37906" lon="2.54046">
        <ele>438.5</ele>
        <time>2019-04-14T13:19:09Z</time>
      </trkpt>
      <trkpt lat="43.37905" lon="2.54044">
        <ele>438.98</ele>
        <time>2019-04-14T13:19:11Z</time>
      </trkpt>
      <trkpt lat="43.37906" lon="2.54041">
        <ele>439.94</ele>
        <time>2019-04-14T13:19:19Z</time>
      </trkpt>
      <trkpt lat="43.37906" lon="2.54041">
        <ele>439.94</ele>
        <time>2019-04-14T13:19:22Z</time>
      </trkpt>
      <trkpt lat="43.37906" lon="2.54039">
        <ele>439.46</ele>
        <time>2019-04-14T13:19:24Z</time>
      </trkpt>
      <trkpt lat="43.37909" lon="2.5403">
        <ele>439.94</ele>
        <time>2019-04-14T13:19:32Z</time>
      </trkpt>
      <trkpt lat="43.37908" lon="2.54023">
        <ele>438.02</ele>
        <time>2019-04-14T13:19:39Z</time>
      </trkpt>
      <trkpt lat="43.37908" lon="2.54023">
        <ele>438.02</ele>
        <time>2019-04-14T13:19:51Z</time>
      </trkpt>
      <trkpt lat="43.37907" lon="2.54017">
        <ele>435.13</ele>
        <time>2019-04-14T13:19:58Z</time>
      </trkpt>
      <trkpt lat="43.37906" lon="2.54013">
        <ele>432.73</ele>
        <time>2019-04-14T13:20:03Z</time>
      </trkpt>
      <trkpt lat="43.37904" lon="2.54016">
        <ele>431.77</ele>
        <time>2019-04-14T13:20:07Z</time>
      </trkpt>
      <trkpt lat="43.37903" lon="2.5402">
        <ele>431.77</ele>
        <time>2019-04-14T13:20:16Z</time>
      </trkpt>
      <trkpt lat="43.37903" lon="2.5402">
        <ele>432.25</ele>
        <time>2019-04-14T13:20:28Z</time>
      </trkpt>
      <trkpt lat="43.37901" lon="2.54034">
        <ele>433.21</ele>
        <time>2019-04-14T13:20:38Z</time>
      </trkpt>
      <trkpt lat="43.37899" lon="2.54042">
        <ele>430.33</ele>
        <time>2019-04-14T13:20:45Z</time>
      </trkpt>
      <trkpt lat="43.37898" lon="2.54052">
        <ele>428.89</ele>
        <time>2019-04-14T13:20:52Z</time>
      </trkpt>
      <trkpt lat="43.37893" lon="2.54056">
        <ele>426.96</ele>
        <time>2019-04-14T13:21:00Z</time>
      </trkpt>
      <trkpt lat="43.37888" lon="2.54054">
        <ele>423.6</ele>
        <time>2019-04-14T13:21:08Z</time>
      </trkpt>
      <trkpt lat="43.37883" lon="2.54055">
        <ele>422.64</ele>
        <time>2019-04-14T13:21:14Z</time>
      </trkpt>
      <trkpt lat="43.37882" lon="2.54059">
        <ele>421.19</ele>
        <time>2019-04-14T13:21:17Z</time>
      </trkpt>
      <trkpt lat="43.37879" lon="2.54068">
        <ele>419.27</ele>
        <time>2019-04-14T13:21:24Z</time>
      </trkpt>
      <trkpt lat="43.37879" lon="2.54071">
        <ele>419.27</ele>
        <time>2019-04-14T13:21:26Z</time>
      </trkpt>
      <trkpt lat="43.37877" lon="2.54076">
        <ele>419.75</ele>
        <time>2019-04-14T13:21:36Z</time>
      </trkpt>
      <trkpt lat="43.37879" lon="2.54087">
        <ele>418.31</ele>
        <time>2019-04-14T13:21:43Z</time>
      </trkpt>
      <trkpt lat="43.37877" lon="2.54089">
        <ele>416.87</ele>
        <time>2019-04-14T13:21:49Z</time>
      </trkpt>
      <trkpt lat="43.37877" lon="2.54088">
        <ele>417.35</ele>
        <time>2019-04-14T13:21:50Z</time>
      </trkpt>
      <trkpt lat="43.37876" lon="2.54083">
        <ele>416.39</ele>
        <time>2019-04-14T13:21:54Z</time>
      </trkpt>
      <trkpt lat="43.37871" lon="2.54077">
        <ele>414.95</ele>
        <time>2019-04-14T13:22:00Z</time>
      </trkpt>
      <trkpt lat="43.37869" lon="2.54067">
        <ele>415.91</ele>
        <time>2019-04-14T13:22:08Z</time>
      </trkpt>
      <trkpt lat="43.37868" lon="2.54057">
        <ele>415.91</ele>
        <time>2019-04-14T13:22:16Z</time>
      </trkpt>
      <trkpt lat="43.37867" lon="2.54051">
        <ele>413.02</ele>
        <time>2019-04-14T13:22:23Z</time>
      </trkpt>
      <trkpt lat="43.37866" lon="2.54051">
        <ele>414.47</ele>
        <time>2019-04-14T13:22:34Z</time>
      </trkpt>
      <trkpt lat="43.37865" lon="2.54049">
        <ele>412.54</ele>
        <time>2019-04-14T13:22:37Z</time>
      </trkpt>
      <trkpt lat="43.37864" lon="2.54049">
        <ele>410.62</ele>
        <time>2019-04-14T13:22:44Z</time>
      </trkpt>
      <trkpt lat="43.37865" lon="2.54049">
        <ele>412.06</ele>
        <time>2019-04-14T13:22:57Z</time>
      </trkpt>
      <trkpt lat="43.37867" lon="2.54051">
        <ele>414.47</ele>
        <time>2019-04-14T13:23:08Z</time>
      </trkpt>
      <trkpt lat="43.37862" lon="2.54054">
        <ele>413.98</ele>
        <time>2019-04-14T13:23:23Z</time>
      </trkpt>
      <trkpt lat="43.37861" lon="2.54053">
        <ele>412.54</ele>
        <time>2019-04-14T13:23:37Z</time>
      </trkpt>
      <trkpt lat="43.37859" lon="2.54047">
        <ele>412.54</ele>
        <time>2019-04-14T13:23:48Z</time>
      </trkpt>
      <trkpt lat="43.37854" lon="2.54045">
        <ele>410.62</ele>
        <time>2019-04-14T13:23:56Z</time>
      </trkpt>
      <trkpt lat="43.3785" lon="2.54045">
        <ele>410.14</ele>
        <time>2019-04-14T13:24:00Z</time>
      </trkpt>
      <trkpt lat="43.37847" lon="2.54044">
        <ele>408.7</ele>
        <time>2019-04-14T13:24:09Z</time>
      </trkpt>
      <trkpt lat="43.37848" lon="2.54047">
        <ele>408.7</ele>
        <time>2019-04-14T13:24:24Z</time>
      </trkpt>
      <trkpt lat="43.37848" lon="2.54047">
        <ele>407.26</ele>
        <time>2019-04-14T13:24:30Z</time>
      </trkpt>
      <trkpt lat="43.37842" lon="2.54049">
        <ele>403.89</ele>
        <time>2019-04-14T13:24:37Z</time>
      </trkpt>
      <trkpt lat="43.37841" lon="2.54049">
        <ele>403.89</ele>
        <time>2019-04-14T13:24:38Z</time>
      </trkpt>
      <trkpt lat="43.37833" lon="2.54051">
        <ele>401.49</ele>
        <time>2019-04-14T13:24:47Z</time>
      </trkpt>
      <trkpt lat="43.37825" lon="2.54053">
        <ele>400.05</ele>
        <time>2019-04-14T13:24:54Z</time>
      </trkpt>
      <trkpt lat="43.37823" lon="2.54053">
        <ele>399.57</ele>
        <time>2019-04-14T13:24:55Z</time>
      </trkpt>
      <trkpt lat="43.37822" lon="2.54046">
        <ele>398.12</ele>
        <time>2019-04-14T13:25:00Z</time>
      </trkpt>
      <trkpt lat="43.37831" lon="2.5404">
        <ele>395.72</ele>
        <time>2019-04-14T13:25:10Z</time>
      </trkpt>
      <trkpt lat="43.37834" lon="2.54031">
        <ele>395.72</ele>
        <time>2019-04-14T13:25:19Z</time>
      </trkpt>
      <trkpt lat="43.37836" lon="2.54029">
        <ele>395.72</ele>
        <time>2019-04-14T13:25:26Z</time>
      </trkpt>
      <trkpt lat="43.37836" lon="2.54028">
        <ele>396.2</ele>
        <time>2019-04-14T13:25:33Z</time>
      </trkpt>
      <trkpt lat="43.37837" lon="2.5402">
        <ele>394.76</ele>
        <time>2019-04-14T13:25:38Z</time>
      </trkpt>
      <trkpt lat="43.37836" lon="2.54014">
        <ele>393.8</ele>
        <time>2019-04-14T13:25:43Z</time>
      </trkpt>
      <trkpt lat="43.37828" lon="2.54022">
        <ele>391.87</ele>
        <time>2019-04-14T13:25:52Z</time>
      </trkpt>
      <trkpt lat="43.37821" lon="2.54028">
        <ele>390.91</ele>
        <time>2019-04-14T13:26:02Z</time>
      </trkpt>
      <trkpt lat="43.3782" lon="2.54029">
        <ele>390.43</ele>
        <time>2019-04-14T13:26:10Z</time>
      </trkpt>
      <trkpt lat="43.37822" lon="2.54027">
        <ele>391.39</ele>
        <time>2019-04-14T13:26:24Z</time>
      </trkpt>
      <trkpt lat="43.37823" lon="2.54027">
        <ele>392.84</ele>
        <time>2019-04-14T13:26:27Z</time>
      </trkpt>
      <trkpt lat="43.37825" lon="2.54027">
        <ele>391.87</ele>
        <time>2019-04-14T13:26:45Z</time>
      </trkpt>
      <trkpt lat="43.3783" lon="2.5402">
        <ele>391.87</ele>
        <time>2019-04-14T13:26:52Z</time>
      </trkpt>
      <trkpt lat="43.37824" lon="2.5402">
        <ele>393.32</ele>
        <time>2019-04-14T13:26:55Z</time>
      </trkpt>
      <trkpt lat="43.37821" lon="2.54023">
        <ele>389.47</ele>
        <time>2019-04-14T13:26:57Z</time>
      </trkpt>
      <trkpt lat="43.37821" lon="2.54023">
        <ele>389.47</ele>
        <time>2019-04-14T13:26:58Z</time>
      </trkpt>
      <trkpt lat="43.37816" lon="2.54026">
        <ele>388.03</ele>
        <time>2019-04-14T13:27:05Z</time>
      </trkpt>
      <trkpt lat="43.37811" lon="2.54028">
        <ele>386.11</ele>
        <time>2019-04-14T13:27:10Z</time>
      </trkpt>
      <trkpt lat="43.37793" lon="2.54039">
        <ele>385.63</ele>
        <time>2019-04-14T13:27:18Z</time>
      </trkpt>
      <trkpt lat="43.37785" lon="2.54042">
        <ele>382.26</ele>
        <time>2019-04-14T13:27:28Z</time>
      </trkpt>
      <trkpt lat="43.37784" lon="2.54043">
        <ele>382.26</ele>
        <time>2019-04-14T13:27:29Z</time>
      </trkpt>
      <trkpt lat="43.37776" lon="2.54045">
        <ele>380.82</ele>
        <time>2019-04-14T13:27:40Z</time>
      </trkpt>
      <trkpt lat="43.37776" lon="2.54047">
        <ele>380.82</ele>
        <time>2019-04-14T13:27:51Z</time>
      </trkpt>
      <trkpt lat="43.37777" lon="2.54047">
        <ele>381.78</ele>
        <time>2019-04-14T13:28:04Z</time>
      </trkpt>
      <trkpt lat="43.37781" lon="2.54042">
        <ele>380.82</ele>
        <time>2019-04-14T13:28:12Z</time>
      </trkpt>
      <trkpt lat="43.37783" lon="2.54039">
        <ele>381.3</ele>
        <time>2019-04-14T13:28:19Z</time>
      </trkpt>
      <trkpt lat="43.37787" lon="2.54032">
        <ele>379.38</ele>
        <time>2019-04-14T13:28:28Z</time>
      </trkpt>
      <trkpt lat="43.37791" lon="2.5402">
        <ele>378.42</ele>
        <time>2019-04-14T13:28:37Z</time>
      </trkpt>
      <trkpt lat="43.37788" lon="2.54019">
        <ele>378.42</ele>
        <time>2019-04-14T13:28:44Z</time>
      </trkpt>
      <trkpt lat="43.37786" lon="2.54022">
        <ele>377.94</ele>
        <time>2019-04-14T13:28:55Z</time>
      </trkpt>
      <trkpt lat="43.37786" lon="2.54031">
        <ele>377.94</ele>
        <time>2019-04-14T13:29:03Z</time>
      </trkpt>
      <trkpt lat="43.37784" lon="2.54036">
        <ele>377.45</ele>
        <time>2019-04-14T13:29:10Z</time>
      </trkpt>
      <trkpt lat="43.37782" lon="2.54034">
        <ele>376.97</ele>
        <time>2019-04-14T13:29:25Z</time>
      </trkpt>
      <trkpt lat="43.37781" lon="2.54033">
        <ele>377.45</ele>
        <time>2019-04-14T13:29:26Z</time>
      </trkpt>
      <trkpt lat="43.37779" lon="2.54035">
        <ele>376.97</ele>
        <time>2019-04-14T13:29:35Z</time>
      </trkpt>
      <trkpt lat="43.37775" lon="2.54041">
        <ele>376.49</ele>
        <time>2019-04-14T13:29:45Z</time>
      </trkpt>
      <trkpt lat="43.37773" lon="2.54049">
        <ele>376.01</ele>
        <time>2019-04-14T13:29:53Z</time>
      </trkpt>
      <trkpt lat="43.3777" lon="2.54053">
        <ele>375.53</ele>
        <time>2019-04-14T13:29:58Z</time>
      </trkpt>
      <trkpt lat="43.37768" lon="2.54059">
        <ele>377.45</ele>
        <time>2019-04-14T13:30:06Z</time>
      </trkpt>
      <trkpt lat="43.37771" lon="2.54058">
        <ele>376.01</ele>
        <time>2019-04-14T13:30:14Z</time>
      </trkpt>
      <trkpt lat="43.3777" lon="2.54057">
        <ele>376.97</ele>
        <time>2019-04-14T13:30:23Z</time>
      </trkpt>
      <trkpt lat="43.37768" lon="2.54059">
        <ele>376.49</ele>
        <time>2019-04-14T13:30:35Z</time>
      </trkpt>
      <trkpt lat="43.37767" lon="2.54063">
        <ele>377.45</ele>
        <time>2019-04-14T13:30:43Z</time>
      </trkpt>
      <trkpt lat="43.37765" lon="2.54067">
        <ele>376.49</ele>
        <time>2019-04-14T13:30:52Z</time>
      </trkpt>
    </trkseg>
  </trk>
</gpx>